[[{"header":{"parameterUnit":"m.s-1","parameterCategory":1,"la1":31.0,"la2":29.5877,"lo1":-88.7671,"lo2":-86.6584,"dy":0.0162,"dx":0.0185,"nx":115,"ny":88,"refTime":"2023-04-17T12:00:00:Z","depth":0,"parameterNumber":2,"parameterNumberName":"U-component_of_WINDS"},"data":[0.0,0.0,0.0,0.0,0.0,0.0,0.0,0.0,0.0,0.0,0.0,0.0,0.0,0.0,0.0,0.0,0.0,0.0,0.0,0.0,0.0,0.0,0.0,0.0,0.0,0.0,0.0,0.0,0.0,0.0,0.0,0.0,0.0,0.0,0.0,0.0,0.0,0.0,0.0,0.0,0.0,0.0,0.0,0.0,0.0,0.0,0.0,0.0,0.0,0.0,0.0,0.0,0.0,0.0,0.0,0.0,0.0,0.0,0.0,0.0,0.0,0.0,0.0,0.0,0.0,0.0,0.0,0.0,0.0,0.0,0.0,0.0,0.0,0.0,0.0,0.0,0.0,0.0,0.0,0.0,0.0,0.0,0.0,0.0,0.0,0.0,0.0,0.0,0.0,0.0,0.0,0.0,0.0,0.0,0.0,0.0,0.0,0.0,0.0,0.0,0.0,0.0,0.0,0.0,0.0,0.0,0.0,0.0,0.0,0.0,0.0,0.0,0.0,0.0,0.0,0.0,0.0,0.0,0.0,0.0,0.0,0.0,0.0,0.0,0.0,0.0,0.0,0.0,0.0,0.0,0.0,0.0,0.0,0.0,0.0,0.0,0.0,0.0,0.0,0.0,0.0,0.0,0.0,0.0,0.0,0.0,0.0,0.0,0.0,0.0,0.0,0.0,0.0,0.0,0.0,0.0,0.0,0.0,0.0,0.0,0.0,0.0,0.0,0.0,0.0,0.0,0.0,0.0,0.0,0.0,0.0,0.0,0.0,0.0,0.0,0.0,0.0,0.0,0.0,0.0,0.0,0.0,0.0,0.0,0.0,0.0,0.0,0.0,0.0,0.0,0.0,0.0,0.0,0.0,0.0,0.0,0.0,0.0,0.0,0.0,0.0,0.0,0.0,0.0,0.0,0.0,0.0,0.0,0.0,0.0,0.0,0.0,0.0,0.0,0.0,0.0,0.0,0.0,0.0,0.0,0.0,0.0,0.0,0.0,0.0,0.0,0.0,0.0,0.0,0.0,0.0,0.0,0.0,0.0,0.0,0.0,0.0,0.0,0.0,0.0,0.0,0.0,0.0,0.0,0.0,0.0,0.0,0.0,0.0,0.0,0.0,0.0,0.0,0.0,0.0,0.0,0.0,0.0,0.0,0.0,0.0,0.0,0.0,0.0,0.0,0.0,0.0,0.0,0.0,0.0,0.0,0.0,0.0,0.0,0.0,0.0,0.0,0.0,0.0,0.0,0.0,0.0,0.0,0.0,0.0,0.0,0.0,0.0,0.0,0.0,0.0,0.0,0.0,0.0,0.0,0.0,0.0,0.0,0.0,0.0,0.0,0.0,0.0,0.0,0.0,0.0,0.0,0.0,0.0,0.0,0.0,0.0,0.0,0.0,0.0,0.0,0.0,0.0,0.0,0.0,0.0,0.0,0.0,0.0,0.0,0.0,0.0,0.0,0.0,0.0,0.0,0.0,0.0,0.0,0.0,0.0,0.0,0.0,0.0,0.0,0.0,0.0,0.0,0.0,0.0,0.0,0.0,0.0,0.0,0.0,0.0,0.0,0.0,0.0,0.0,0.0,0.0,0.0,0.0,0.0,0.0,0.0,0.0,0.0,0.0,0.0,0.0,0.0,0.0,0.0,0.0,0.0,0.0,0.0,0.0,0.0,0.0,0.0,0.0,0.0,0.0,0.0,0.0,0.0,0.0,0.0,0.0,0.0,0.0,0.0,0.0,0.0,0.0,0.0,0.0,0.0,0.0,0.0,0.0,0.0,0.0,0.0,0.0,0.0,0.0,0.0,0.0,0.0,0.0,0.0,0.0,0.0,0.0,0.0,0.0,0.0,0.0,0.0,0.0,0.0,0.0,0.0,0.0,0.0,0.0,0.0,0.0,0.0,0.0,0.0,0.0,0.0,0.0,0.0,0.0,0.0,0.0,0.0,0.0,0.0,0.0,0.0,0.0,0.0,0.0,0.0,0.0,0.0,0.0,0.0,0.0,0.0,0.0,0.0,0.0,0.0,0.0,0.0,0.0,0.0,0.0,0.0,0.0,0.0,0.0,0.0,0.0,0.0,0.0,0.0,0.0,0.0,0.0,0.0,0.0,0.0,0.0,0.0,0.0,0.0,0.0,0.0,0.0,0.0,0.0,0.0,0.0,0.0,0.0,0.0,0.0,0.0,0.0,0.0,0.0,0.0,0.0,0.0,0.0,0.0,0.0,0.0,0.0,0.0,0.0,0.0,0.0,0.0,0.0,0.0,0.0,0.0,0.0,0.0,0.0,0.0,0.0,0.0,0.0,0.0,0.0,0.0,0.0,0.0,0.0,0.0,0.0,0.0,0.0,0.0,0.0,0.0,0.0,0.0,0.0,0.0,0.0,0.0,0.0,0.0,0.0,0.0,0.0,0.0,0.0,0.0,0.0,0.0,0.0,0.0,0.0,0.0,0.0,0.0,0.0,0.0,0.0,0.0,0.0,0.0,0.0,0.0,0.0,0.0,0.0,0.0,0.0,0.0,0.0,0.0,0.0,0.0,0.0,0.0,0.0,0.0,0.0,0.0,0.0,0.0,0.0,0.0,0.0,0.0,0.0,0.0,0.0,0.0,0.0,0.0,0.0,0.0,0.0,0.0,0.0,0.0,0.0,0.0,0.0,0.0,0.0,0.0,0.0,0.0,0.0,0.0,0.0,0.0,0.0,0.0,0.0,0.0,0.0,0.0,0.0,0.0,0.0,0.0,0.0,0.0,0.0,0.0,0.0,0.0,0.0,0.0,0.0,0.0,0.0,0.0,0.0,0.0,0.0,0.0,0.0,0.0,0.0,0.0,0.0,0.0,0.0,0.0,0.0,0.0,0.0,0.0,0.0,0.0,0.0,0.0,0.0,0.0,0.0,0.0,0.0,0.0,0.0,0.0,0.0,0.0,0.0,0.0,0.0,0.0,0.0,0.0,0.0,0.0,0.0,0.0,0.0,0.0,0.0,0.0,0.0,0.0,0.0,0.0,0.0,0.0,0.0,0.0,0.0,0.0,0.0,0.0,0.0,0.0,0.0,0.0,0.0,0.0,0.0,0.0,0.0,0.0,0.0,0.0,0.0,0.0,0.0,0.0,0.0,0.0,0.0,0.0,0.0,0.0,0.0,0.0,0.0,0.0,0.0,0.0,0.0,0.0,0.0,0.0,0.0,0.0,0.0,0.0,0.0,0.0,0.0,0.0,0.0,0.0,0.0,0.0,0.0,0.0,0.0,0.0,0.0,0.0,0.0,0.0,0.0,0.0,0.0,0.0,0.0,0.0,0.0,0.0,0.0,0.0,0.0,0.0,0.0,0.0,0.0,0.0,0.0,0.0,0.0,0.0,0.0,0.0,0.0,0.0,0.0,0.0,0.0,0.0,0.0,0.0,0.0,0.0,0.0,0.0,0.0,0.0,0.0,0.0,0.0,0.0,0.0,0.0,0.0,0.0,0.0,0.0,0.0,0.0,0.0,0.0,0.0,0.0,0.0,0.0,0.0,0.0,0.0,0.0,0.0,0.0,0.0,0.0,0.0,0.0,0.0,0.0,0.0,0.0,0.0,0.0,0.0,0.0,0.0,0.0,0.0,0.0,0.0,0.0,0.0,0.0,0.0,0.0,0.0,0.0,0.0,0.0,0.0,0.0,0.0,0.0,0.0,0.0,0.0,0.0,0.0,0.0,0.0,0.0,0.0,0.0,0.0,0.0,0.0,0.0,0.0,0.0,0.0,0.0,0.0,0.0,0.0,0.0,0.0,0.0,0.0,0.0,0.0,0.0,0.0,0.0,0.0,0.0,0.0,0.0,0.0,0.0,0.0,0.0,0.0,0.0,0.0,0.0,0.0,0.0,0.0,0.0,0.0,0.0,0.0,0.0,0.0,0.0,0.0,0.0,0.0,0.0,0.0,0.0,0.0,0.0,0.0,0.0,0.0,0.0,0.0,0.0,0.0,0.0,0.0,0.0,0.0,0.0,0.0,0.0,0.0,0.0,0.0,0.0,0.0,0.0,0.0,0.0,0.0,0.0,0.0,0.0,0.0,0.0,0.0,0.0,0.0,0.0,0.0,0.0,0.0,0.0,0.0,0.0,0.0,0.0,0.0,0.0,0.0,0.0,0.0,0.0,0.0,0.0,0.0,0.0,0.0,0.0,0.0,0.0,0.0,0.0,0.0,0.0,0.0,0.0,0.0,0.0,0.0,0.0,0.0,0.0,0.0,0.0,0.0,0.0,0.0,0.0,0.0,0.0,0.0,0.0,0.0,0.0,-5.929,0.0,0.0,0.0,0.0,0.0,0.0,0.0,0.0,0.0,0.0,0.0,0.0,0.0,0.0,0.0,0.0,0.0,0.0,0.0,0.0,0.0,0.0,0.0,0.0,0.0,0.0,0.0,0.0,0.0,0.0,0.0,0.0,0.0,0.0,0.0,0.0,0.0,0.0,0.0,0.0,0.0,0.0,0.0,0.0,0.0,0.0,0.0,0.0,0.0,0.0,0.0,0.0,0.0,0.0,0.0,0.0,0.0,0.0,0.0,0.0,0.0,0.0,0.0,0.0,0.0,0.0,0.0,0.0,0.0,0.0,0.0,0.0,0.0,0.0,0.0,0.0,0.0,0.0,0.0,0.0,0.0,0.0,0.0,0.0,0.0,0.0,0.0,0.0,0.0,0.0,0.0,0.0,0.0,0.0,0.0,0.0,0.0,0.0,0.0,0.0,0.0,0.0,0.0,0.0,0.0,0.0,0.0,0.0,0.0,0.0,-6.036,-5.9929,-5.9515,-5.929,-5.929,0.0,0.0,0.0,0.0,0.0,0.0,0.0,0.0,0.0,0.0,0.0,0.0,0.0,0.0,0.0,0.0,0.0,0.0,0.0,0.0,0.0,0.0,0.0,0.0,0.0,0.0,0.0,0.0,0.0,0.0,0.0,0.0,0.0,0.0,0.0,0.0,0.0,0.0,0.0,0.0,0.0,0.0,0.0,0.0,0.0,0.0,0.0,0.0,0.0,0.0,0.0,0.0,0.0,0.0,0.0,0.0,0.0,0.0,0.0,0.0,0.0,0.0,0.0,0.0,0.0,0.0,0.0,0.0,0.0,0.0,0.0,0.0,0.0,0.0,0.0,0.0,0.0,0.0,0.0,0.0,0.0,0.0,0.0,0.0,0.0,0.0,0.0,0.0,0.0,0.0,0.0,0.0,0.0,0.0,0.0,0.0,0.0,0.0,0.0,0.0,0.0,0.0,0.0,0.0,0.0,0.0,0.0,0.0,0.0,0.0,0.0,0.0,-5.9872,-5.9778,-5.9609,0.0,0.0,0.0,0.0,0.0,0.0,0.0,0.0,0.0,0.0,0.0,0.0,0.0,0.0,0.0,0.0,0.0,0.0,0.0,0.0,0.0,0.0,0.0,0.0,0.0,0.0,0.0,0.0,0.0,0.0,0.0,0.0,0.0,0.0,0.0,0.0,0.0,0.0,0.0,0.0,0.0,0.0,0.0,0.0,0.0,0.0,0.0,0.0,0.0,0.0,0.0,0.0,0.0,0.0,0.0,0.0,0.0,0.0,0.0,0.0,0.0,0.0,0.0,0.0,0.0,0.0,0.0,0.0,0.0,0.0,0.0,0.0,0.0,0.0,0.0,0.0,0.0,0.0,0.0,0.0,0.0,0.0,0.0,0.0,0.0,0.0,0.0,0.0,0.0,0.0,0.0,0.0,0.0,0.0,0.0,0.0,0.0,0.0,0.0,0.0,0.0,0.0,0.0,0.0,0.0,0.0,0.0,0.0,0.0,0.0,-6.0924,-6.1562,-6.1543,0.0,-6.0511,0.0,0.0,0.0,0.0,0.0,0.0,0.0,0.0,0.0,0.0,0.0,0.0,0.0,0.0,0.0,0.0,0.0,0.0,0.0,0.0,0.0,0.0,0.0,0.0,0.0,0.0,0.0,0.0,0.0,0.0,0.0,0.0,0.0,0.0,0.0,0.0,0.0,0.0,0.0,0.0,0.0,0.0,0.0,0.0,0.0,0.0,0.0,0.0,0.0,0.0,0.0,0.0,0.0,0.0,0.0,0.0,0.0,0.0,0.0,0.0,0.0,0.0,0.0,0.0,0.0,0.0,0.0,0.0,0.0,0.0,0.0,0.0,0.0,0.0,0.0,0.0,0.0,0.0,0.0,0.0,0.0,0.0,0.0,0.0,0.0,0.0,0.0,0.0,0.0,0.0,0.0,0.0,0.0,0.0,0.0,0.0,0.0,0.0,0.0,0.0,0.0,0.0,0.0,0.0,0.0,0.0,0.0,0.0,0.0,0.0,-6.1243,-6.1093,-6.0604,-6.0173,0.0,0.0,0.0,0.0,0.0,0.0,0.0,0.0,0.0,0.0,0.0,0.0,0.0,0.0,0.0,0.0,0.0,0.0,0.0,0.0,0.0,0.0,0.0,0.0,0.0,0.0,0.0,0.0,0.0,0.0,0.0,0.0,0.0,0.0,0.0,0.0,0.0,0.0,0.0,0.0,0.0,0.0,0.0,0.0,0.0,0.0,0.0,0.0,0.0,0.0,0.0,0.0,0.0,0.0,0.0,0.0,0.0,0.0,0.0,0.0,0.0,0.0,0.0,0.0,0.0,0.0,0.0,0.0,0.0,0.0,0.0,0.0,0.0,0.0,0.0,0.0,0.0,0.0,0.0,0.0,0.0,0.0,0.0,0.0,0.0,0.0,0.0,0.0,0.0,0.0,0.0,0.0,0.0,0.0,0.0,0.0,0.0,0.0,0.0,0.0,0.0,0.0,0.0,0.0,0.0,0.0,0.0,0.0,0.0,0.0,-6.1355,-6.1524,-6.0924,-6.0097,-5.9628,-5.9591,0.0,0.0,0.0,0.0,0.0,0.0,0.0,0.0,0.0,0.0,0.0,0.0,0.0,0.0,0.0,0.0,0.0,0.0,0.0,0.0,0.0,0.0,0.0,0.0,0.0,0.0,0.0,0.0,0.0,0.0,0.0,0.0,0.0,0.0,0.0,0.0,0.0,0.0,0.0,0.0,0.0,0.0,0.0,0.0,0.0,0.0,0.0,0.0,0.0,0.0,0.0,0.0,0.0,0.0,0.0,0.0,0.0,0.0,0.0,0.0,0.0,0.0,0.0,0.0,0.0,0.0,0.0,0.0,0.0,0.0,0.0,0.0,0.0,0.0,0.0,0.0,0.0,0.0,0.0,0.0,0.0,0.0,0.0,0.0,0.0,0.0,0.0,0.0,0.0,0.0,0.0,0.0,0.0,0.0,0.0,0.0,0.0,0.0,0.0,0.0,0.0,0.0,0.0,0.0,0.0,0.0,0.0,0.0,-6.0469,-6.1317,-6.1768,-6.1712,-6.0961,-6.0472,0.0,0.0,0.0,0.0,0.0,0.0,0.0,0.0,0.0,0.0,0.0,0.0,0.0,0.0,0.0,0.0,0.0,0.0,0.0,0.0,0.0,0.0,0.0,0.0,0.0,0.0,0.0,0.0,0.0,0.0,0.0,0.0,0.0,0.0,0.0,0.0,0.0,0.0,0.0,0.0,0.0,0.0,0.0,0.0,0.0,0.0,0.0,0.0,0.0,0.0,0.0,0.0,0.0,0.0,0.0,0.0,0.0,0.0,0.0,0.0,0.0,0.0,0.0,0.0,0.0,0.0,0.0,0.0,0.0,0.0,0.0,0.0,0.0,0.0,0.0,0.0,0.0,0.0,0.0,0.0,0.0,0.0,0.0,0.0,0.0,0.0,0.0,0.0,0.0,0.0,0.0,0.0,0.0,0.0,0.0,0.0,0.0,0.0,0.0,0.0,0.0,0.0,0.0,0.0,0.0,0.0,0.0,0.0,0.0,-6.1156,-6.0934,-6.1328,-6.2262,-6.0561,-5.9793,0.0,0.0,0.0,0.0,0.0,0.0,0.0,0.0,0.0,0.0,0.0,0.0,0.0,0.0,0.0,0.0,0.0,0.0,0.0,0.0,0.0,0.0,0.0,0.0,0.0,0.0,0.0,0.0,0.0,0.0,0.0,0.0,0.0,0.0,0.0,0.0,0.0,0.0,0.0,0.0,0.0,0.0,0.0,0.0,0.0,0.0,0.0,0.0,0.0,0.0,0.0,0.0,0.0,0.0,0.0,0.0,0.0,0.0,0.0,0.0,0.0,0.0,0.0,0.0,0.0,0.0,0.0,0.0,0.0,0.0,0.0,0.0,0.0,0.0,0.0,0.0,0.0,0.0,0.0,0.0,0.0,0.0,0.0,0.0,0.0,0.0,0.0,0.0,0.0,0.0,0.0,0.0,0.0,0.0,0.0,0.0,0.0,0.0,0.0,0.0,0.0,0.0,0.0,0.0,0.0,0.0,0.0,0.0,0.0,-6.1506,0.0,-6.0735,-6.1743,-5.995,-5.9145,0.0,0.0,0.0,0.0,0.0,0.0,0.0,0.0,0.0,0.0,0.0,0.0,0.0,0.0,0.0,0.0,0.0,0.0,0.0,0.0,0.0,0.0,0.0,0.0,0.0,0.0,0.0,0.0,0.0,0.0,0.0,0.0,0.0,0.0,0.0,0.0,0.0,0.0,0.0,0.0,0.0,0.0,0.0,0.0,0.0,0.0,0.0,0.0,0.0,0.0,0.0,0.0,0.0,0.0,0.0,0.0,0.0,0.0,0.0,0.0,0.0,0.0,0.0,0.0,0.0,0.0,0.0,0.0,0.0,0.0,0.0,0.0,0.0,0.0,0.0,0.0,0.0,0.0,0.0,0.0,0.0,0.0,0.0,0.0,0.0,0.0,0.0,0.0,0.0,0.0,0.0,0.0,0.0,0.0,0.0,0.0,0.0,0.0,0.0,0.0,0.0,0.0,0.0,0.0,0.0,0.0,0.0,0.0,-6.1382,-6.1448,-6.058,-6.0199,-6.0127,-5.9297,-5.8709,0.0,0.0,0.0,0.0,0.0,0.0,0.0,0.0,0.0,0.0,0.0,0.0,0.0,0.0,0.0,0.0,0.0,0.0,0.0,0.0,0.0,0.0,0.0,0.0,0.0,0.0,0.0,0.0,0.0,0.0,0.0,0.0,0.0,0.0,0.0,0.0,0.0,0.0,0.0,0.0,0.0,0.0,0.0,0.0,0.0,0.0,0.0,0.0,0.0,0.0,0.0,0.0,0.0,0.0,0.0,0.0,0.0,0.0,0.0,0.0,0.0,0.0,0.0,0.0,0.0,0.0,0.0,0.0,0.0,0.0,0.0,0.0,0.0,0.0,0.0,0.0,0.0,0.0,0.0,0.0,0.0,0.0,0.0,0.0,0.0,0.0,0.0,0.0,0.0,0.0,0.0,0.0,0.0,0.0,0.0,0.0,0.0,0.0,0.0,0.0,0.0,0.0,0.0,0.0,0.0,0.0,0.0,0.0,0.0,-6.1018,-6.0733,-6.0859,-6.1341,-6.0507,-6.0018,0.0,0.0,0.0,0.0,0.0,0.0,0.0,0.0,0.0,0.0,0.0,0.0,0.0,0.0,0.0,0.0,0.0,0.0,0.0,0.0,0.0,0.0,0.0,0.0,0.0,0.0,0.0,0.0,0.0,0.0,0.0,0.0,0.0,0.0,0.0,0.0,0.0,0.0,0.0,0.0,0.0,0.0,0.0,0.0,0.0,0.0,0.0,0.0,0.0,0.0,0.0,0.0,0.0,0.0,0.0,0.0,0.0,0.0,0.0,0.0,0.0,0.0,0.0,0.0,0.0,0.0,0.0,0.0,0.0,0.0,0.0,0.0,0.0,0.0,0.0,0.0,0.0,0.0,0.0,0.0,0.0,0.0,0.0,0.0,0.0,0.0,0.0,0.0,0.0,0.0,0.0,0.0,0.0,0.0,0.0,0.0,0.0,0.0,0.0,0.0,0.0,0.0,0.0,0.0,0.0,0.0,0.0,0.0,0.0,-6.0641,-6.0927,-6.1166,-6.1308,-6.0412,-5.9813,-5.953,0.0,0.0,0.0,0.0,0.0,0.0,0.0,0.0,0.0,0.0,0.0,0.0,0.0,0.0,0.0,0.0,0.0,0.0,0.0,0.0,0.0,0.0,0.0,0.0,0.0,0.0,0.0,0.0,0.0,0.0,0.0,0.0,0.0,0.0,0.0,0.0,0.0,0.0,0.0,0.0,0.0,0.0,0.0,0.0,0.0,0.0,0.0,0.0,0.0,0.0,0.0,0.0,0.0,0.0,0.0,0.0,0.0,0.0,0.0,0.0,0.0,0.0,0.0,0.0,0.0,0.0,0.0,0.0,0.0,0.0,0.0,0.0,0.0,0.0,0.0,0.0,0.0,0.0,0.0,0.0,0.0,0.0,0.0,0.0,0.0,0.0,0.0,0.0,0.0,0.0,0.0,0.0,0.0,0.0,0.0,0.0,0.0,0.0,0.0,0.0,0.0,0.0,0.0,0.0,0.0,0.0,0.0,0.0,-6.0267,-6.1202,-6.1282,-6.0378,-5.9572,-5.8585,0.0,0.0,0.0,0.0,0.0,0.0,0.0,0.0,0.0,0.0,0.0,0.0,0.0,0.0,0.0,0.0,0.0,0.0,0.0,0.0,0.0,0.0,0.0,0.0,0.0,0.0,0.0,0.0,0.0,0.0,0.0,0.0,0.0,0.0,0.0,0.0,0.0,0.0,0.0,0.0,0.0,0.0,0.0,0.0,0.0,0.0,0.0,0.0,0.0,0.0,0.0,0.0,0.0,0.0,0.0,0.0,0.0,0.0,0.0,0.0,0.0,0.0,0.0,0.0,0.0,0.0,0.0,0.0,0.0,0.0,0.0,0.0,0.0,0.0,0.0,0.0,0.0,0.0,0.0,0.0,0.0,0.0,0.0,0.0,0.0,0.0,0.0,0.0,0.0,0.0,0.0,0.0,0.0,0.0,0.0,0.0,0.0,0.0,0.0,0.0,0.0,0.0,0.0,0.0,0.0,0.0,0.0,0.0,0.0,-6.0963,-6.2243,-6.2571,-6.1865,-6.2081,-6.1282,0.0,0.0,0.0,0.0,0.0,0.0,0.0,0.0,0.0,0.0,0.0,0.0,0.0,0.0,0.0,0.0,0.0,0.0,0.0,0.0,0.0,0.0,0.0,0.0,0.0,0.0,0.0,0.0,0.0,0.0,0.0,0.0,0.0,0.0,0.0,0.0,0.0,0.0,0.0,0.0,0.0,0.0,0.0,0.0,0.0,0.0,0.0,0.0,0.0,0.0,0.0,0.0,0.0,0.0,0.0,0.0,0.0,0.0,0.0,0.0,0.0,0.0,0.0,0.0,0.0,0.0,0.0,0.0,0.0,0.0,0.0,0.0,0.0,0.0,0.0,0.0,0.0,0.0,0.0,0.0,0.0,0.0,0.0,0.0,0.0,0.0,0.0,0.0,0.0,0.0,0.0,0.0,0.0,0.0,0.0,0.0,0.0,0.0,0.0,0.0,0.0,0.0,0.0,0.0,0.0,0.0,0.0,0.0,-6.0664,-6.1806,-6.2862,-6.3401,-6.3398,-6.3329,-6.2195,0.0,0.0,0.0,0.0,0.0,0.0,0.0,0.0,0.0,0.0,0.0,0.0,0.0,0.0,0.0,0.0,0.0,0.0,0.0,0.0,0.0,0.0,0.0,0.0,0.0,0.0,0.0,0.0,0.0,0.0,0.0,0.0,0.0,0.0,0.0,0.0,0.0,0.0,0.0,0.0,0.0,0.0,0.0,0.0,0.0,0.0,0.0,0.0,0.0,0.0,0.0,0.0,0.0,0.0,0.0,0.0,0.0,0.0,0.0,0.0,0.0,0.0,0.0,0.0,0.0,0.0,0.0,0.0,0.0,0.0,0.0,0.0,0.0,0.0,0.0,0.0,0.0,0.0,0.0,0.0,0.0,0.0,0.0,0.0,0.0,0.0,0.0,0.0,0.0,0.0,0.0,0.0,0.0,0.0,0.0,0.0,0.0,0.0,0.0,0.0,0.0,0.0,0.0,0.0,0.0,0.0,0.0,0.0,-6.0988,-6.2568,-6.3147,-6.3908,-6.4746,-6.3809,-6.203,0.0,0.0,0.0,0.0,0.0,0.0,0.0,0.0,0.0,0.0,0.0,0.0,0.0,0.0,0.0,0.0,0.0,0.0,0.0,0.0,0.0,0.0,0.0,0.0,0.0,0.0,0.0,0.0,0.0,0.0,0.0,0.0,0.0,0.0,0.0,0.0,0.0,0.0,0.0,0.0,0.0,0.0,0.0,0.0,0.0,0.0,0.0,0.0,0.0,0.0,0.0,0.0,0.0,0.0,0.0,0.0,0.0,0.0,0.0,0.0,0.0,0.0,0.0,0.0,0.0,0.0,0.0,0.0,0.0,0.0,0.0,0.0,0.0,0.0,0.0,0.0,0.0,0.0,0.0,0.0,0.0,0.0,0.0,0.0,0.0,0.0,0.0,0.0,0.0,0.0,0.0,0.0,0.0,0.0,0.0,0.0,0.0,0.0,0.0,0.0,0.0,0.0,0.0,0.0,0.0,0.0,0.0,0.0,-6.0278,-6.1907,-6.3197,-6.4279,-6.5092,-6.3997,-6.2278,0.0,0.0,0.0,0.0,0.0,0.0,0.0,0.0,0.0,0.0,0.0,0.0,0.0,0.0,0.0,0.0,0.0,0.0,0.0,0.0,0.0,0.0,0.0,0.0,0.0,0.0,0.0,0.0,0.0,0.0,0.0,0.0,0.0,0.0,0.0,0.0,0.0,0.0,0.0,0.0,0.0,0.0,0.0,0.0,0.0,0.0,0.0,0.0,-5.5855,0.0,0.0,0.0,0.0,0.0,0.0,0.0,0.0,0.0,0.0,0.0,0.0,0.0,0.0,0.0,0.0,0.0,0.0,0.0,0.0,0.0,0.0,0.0,0.0,0.0,0.0,0.0,0.0,0.0,0.0,0.0,0.0,0.0,0.0,0.0,0.0,0.0,0.0,0.0,0.0,0.0,0.0,0.0,0.0,0.0,0.0,0.0,0.0,0.0,0.0,0.0,0.0,0.0,0.0,0.0,0.0,0.0,0.0,0.0,-5.9886,-6.1702,-6.2931,-6.3915,-6.46,-6.3412,-6.1923,0.0,0.0,0.0,0.0,0.0,0.0,0.0,0.0,0.0,0.0,0.0,0.0,0.0,0.0,0.0,0.0,0.0,0.0,0.0,0.0,0.0,0.0,0.0,0.0,0.0,0.0,0.0,0.0,0.0,0.0,0.0,0.0,0.0,0.0,0.0,0.0,0.0,0.0,0.0,0.0,0.0,0.0,0.0,0.0,0.0,0.0,0.0,0.0,0.0,0.0,0.0,0.0,0.0,0.0,0.0,0.0,0.0,0.0,0.0,0.0,0.0,0.0,0.0,0.0,0.0,0.0,0.0,0.0,0.0,0.0,0.0,0.0,0.0,0.0,0.0,0.0,0.0,0.0,0.0,0.0,0.0,0.0,0.0,0.0,0.0,0.0,0.0,0.0,0.0,0.0,0.0,0.0,0.0,0.0,0.0,0.0,0.0,0.0,0.0,0.0,0.0,0.0,0.0,0.0,0.0,0.0,0.0,-5.8042,-5.9619,-6.1606,-6.2561,-6.3289,-6.3897,-6.2648,-6.1408,-6.0276,0.0,0.0,0.0,0.0,0.0,0.0,0.0,0.0,0.0,0.0,0.0,0.0,0.0,0.0,0.0,0.0,0.0,0.0,0.0,0.0,0.0,0.0,0.0,0.0,0.0,0.0,0.0,0.0,0.0,0.0,0.0,0.0,0.0,0.0,0.0,0.0,0.0,0.0,-5.7809,-5.829,0.0,0.0,0.0,0.0,0.0,0.0,0.0,0.0,-5.4849,0.0,0.0,0.0,0.0,0.0,0.0,0.0,0.0,0.0,0.0,0.0,0.0,0.0,0.0,0.0,0.0,0.0,0.0,0.0,0.0,0.0,0.0,0.0,0.0,0.0,0.0,0.0,0.0,0.0,0.0,0.0,0.0,0.0,0.0,0.0,0.0,0.0,0.0,0.0,0.0,0.0,0.0,0.0,0.0,0.0,0.0,0.0,0.0,0.0,0.0,0.0,0.0,0.0,0.0,0.0,0.0,-5.6804,-5.8048,-5.946,-6.1093,-6.2338,-6.3035,-6.3138,-6.2481,-6.1147,-5.9098,0.0,0.0,0.0,0.0,0.0,0.0,0.0,0.0,0.0,0.0,0.0,0.0,0.0,0.0,0.0,0.0,0.0,0.0,0.0,0.0,0.0,0.0,0.0,0.0,0.0,0.0,0.0,0.0,0.0,0.0,0.0,0.0,0.0,0.0,0.0,0.0,0.0,0.0,0.0,-5.7282,-5.7704,0.0,0.0,0.0,0.0,0.0,0.0,0.0,0.0,-5.4004,0.0,0.0,0.0,0.0,0.0,0.0,0.0,0.0,0.0,0.0,0.0,0.0,0.0,0.0,0.0,0.0,0.0,0.0,0.0,0.0,0.0,0.0,0.0,0.0,0.0,0.0,0.0,0.0,0.0,0.0,0.0,0.0,0.0,0.0,0.0,0.0,0.0,0.0,0.0,0.0,0.0,0.0,0.0,0.0,0.0,0.0,0.0,0.0,0.0,0.0,0.0,0.0,0.0,0.0,0.0,-5.6488,-5.7878,-5.9262,-6.0674,-6.2214,-6.2945,-6.283,-6.1927,-6.0568,0.0,0.0,0.0,0.0,0.0,0.0,0.0,0.0,0.0,0.0,0.0,0.0,0.0,0.0,0.0,0.0,0.0,0.0,0.0,0.0,0.0,0.0,0.0,0.0,0.0,0.0,0.0,0.0,0.0,0.0,0.0,0.0,0.0,0.0,0.0,0.0,0.0,0.0,0.0,0.0,-5.753,-5.7995,-5.7681,0.0,0.0,0.0,0.0,0.0,0.0,-5.46,-5.4311,0.0,0.0,0.0,0.0,0.0,0.0,0.0,0.0,0.0,0.0,0.0,0.0,0.0,0.0,0.0,0.0,0.0,0.0,0.0,0.0,0.0,0.0,0.0,0.0,0.0,0.0,0.0,0.0,0.0,0.0,0.0,0.0,0.0,0.0,0.0,0.0,0.0,0.0,0.0,0.0,0.0,0.0,0.0,0.0,0.0,0.0,0.0,0.0,0.0,0.0,0.0,0.0,0.0,0.0,0.0,-5.6218,-5.7533,-5.8927,-6.0381,-6.1718,-6.2417,-6.2416,-6.1259,-5.9925,0.0,0.0,0.0,0.0,0.0,0.0,0.0,0.0,0.0,0.0,0.0,0.0,0.0,0.0,0.0,0.0,0.0,0.0,0.0,0.0,0.0,0.0,0.0,0.0,0.0,0.0,0.0,0.0,0.0,0.0,0.0,0.0,0.0,0.0,0.0,0.0,0.0,0.0,0.0,0.0,0.0,-5.8098,-5.7058,-5.7281,0.0,0.0,0.0,0.0,-5.5315,-5.5125,0.0,0.0,0.0,0.0,0.0,0.0,0.0,0.0,0.0,0.0,0.0,0.0,0.0,0.0,0.0,0.0,0.0,0.0,0.0,0.0,0.0,0.0,0.0,0.0,0.0,0.0,0.0,0.0,0.0,0.0,0.0,0.0,0.0,0.0,0.0,0.0,0.0,0.0,0.0,0.0,0.0,0.0,0.0,0.0,0.0,0.0,0.0,0.0,0.0,0.0,0.0,0.0,0.0,0.0,0.0,0.0,-5.615,-5.6882,-5.8292,-6.0279,-6.0418,-6.0727,-6.1421,-6.0798,-5.9448,0.0,0.0,0.0,0.0,0.0,0.0,0.0,0.0,0.0,0.0,0.0,0.0,0.0,0.0,0.0,0.0,0.0,0.0,0.0,0.0,0.0,0.0,0.0,0.0,0.0,0.0,0.0,0.0,0.0,0.0,0.0,0.0,0.0,0.0,0.0,0.0,0.0,0.0,0.0,0.0,0.0,-5.6759,-5.5959,-5.6424,-5.6526,0.0,0.0,-5.5708,-5.5057,-5.5584,0.0,0.0,0.0,0.0,0.0,0.0,0.0,0.0,0.0,0.0,0.0,0.0,0.0,0.0,0.0,0.0,0.0,0.0,0.0,0.0,0.0,0.0,0.0,0.0,0.0,0.0,0.0,0.0,0.0,0.0,0.0,0.0,0.0,0.0,0.0,0.0,0.0,0.0,0.0,0.0,0.0,0.0,0.0,0.0,0.0,0.0,0.0,0.0,0.0,0.0,0.0,0.0,0.0,0.0,0.0,-5.4515,-5.5858,-5.6568,-5.7974,-6.0109,-6.0152,-6.0486,-6.1281,-6.0207,-5.8826,0.0,0.0,0.0,0.0,0.0,0.0,0.0,0.0,0.0,0.0,0.0,0.0,0.0,0.0,0.0,0.0,0.0,0.0,0.0,0.0,0.0,0.0,0.0,0.0,0.0,0.0,0.0,0.0,0.0,0.0,0.0,0.0,0.0,0.0,0.0,0.0,0.0,0.0,0.0,0.0,0.0,0.0,-5.5898,-5.655,0.0,0.0,0.0,-5.623,-5.6201,0.0,0.0,0.0,0.0,0.0,0.0,0.0,0.0,0.0,0.0,0.0,0.0,0.0,0.0,0.0,0.0,0.0,0.0,0.0,0.0,0.0,0.0,0.0,0.0,0.0,0.0,0.0,0.0,0.0,0.0,0.0,0.0,0.0,0.0,0.0,0.0,0.0,0.0,0.0,0.0,0.0,0.0,0.0,0.0,0.0,0.0,0.0,0.0,0.0,0.0,0.0,0.0,0.0,0.0,0.0,0.0,0.0,-5.5402,-5.601,-5.7358,-5.9481,-5.9713,-6.0,-6.0442,-5.9418,0.0,0.0,0.0,0.0,0.0,0.0,0.0,0.0,0.0,0.0,0.0,0.0,0.0,0.0,0.0,0.0,0.0,0.0,0.0,0.0,0.0,0.0,0.0,0.0,0.0,0.0,0.0,-4.9517,0.0,0.0,0.0,0.0,0.0,0.0,0.0,0.0,0.0,0.0,0.0,0.0,0.0,0.0,-5.6743,-5.5559,-5.6413,-5.7125,0.0,0.0,-5.645,-5.6474,-5.5864,-5.5084,0.0,0.0,0.0,0.0,0.0,0.0,0.0,0.0,0.0,0.0,0.0,0.0,0.0,0.0,0.0,0.0,0.0,0.0,0.0,0.0,0.0,0.0,0.0,0.0,0.0,0.0,0.0,0.0,0.0,0.0,0.0,0.0,0.0,0.0,0.0,0.0,0.0,0.0,0.0,0.0,0.0,0.0,0.0,0.0,0.0,0.0,0.0,0.0,0.0,0.0,0.0,0.0,0.0,0.0,-5.3199,-5.4725,-5.4878,-5.6033,-5.8152,-5.8614,-5.8631,-5.8319,-5.8406,-5.767,0.0,0.0,0.0,0.0,0.0,0.0,0.0,0.0,0.0,0.0,0.0,0.0,0.0,0.0,0.0,0.0,0.0,0.0,0.0,0.0,0.0,0.0,0.0,0.0,0.0,0.0,0.0,0.0,0.0,0.0,0.0,0.0,0.0,0.0,0.0,0.0,0.0,0.0,0.0,0.0,0.0,-5.5724,-5.4374,-5.5407,-5.6024,0.0,-5.5962,-5.6073,-5.481,-5.6337,-5.6563,-5.3375,0.0,0.0,0.0,0.0,0.0,0.0,0.0,0.0,0.0,0.0,0.0,0.0,0.0,0.0,0.0,0.0,0.0,0.0,0.0,0.0,0.0,0.0,0.0,0.0,0.0,0.0,0.0,0.0,0.0,0.0,0.0,0.0,0.0,0.0,0.0,0.0,0.0,0.0,0.0,0.0,0.0,0.0,0.0,0.0,0.0,0.0,0.0,0.0,0.0,0.0,0.0,0.0,0.0,-5.2692,-5.4183,-5.4253,-5.5292,-5.7394,-5.7215,-5.7181,-5.747,-5.7097,-5.6403,0.0,0.0,0.0,0.0,0.0,0.0,0.0,0.0,0.0,0.0,0.0,0.0,0.0,0.0,0.0,0.0,0.0,0.0,0.0,0.0,0.0,0.0,0.0,0.0,0.0,0.0,0.0,0.0,-4.8965,-4.8867,-4.8852,0.0,0.0,0.0,0.0,0.0,0.0,0.0,0.0,0.0,0.0,-5.4585,-5.5052,-5.5603,0.0,0.0,-5.7021,-5.6765,-5.6211,-5.6128,-5.5482,-5.3446,-5.261,0.0,0.0,0.0,0.0,0.0,0.0,0.0,0.0,0.0,0.0,0.0,0.0,0.0,0.0,0.0,0.0,0.0,0.0,0.0,0.0,0.0,0.0,0.0,0.0,0.0,0.0,0.0,0.0,0.0,0.0,0.0,0.0,0.0,0.0,0.0,0.0,0.0,0.0,0.0,0.0,0.0,0.0,0.0,0.0,0.0,0.0,0.0,0.0,0.0,0.0,0.0,0.0,-5.1891,-5.338,-5.3396,-5.4361,-5.6246,-5.61,-5.61,-5.6279,-5.6059,-5.5547,0.0,0.0,0.0,0.0,0.0,0.0,0.0,0.0,0.0,0.0,0.0,0.0,0.0,0.0,0.0,0.0,0.0,0.0,0.0,0.0,0.0,0.0,0.0,0.0,0.0,0.0,0.0,0.0,-4.862,-4.8537,-4.8563,0.0,0.0,0.0,0.0,0.0,0.0,0.0,0.0,0.0,0.0,-5.3606,-5.488,-5.527,-5.5785,-5.6957,-5.6673,-5.6296,-5.6091,-5.5399,-5.451,-5.3381,0.0,0.0,0.0,0.0,0.0,0.0,0.0,0.0,0.0,0.0,0.0,0.0,0.0,0.0,0.0,0.0,0.0,0.0,0.0,0.0,0.0,0.0,0.0,0.0,0.0,0.0,0.0,-5.2693,0.0,0.0,-5.0737,0.0,0.0,0.0,0.0,0.0,0.0,0.0,0.0,0.0,0.0,0.0,0.0,0.0,0.0,0.0,0.0,0.0,0.0,0.0,0.0,0.0,0.0,-5.0683,-5.2202,-5.2331,-5.3031,-5.4423,-5.5499,-5.5541,-5.456,-5.5304,-5.5346,-5.4407,0.0,0.0,0.0,0.0,0.0,0.0,0.0,0.0,0.0,0.0,0.0,0.0,0.0,0.0,0.0,0.0,0.0,0.0,0.0,0.0,0.0,0.0,0.0,0.0,0.0,0.0,-4.8328,-4.8328,-4.837,0.0,0.0,0.0,0.0,0.0,0.0,0.0,0.0,0.0,0.0,-5.1537,-5.2676,-5.3362,-5.4001,-5.4469,-5.4547,-5.4532,-5.428,-5.3671,-5.4061,-5.4028,0.0,0.0,0.0,0.0,0.0,0.0,0.0,0.0,0.0,0.0,0.0,0.0,0.0,0.0,0.0,0.0,0.0,0.0,0.0,0.0,0.0,0.0,0.0,0.0,0.0,0.0,0.0,-5.2934,-5.202,0.0,0.0,0.0,0.0,0.0,0.0,0.0,0.0,0.0,0.0,0.0,-5.0843,-5.0173,0.0,0.0,0.0,0.0,0.0,0.0,0.0,0.0,0.0,0.0,0.0,0.0,-4.9956,-5.0916,-5.1403,-5.2094,-5.3063,-5.3868,-5.412,-5.377,-5.4017,-5.3829,-5.3098,0.0,0.0,0.0,0.0,0.0,0.0,0.0,0.0,0.0,0.0,0.0,0.0,0.0,0.0,0.0,0.0,0.0,0.0,0.0,0.0,0.0,0.0,0.0,0.0,0.0,-4.8091,0.0,0.0,0.0,0.0,0.0,0.0,0.0,0.0,0.0,0.0,0.0,-4.9089,-4.9826,-5.0321,-5.123,-5.2971,-5.339,-5.3901,0.0,0.0,0.0,0.0,0.0,0.0,0.0,0.0,0.0,0.0,0.0,0.0,0.0,0.0,-5.2949,-5.234,-5.1651,-5.1232,-5.123,0.0,0.0,0.0,0.0,0.0,0.0,0.0,0.0,0.0,0.0,0.0,0.0,0.0,0.0,-5.2075,0.0,-5.0772,0.0,0.0,0.0,0.0,0.0,0.0,0.0,0.0,-5.0196,-5.0347,-5.097,-5.0242,-4.9893,0.0,-4.9315,-4.8898,0.0,0.0,0.0,0.0,0.0,0.0,0.0,0.0,-4.929,-4.9941,-5.0463,-5.1173,-5.2116,-5.2495,-5.2792,-5.3009,-5.2935,-5.275,-5.2361,-5.1361,-5.065,0.0,0.0,0.0,0.0,0.0,0.0,0.0,0.0,0.0,0.0,0.0,0.0,0.0,0.0,0.0,0.0,0.0,0.0,0.0,0.0,0.0,0.0,0.0,-4.7624,0.0,0.0,0.0,0.0,0.0,0.0,0.0,0.0,0.0,-4.7834,-4.7876,-4.8104,-4.8845,-4.908,-4.9833,-5.1538,0.0,0.0,0.0,0.0,0.0,0.0,0.0,-5.3546,-5.2779,-5.2436,-5.2032,-5.1401,-5.2098,-5.2703,-5.2625,0.0,0.0,-5.2786,-5.2118,-5.166,-5.188,-5.1731,-5.1438,-5.1168,-5.1152,-5.1213,0.0,0.0,0.0,0.0,0.0,0.0,0.0,0.0,-5.1987,-5.1622,0.0,-5.0302,0.0,0.0,0.0,0.0,0.0,-4.8622,0.0,0.0,-4.988,-5.0273,-5.0834,-5.0167,-4.9849,-4.9819,-4.9169,-4.8866,-4.888,-4.8271,0.0,0.0,0.0,0.0,0.0,0.0,-4.8607,-4.9234,-4.9539,-5.0313,-5.1515,-5.1386,-5.1634,-5.2276,-5.2109,-5.2109,-5.22,-5.0815,-5.0115,-5.0273,-4.8849,0.0,0.0,0.0,0.0,0.0,0.0,0.0,0.0,0.0,0.0,0.0,0.0,0.0,0.0,0.0,0.0,0.0,0.0,0.0,0.0,-4.6974,0.0,0.0,0.0,0.0,0.0,0.0,0.0,0.0,0.0,0.0,-4.6929,-4.6755,-4.6712,-4.7376,0.0,0.0,0.0,0.0,-5.0269,-5.1147,-5.1268,-5.1617,-5.2516,-5.2684,-5.2758,-5.3011,0.0,0.0,-5.1436,-5.2445,-5.3175,-5.2551,-5.2445,-5.2774,-5.3816,-5.3227,-5.2701,-5.2944,-5.245,-5.2023,-5.2001,-5.2023,-5.2002,-5.1664,0.0,0.0,0.0,0.0,-5.1987,-5.1987,-5.1987,-5.1987,-5.1607,-5.0955,-5.0302,0.0,0.0,0.0,0.0,0.0,0.0,-4.8343,-4.9479,-4.9494,-4.9494,-4.9463,-4.8951,-4.8573,-4.8345,-4.7422,-4.7206,-4.7688,-4.7052,-4.7163,-4.7964,0.0,0.0,0.0,0.0,-4.8183,-4.838,-4.891,-4.938,-4.9789,-5.0618,-5.1394,-5.2048,-5.2033,-5.2033,-5.2063,-5.0756,-4.9998,-5.0056,-4.8751,0.0,0.0,0.0,0.0,0.0,0.0,0.0,0.0,0.0,0.0,0.0,0.0,0.0,0.0,0.0,0.0,0.0,0.0,0.0,-4.5748,-4.5658,-4.5627,0.0,0.0,0.0,0.0,0.0,0.0,0.0,0.0,0.0,-4.5158,-4.5703,-4.6076,0.0,0.0,-4.7007,-4.7716,-4.803,-4.8641,-4.9819,-5.0349,0.0,-5.1513,-5.2063,-5.2457,-5.2548,-5.2484,-5.2433,-5.2321,-5.2615,-5.2905,-5.2896,-5.2732,-5.2838,-5.3387,-5.2977,-5.2571,-5.2567,-5.2506,-5.2335,-5.1894,-5.195,-5.2052,-5.079,-5.112,-5.1509,-5.1695,-5.1695,-5.171,-5.1664,-5.1634,-5.1069,-5.0617,-5.0152,-4.8968,-4.8208,-4.7807,-4.7422,0.0,0.0,0.0,-4.7228,-4.8036,-4.8286,-4.8372,-4.8173,-4.7893,-4.7691,-4.7474,-4.654,-4.6332,-4.6749,-4.6096,-4.6136,-4.6887,0.0,0.0,-4.7724,-4.7794,-4.7837,-4.7852,-4.8316,-4.8736,-4.9009,-4.9925,-5.0608,-5.091,-5.1167,-5.1348,-5.1425,-5.0321,-4.9777,-4.9835,-4.8477,-4.7724,0.0,0.0,0.0,0.0,0.0,0.0,0.0,0.0,0.0,0.0,0.0,-4.7046,-4.7264,0.0,0.0,0.0,-4.5673,-4.5233,-4.4559,-4.4712,0.0,0.0,0.0,0.0,0.0,0.0,0.0,-4.4247,-4.3979,-4.3804,-4.3804,-4.4294,-4.473,-4.4915,-4.5235,-4.5607,-4.6042,0.0,-4.733,-4.8445,-4.9184,-4.9863,-5.0612,-5.1201,-5.1542,-5.1542,-5.1696,-5.1788,-5.1803,-5.1788,-5.1941,-5.2367,-5.2367,-5.2412,-5.2995,-5.2803,-5.2582,-5.2757,-5.2899,-5.2829,-5.2453,-5.256,-5.265,-4.9475,-4.9558,-5.0484,-5.083,-5.0937,-5.0892,-5.0862,-5.077,-4.9507,-4.8931,-4.869,-4.6868,-4.6052,-4.6009,-4.5274,0.0,-4.5206,-4.5702,-4.5959,-4.6081,-4.67,-4.6928,-4.6838,-4.6776,-4.679,-4.6714,-4.6111,-4.5793,-4.5844,-4.5228,-4.4975,-4.5113,-4.6417,-4.7106,-4.7121,-4.7337,-4.7452,-4.7452,-4.7709,-4.817,-4.8806,-4.925,-4.9419,-4.9284,-4.9807,-5.0198,-5.0396,-4.9614,-4.9269,-4.9403,-4.8026,-4.7222,-4.7207,0.0,0.0,0.0,0.0,0.0,0.0,0.0,0.0,0.0,0.0,0.0,0.0,0.0,0.0,0.0,-4.4573,0.0,-4.3553,-4.3932,0.0,0.0,0.0,-4.4606,-4.3932,-4.3885,-4.3614,-4.2922,0.0,0.0,-4.29,-4.29,-4.308,-4.3471,-4.3979,-4.4322,-4.4308,-4.5246,-4.6158,-4.7057,-4.7913,-4.8789,-4.9626,-5.0095,-5.0335,-5.0383,-5.035,-5.0397,-5.043,-5.0342,-5.0656,-5.1312,-5.1405,-5.1515,-5.2244,-5.2182,-5.2529,-5.2761,-5.3137,-5.3346,-5.3299,-5.3474,-5.3432,-4.7726,-4.7726,-4.776,-4.8129,-4.8741,-4.8263,-4.8046,-4.8046,-4.7744,-4.7318,-4.6749,-4.6105,-4.5666,-4.5402,-4.4182,-4.4514,-4.5977,-4.5072,-4.4981,-4.5491,-4.568,-4.5354,-4.4668,-4.4302,-4.4028,-4.3774,-4.3298,-4.3341,-4.3855,-4.3703,-4.4059,-4.4791,-4.5158,-4.5432,-4.5627,-4.6002,-4.624,-4.6225,-4.627,-4.6637,-4.7298,-4.7955,-4.8462,-4.874,-4.8903,-4.9023,-4.9069,-4.8355,-4.8014,-4.8044,-4.7244,-4.6668,-4.6447,-4.6299,0.0,0.0,0.0,0.0,0.0,0.0,0.0,0.0,0.0,-4.5021,-4.531,0.0,-4.4494,0.0,-4.3662,-4.3115,-4.279,-4.286,0.0,0.0,-4.2736,-4.2736,-4.2555,-4.2728,-4.279,-4.2595,-4.279,-4.29,-4.29,-4.29,-4.2922,-4.3067,-4.3355,-4.3594,-4.3608,-4.4297,-4.5101,-4.5846,-4.6827,-4.7716,-4.8461,-4.9085,-4.9547,-4.9727,-4.9776,-4.9887,-5.0095,-4.9732,-4.9551,-4.988,-4.9588,-4.9444,-4.9642,-4.9582,-4.9657,-4.9869,-5.1573,-5.316,-5.3144,-5.3305,-5.3418,-4.6028,-4.6,-4.533,-4.5315,-4.5803,-4.6452,-4.6761,-4.6699,-4.6093,-4.5591,-4.5206,-4.4434,-4.4022,-4.3815,-4.3079,-4.3345,-4.4331,-4.3617,-4.3516,-4.3877,-4.3877,-4.3616,-4.3108,-4.2833,-4.2652,-4.2457,-4.2213,-4.2311,-4.2701,-4.2687,-4.2978,-4.3539,-4.3525,-4.362,-4.3796,-4.4897,-4.5492,-4.5492,-4.5492,-4.5724,-4.6208,-4.6601,-4.7017,-4.7369,-4.7647,-4.7854,-4.7946,-4.7608,-4.7417,-4.7402,-4.6785,-4.6314,-4.6016,-4.5702,-4.5566,0.0,0.0,0.0,0.0,0.0,0.0,0.0,0.0,0.0,0.0,0.0,-4.3314,-4.317,-4.2763,-4.2484,-4.2351,-4.2338,-4.2289,-4.2115,-4.2079,-4.2079,-4.2079,-4.2239,-4.2338,-4.2351,-4.2435,-4.2533,-4.2533,-4.2533,-4.2533,-4.2533,-4.2679,-4.2873,-4.3162,-4.395,-4.4614,-4.4746,-4.6017,-4.7151,-4.7694,-4.8064,-4.8388,-4.8539,-4.8574,-4.8624,-4.8774,-4.8324,-4.8041,-4.8466,-4.813,-4.7998,-4.8635,-4.8801,-4.8921,-4.9538,-5.0692,-5.1805,-5.1969,-5.2176,-5.2429,-4.437,-4.4279,-4.3292,-4.2828,-4.2968,-4.4891,-4.572,-4.5678,-4.4462,-4.3901,-4.3824,-4.2588,-4.2029,-4.198,-4.1993,-4.1993,-4.198,-4.198,-4.198,-4.198,-4.198,-4.194,-4.1874,-4.1954,-4.194,-4.1874,-4.194,-4.198,-4.1993,-4.1993,-4.2029,-4.2029,-4.2079,-4.2079,-4.2164,-4.3871,-4.4745,-4.4791,-4.4897,-4.5035,-4.5216,-4.5307,-4.5444,-4.5685,-4.6237,-4.6664,-4.6907,-4.6907,-4.6953,-4.6893,-4.6368,-4.5941,-4.5702,-4.5064,-4.4894,0.0,-4.4737,0.0,0.0,0.0,0.0,0.0,0.0,0.0,0.0,-4.2639,-4.2079,-4.2079,-4.2079,-4.2079,-4.2079,-4.2043,-4.2029,-4.198,-4.1993,-4.198,-4.1993,-4.2029,-4.2029,-4.2029,-4.2079,-4.2079,-4.2128,-4.2079,-4.2079,-4.2128,-4.2284,-4.2498,-4.2909,-4.3859,-4.4401,-4.3977,-4.5602,-4.6922,-4.7133,-4.7198,-4.7236,-4.725,-4.7288,-4.7198,-4.7339,-4.6841,-4.6564,-4.7151,-4.6916,-4.698,-4.8387,-4.8541,-4.881,-4.9266,-4.9508,-4.9846,-5.0527,-5.088,-5.1318,-4.261,-4.2547,-4.2156,-4.1968,-4.1981,-4.216,-4.2497,-4.2865,-4.2623,-4.2387,-4.214,-4.1885,-4.1647,-4.1461,-4.1448,-4.1461,-4.1461,-4.1461,-4.1461,-4.1448,-4.1461,-4.1198,-4.0779,-4.1225,-4.1198,-4.0779,-4.1212,-4.1461,-4.1461,-4.1461,-4.156,-4.1733,-4.1796,-4.1881,-4.2128,0.0,0.0,0.0,-4.3857,-4.3951,-4.3695,-4.4233,-4.468,-4.4968,-4.5128,0.0,-4.5479,-4.5479,-4.5479,-4.5479,-4.5364,0.0,0.0,0.0,0.0,0.0,0.0,0.0,0.0,0.0,0.0,0.0,-4.2666,-4.2484,-4.2693,-4.2338,-4.2079,-4.2079,-4.2079,-4.2043,-4.1796,-4.1782,-4.1696,-4.1461,-4.1448,-4.1461,-4.1448,-4.1647,-4.1796,-4.1796,-4.198,-4.2079,-4.2079,-4.2079,-4.2079,-4.2092,-4.2505,-4.2848,-4.2975,-4.3576,-4.4162,-4.477,-4.5836,-4.6546,-4.6626,-4.6626,-4.6678,-4.6626,-4.664,-4.673,-4.6832,-4.6418,-4.6123,-4.655,-4.6065,-4.5698,-4.6111,-4.6097,-4.6357,-4.6364,-4.6455,-4.7143,-4.9809,-5.0443,-5.0723,-4.1696,0.0,-4.156,-4.1511,0.0,-4.1361,-4.1448,-4.171,-4.1696,-4.166,-4.1498,-4.1498,-4.1411,-4.1311,-4.1311,-4.1311,-4.1311,-4.1147,-4.1097,-4.1084,-4.0724,-4.0482,-4.0443,-4.0171,-4.0042,-4.0042,-4.0203,-4.0421,-4.0718,-4.083,-4.106,-4.1498,-4.1511,-4.156,-4.1696,-4.1696,-4.1931,-4.2457,-4.2819,-4.2978,-4.286,-4.3328,-4.377,-4.4021,-4.4162,0.0,0.0,0.0,0.0,0.0,0.0,0.0,0.0,0.0,0.0,-4.3818,-4.396,-4.3865,-4.3485,-4.3341,-4.3101,-4.2741,-4.219,-4.1895,-4.1908,-4.1809,-4.171,-4.1696,-4.1696,-4.1647,-4.1511,-4.1511,-4.1474,-4.1311,-4.1311,-4.1311,-4.1311,-4.1411,-4.1511,-4.1498,-4.161,-4.1696,-4.171,-4.1696,-4.1696,-4.1723,-4.2211,-4.2699,-4.3054,-4.3698,-4.4528,-4.5194,-4.5418,-4.5711,-4.5966,-4.6047,-4.61,-4.6047,-4.6034,-4.6086,-4.6245,-4.5745,-4.5392,-4.5622,-4.521,-4.4934,-4.555,-4.5706,-4.5802,-4.6229,-4.6312,-4.6753,-4.8575,-4.894,-4.9282,-4.1198,-4.1211,-4.1147,-4.1174,-4.1147,-4.1161,-4.1174,-4.1161,0.0,0.0,0.0,-4.1161,-4.1174,-4.1174,-4.1161,-4.1161,-4.1161,-4.0946,-4.0833,-4.082,-4.018,-4.0004,-4.0299,-3.9376,-3.9195,-3.9528,-3.9275,-3.9437,-4.0029,-4.019,-4.0575,-4.1121,-4.1174,-4.1174,-4.1161,-4.1161,-4.1361,-4.1782,-4.1931,-4.2092,-4.2351,-4.2595,-4.2873,-4.3225,-4.3389,-4.3614,-4.3926,-4.3926,-4.394,-4.3926,-4.3926,-4.3818,-4.36,-4.3553,-4.3519,-4.3471,-4.3423,-4.3293,-4.3115,-4.2887,-4.2644,-4.24,-4.1858,-4.1448,-4.1261,-4.1211,-4.1211,-4.1161,-4.1161,-4.1161,-4.1161,-4.1161,-4.1161,-4.1174,-4.1174,-4.1161,-4.1161,-4.1161,-4.1161,-4.1161,-4.1161,-4.1174,-4.1174,-4.1161,-4.1226,-4.1419,-4.1915,-4.2488,-4.3101,-4.4059,-4.493,-4.5316,-4.5276,-4.5116,-4.5409,-4.5555,-4.5502,-4.5448,-4.5502,-4.5555,-4.5475,-4.5156,-4.4968,-4.5244,-4.4774,-4.4967,-4.5731,-4.5877,-4.6157,-4.6895,-4.6991,-4.6991,-4.7002,-4.7077,-4.7637,-4.0933,-4.0946,-4.0694,-4.0618,-4.0605,-4.0605,-4.0605,-4.0656,-4.0846,-4.0846,-4.0605,-4.0618,-4.0605,-4.0618,-4.0605,-4.0605,-4.0605,-4.0555,-4.0555,-4.0555,-4.0465,-4.0158,-3.9748,-3.9607,-3.9362,-3.8928,-3.8861,-3.918,-3.9706,-3.9758,-4.009,-4.0541,-4.0605,-4.0605,-4.0605,-4.0605,-4.0656,-4.0744,-4.1211,-4.1547,-4.1796,-4.1845,-4.2239,-4.2935,-4.2984,-4.3211,-4.3648,-4.3662,-4.3662,-4.3662,-4.3648,-4.3648,-4.36,-4.3437,-4.3259,-4.3018,-4.2803,-4.2533,-4.2275,-4.2226,-4.2079,-4.1796,-4.1348,-4.0997,-4.0946,-4.0946,-4.0846,-4.0656,-4.0656,-4.0605,-4.0605,-4.0605,-4.0656,-4.0656,-4.0605,-4.0605,-4.0656,-4.0656,-4.0656,-4.0656,-4.0605,-4.0605,-4.0656,-4.0682,-4.0977,-4.1531,-4.1996,-4.2573,-4.3555,-4.4524,-4.5088,-4.5261,-4.5395,-4.5422,-4.5221,-4.5234,-4.5113,-4.4884,-4.5072,-4.5193,-4.518,-4.5235,-4.5302,-4.5502,-4.5302,-4.5421,-4.5648,-4.5635,-4.5754,-4.5981,-4.5967,-4.5914,-4.5914,-4.5899,-4.6435,-4.0694,-4.0694,-4.0555,-4.0504,-4.0504,-4.0504,-4.0389,-4.0262,-4.012,-4.0235,-4.0491,-4.0504,-4.0504,-4.0504,-4.0504,-4.0504,-4.0504,-4.0351,-4.0287,-4.0262,-3.9842,-3.9462,-3.9208,-3.8637,-3.8193,-3.7939,-3.7718,-3.8133,-3.8936,-3.9148,-3.9633,-4.044,-4.0504,-4.0504,-4.0504,-4.0504,-4.0504,-4.0504,-4.0757,-4.0997,-4.1248,-4.1411,-4.1759,-4.2239,-4.2373,-4.2568,-4.2798,-4.2798,-4.2784,-4.2798,-4.2798,-4.2784,-4.2798,-4.2714,-4.2582,-4.2484,-4.2338,-4.2177,-4.1881,-4.1634,-4.1335,-4.1097,-4.0846,-4.0643,-4.0478,-4.0593,-4.0643,-4.0504,-4.0504,-4.0504,-4.0504,-4.0504,-4.0504,-4.0504,-4.0504,-4.0504,-4.0504,-4.0504,-4.0504,-4.0504,-4.0504,-4.0504,-4.0504,-4.0773,-4.1029,-4.1544,-4.2107,-4.2951,-4.3771,-4.4229,-4.4489,-4.4489,-4.4598,-4.4639,-4.4531,-4.4489,-4.4422,-4.4271,-4.438,-4.4489,-4.4489,-4.4707,-4.4964,-4.51,-4.5221,-4.5448,-4.5542,-4.5595,-4.5542,-4.5395,-4.5381,-4.5328,-4.5167,-4.5113,-4.5675,-4.0402,-4.0402,-4.0351,-4.0351,-4.03,-4.03,-4.0185,-3.9994,-3.955,-3.9766,-4.0262,-4.0173,-4.0185,-4.0287,-4.03,-4.0313,-4.03,-4.0083,-4.0032,-3.993,-3.9347,-3.9057,-3.8931,-3.7902,-3.7374,-3.7348,-3.6988,-3.7336,-3.8222,-3.867,-3.9293,-4.0198,-4.03,-4.03,-4.03,-4.03,-4.03,-4.0313,-4.03,-4.0504,-4.0795,-4.1097,-4.1361,-4.1597,-4.1881,-4.2043,-4.2079,-4.2079,-4.2079,-4.2079,-4.2079,-4.2079,-4.2079,-4.2029,-4.2029,-4.198,-4.1931,-4.1849,-4.1718,-4.1279,-4.0939,-4.0875,-4.0773,-4.067,-4.0503,-4.0567,-4.0555,-4.0364,-4.03,-4.03,-4.03,-4.03,-4.0313,-4.03,-4.0313,-4.0364,-4.0466,-4.0491,-4.0555,-4.0632,-4.0683,-4.0708,-4.0746,-4.1052,-4.1331,-4.1664,-4.2432,-4.3265,-4.3632,-4.3721,-4.3721,-4.3721,-4.3789,-4.3887,-4.3832,-4.3832,-4.3764,-4.3734,-4.3776,-4.3819,-4.3887,-4.4039,-4.4258,-4.4518,-4.4694,-4.491,-4.5126,-4.518,-4.5072,-4.4856,-4.4856,-4.4802,-4.4694,-4.4626,-4.4925,-4.0134,-4.0083,-3.9903,-3.9749,-3.9788,-3.9788,-3.98,-3.9724,-3.9673,-3.9686,-3.975,-3.9259,-3.9347,-3.9762,-3.98,-3.98,-3.98,-3.9736,-3.9749,-3.9749,-3.9647,-3.9622,-3.9471,-3.8442,-3.7927,-3.7839,-3.7385,-3.7448,-3.8114,-3.8655,-3.9196,-3.9725,-3.9749,-3.9788,-3.98,-3.98,-3.98,-3.98,-3.98,-3.9993,-4.0504,-4.0795,-4.1047,-4.1311,-4.1597,-4.1832,-4.2016,-4.2079,-4.2079,-4.2079,-4.2079,-4.2079,-4.2092,-4.1845,-4.1746,-4.1723,-4.1537,-4.1483,-4.1633,-4.1415,-4.1465,-4.1859,-4.1648,-4.1529,-4.1476,-4.1301,-4.0792,-4.0115,-3.9838,-3.9888,-3.9749,-3.9851,-3.9965,-4.0003,-3.9913,-3.9989,-4.0442,-4.049,-4.0679,-4.1194,-4.116,-4.1232,-4.1172,-4.1285,-4.155,-4.2086,-4.2755,-4.3267,-4.3172,-4.3197,-4.3209,-4.3209,-4.35,-4.3708,-4.3517,-4.3462,-4.3351,-4.3197,-4.3295,-4.3406,-4.353,-4.3708,-4.3942,-4.3984,-4.4064,-4.4161,-4.4174,-4.4064,-4.4107,-4.4148,-4.4107,-4.4052,-4.4258,-4.4258,-4.4505,-3.9839,-3.9839,-3.9736,-3.9697,-3.9697,-3.9697,-3.9697,-3.9672,-3.9346,-3.9383,-3.9609,-3.9158,-3.9182,-3.9685,-3.9697,-3.9697,-3.9697,-3.9697,-3.9697,-3.9697,-3.9697,-3.9534,-3.9145,-3.8404,-3.8002,-3.7952,-3.745,-3.7651,-3.8479,-3.9082,-3.9471,-3.9672,-3.9697,-3.9697,-3.9697,-3.9697,-3.9697,-3.9697,-3.9697,-3.98,-4.0044,-4.0287,-4.0542,-4.0808,-4.1097,-4.1298,-4.1385,-4.1547,-4.1597,-4.1597,-4.1647,-4.1705,-4.1869,-4.1744,-4.1761,-4.1905,-4.1867,-4.1749,-4.1693,-4.1613,-4.1569,-4.1638,-4.1544,-4.149,-4.149,-4.1329,-4.1075,-4.0724,-4.0623,-4.0611,-4.0651,-4.0664,-4.0664,-4.0676,-4.0664,-4.0752,-4.0899,-4.0949,-4.1062,-4.125,-4.1275,-4.1288,-4.1326,-4.1618,-4.2032,-4.2577,-4.3028,-4.3073,-4.3042,-4.2986,-4.2986,-4.3042,-4.3209,-4.3321,-4.3197,-4.3129,-4.3073,-4.303,-4.3085,-4.3197,-4.3197,-4.3406,-4.3585,-4.3585,-4.3721,-4.3844,-4.3955,-4.3899,-4.3844,-4.3721,-4.3432,-4.3432,-4.353,-4.353,-4.364,-3.9697,-3.9697,-3.9697,-3.9697,-3.9697,-3.9697,-3.9697,-3.9647,-3.927,-3.932,-3.9634,-3.927,-3.9308,-3.9659,-3.9697,-3.9697,-3.9697,-3.9697,-3.9697,-3.9697,-3.9697,-3.9484,-3.9057,-3.8517,-3.8241,-3.8178,-3.7864,-3.8165,-3.9044,-3.9471,-3.9697,-3.9697,-3.9697,-3.9697,-3.9697,-3.9697,-3.9697,-3.9697,-3.9697,-3.9697,-3.9749,-3.989,-4.0134,-4.0402,-4.063,-4.0795,-4.0795,-4.0997,-4.111,-4.106,-4.106,-4.1269,-4.1544,-4.1583,-4.1737,-4.2053,-4.2023,-4.1981,-4.196,-4.1866,-4.1834,-4.1769,-4.1794,-4.1781,-4.1781,-4.1781,-4.1781,-4.1739,-4.1672,-4.1555,-4.13,-4.1275,-4.1275,-4.1275,-4.1275,-4.1326,-4.153,-4.1555,-4.163,-4.1756,-4.1894,-4.1727,-4.1735,-4.1981,-4.2424,-4.2749,-4.2905,-4.2986,-4.2986,-4.2986,-4.2986,-4.2986,-4.2974,-4.3042,-4.2986,-4.303,-4.2986,-4.2986,-4.3042,-4.3042,-4.2986,-4.3197,-4.3295,-4.3376,-4.3555,-4.3611,-4.35,-4.3555,-4.3611,-4.3364,-4.3141,-4.3085,-4.3252,-4.3141,-4.3295,-3.9697,-3.9697,-3.9697,-3.9697,-3.9697,-3.9697,-3.9697,-3.9697,-3.9647,-3.9672,-3.9697,-3.9647,-3.9659,-3.9697,-3.9697,-3.9697,-3.9697,-3.9697,-3.9697,-3.9697,-3.9697,-3.9672,-3.9622,-3.9158,-3.8881,-3.8818,-3.8756,-3.8994,-3.9597,-3.9685,-3.9697,-3.9697,-3.9697,-3.9697,-3.9697,-3.9697,-3.9697,-3.9697,-3.9697,-3.9697,-3.9697,-3.9697,-3.9839,-4.0121,-4.0402,-4.0504,-4.0504,-4.0555,-4.0555,-4.0567,-4.0555,-4.0811,-4.1273,-4.1323,-4.163,-4.2051,-4.1889,-4.2024,-4.2426,-4.2339,-4.2363,-4.2748,-4.2773,-4.2861,-4.2692,-4.2692,-4.2637,-4.2873,-4.2426,-4.2077,-4.1468,-4.138,-4.1372,-4.1347,-4.1363,-4.1601,-4.2082,-4.2065,-4.2371,-4.2698,-4.2705,-4.2543,-4.242,-4.2463,-4.2507,-4.2625,-4.2806,-4.2986,-4.2986,-4.2986,-4.2986,-4.2986,-4.2986,-4.2986,-4.2986,-4.2986,-4.2986,-4.2986,-4.2986,-4.2986,-4.2986,-4.3042,-4.303,-4.303,-4.3154,-4.3154,-4.3042,-4.3042,-4.3098,-4.303,-4.3085,-4.303,-4.3141,-4.3295,-4.3517,-3.9697,-3.9697,-3.9697,-3.9697,-3.9697,-3.9697,-3.9697,-3.9697,-3.9697,-3.9697,-3.9697,-3.9697,-3.9697,-3.9697,-3.9697,-3.9697,-3.9697,-3.9697,-3.9697,-3.9697,-3.9697,-3.9697,-3.9634,-3.9132,-3.9133,-3.932,-3.9032,-3.9157,-3.9647,-3.9697,-3.9697,-3.9697,-3.9697,-3.9697,-3.9697,-3.9697,-3.9697,-3.9697,-3.9697,-3.9697,-3.9697,-3.9697,-3.9749,-3.9826,-4.0096,-4.0236,-4.0224,-4.0389,-4.0504,-4.0504,-4.0504,-4.0658,-4.1064,-4.1552,-4.2131,-4.2583,-4.2604,-4.2637,-4.2813,-4.2796,-4.276,-4.2949,-4.2806,-4.2694,-4.265,-4.2538,-4.2425,-4.2369,-4.2324,-4.2077,-4.1935,-4.1799,-4.1799,-4.1787,-4.1787,-4.188,-4.2078,-4.214,-4.2227,-4.2388,-4.2437,-4.2381,-4.2312,-4.2425,-4.2525,-4.2525,-4.2806,-4.2974,-4.2986,-4.2986,-4.2986,-4.2986,-4.2986,-4.2986,-4.2986,-4.2986,-4.2986,-4.2986,-4.2986,-4.2986,-4.2986,-4.2986,-4.3042,-4.3042,-4.2986,-4.2986,-4.3042,-4.3042,-4.2986,-4.2986,-4.2986,-4.3085,-4.3141,-4.3351,-4.364,-3.9697,-3.9697,-3.9697,-3.9697,-3.9697,-3.9697,-3.9697,-3.9697,-3.9697,-3.9697,-3.9697,-3.9697,-3.9697,-3.9697,-3.9697,-3.9697,-3.9697,-3.9697,-3.9697,-3.9697,-3.9697,-3.9697,-3.9634,-3.932,-3.9333,-3.9584,-3.9333,-3.9333,-3.9647,-3.9697,-3.9697,-3.9697,-3.9697,-3.9697,-3.9697,-3.9697,-3.9697,-3.9697,-3.9697,-3.9697,-3.9697,-3.9697,-3.9697,-3.9736,-3.9878,-3.9981,-3.9981,-4.0147,-4.0249,-4.0249,-4.0249,-4.0477,-4.1029,-4.1927,-4.264,-4.2924,-4.2974,-4.2918,-4.2862,-4.2862,-4.2806,-4.2706,-4.2538,-4.2369,-4.2356,-4.2199,-4.2098,-4.2098,-4.1972,-4.1915,-4.1928,-4.1859,-4.1883,-4.2054,-4.2098,-4.2098,-4.2098,-4.2098,-4.2086,-4.2098,-4.2041,-4.1984,-4.1984,-4.2199,-4.2312,-4.2356,-4.2694,-4.2986,-4.2986,-4.2986,-4.2986,-4.2986,-4.2986,-4.2986,-4.2986,-4.2986,-4.2986,-4.2986,-4.2986,-4.2986,-4.2986,-4.2986,-4.2986,-4.2986,-4.2986,-4.2986,-4.2986,-4.2986,-4.2986,-4.2986,-4.3141,-4.324,-4.3295,-4.3406,-4.3696,-3.9697,-3.9697,-3.9697,-3.9697,-3.9697,-3.9697,-3.9697,-3.9697,-3.9697,-3.9697,-3.9697,-3.9697,-3.9697,-3.9697,-3.9697,-3.9697,-3.9697,-3.9697,-3.9697,-3.9697,-3.9697,-3.9697,-3.9685,-3.9634,-3.9622,-3.9697,-3.9685,-3.9672,-3.9697,-3.9697,-3.9697,-3.9697,-3.9697,-3.9697,-3.9697,-3.9697,-3.9697,-3.9697,-3.9697,-3.9697,-3.9697,-3.9697,-3.9697,-3.9697,-3.9749,-3.9749,-3.9749,-3.9749,-3.9749,-3.9749,-3.9786,-4.0237,-4.1291,-4.2228,-4.2868,-4.2905,-4.293,-4.2806,-4.2525,-4.2525,-4.2425,-4.2211,-4.211,-4.2098,-4.2086,-4.2041,-4.1984,-4.1928,-4.1802,-4.1606,-4.1561,-4.1402,-4.1471,-4.1984,-4.1984,-4.1984,-4.1984,-4.2041,-4.2041,-4.1984,-4.1789,-4.1606,-4.1663,-4.1903,-4.2098,-4.2211,-4.2594,-4.2986,-4.2986,-4.2986,-4.2986,-4.2986,-4.2986,-4.2986,-4.2986,-4.2986,-4.2986,-4.2986,-4.2986,-4.2986,-4.2986,-4.2986,-4.2986,-4.2986,-4.2986,-4.2986,-4.2986,-4.2986,-4.2986,-4.303,-4.3184,-4.3283,-4.3295,-4.3419,-4.3819,-3.9697,-3.9697,-3.9697,-3.9697,-3.9697,-3.9697,-3.9697,-3.9697,-3.9697,-3.9697,-3.9697,-3.9697,-3.9697,-3.9697,-3.9697,-3.9697,-3.9697,-3.9697,-3.9697,-3.9697,-3.9697,-3.9697,-3.9697,-3.9697,-3.9697,-3.9697,-3.9697,-3.9697,-3.9697,-3.9697,-3.9697,-3.9697,-3.9697,-3.9697,-3.9697,-3.9697,-3.9697,-3.9697,-3.9697,-3.9697,-3.9697,-3.9697,-3.9697,-3.9697,-3.9697,-3.9697,-3.9697,-3.9697,-3.9697,-3.9697,-4.0061,-4.0646,-4.1459,-4.1737,-4.1997,-4.2331,-4.2381,-4.2324,-4.2268,-4.2199,-4.2211,-4.2041,-4.1859,-4.1789,-4.172,-4.1586,-4.1528,-4.1471,-4.1414,-4.1344,-4.1287,-4.1242,-4.1299,-4.1471,-4.1471,-4.1528,-4.1528,-4.1541,-4.1471,-4.1459,-4.1402,-4.1344,-4.1402,-4.1631,-4.1915,-4.211,-4.2425,-4.275,-4.2918,-4.2986,-4.2986,-4.2986,-4.2986,-4.2986,-4.2986,-4.2986,-4.2986,-4.2986,-4.2986,-4.2986,-4.2986,-4.2986,-4.2986,-4.2986,-4.2986,-4.2986,-4.2986,-4.2986,-4.2986,-4.303,-4.3073,-4.3129,-4.3184,-4.3474,-4.3887,-3.9697,-3.9697,-3.9697,-3.9697,-3.9697,-3.9697,-3.9697,-3.9697,-3.9697,-3.9697,-3.9697,-3.9697,-3.9697,-3.9697,-3.9697,-3.9697,-3.9697,-3.9697,-3.9697,-3.9697,-3.9697,-3.9697,-3.9697,-3.9697,-3.9697,-3.9697,-3.9697,-3.9697,-3.9697,-3.9697,-3.9697,-3.9697,-3.9697,-3.9697,-3.9697,-3.9697,-3.9697,-3.9697,-3.9697,-3.9697,-3.9697,-3.9697,-3.9697,-3.9697,-3.9697,-3.9633,-3.9581,-3.953,-3.953,-3.968,-4.0137,-4.0823,-4.1465,-4.1595,-4.1754,-4.2012,-4.2098,-4.2041,-4.1915,-4.1915,-4.1859,-4.1745,-4.1573,-4.1447,-4.1435,-4.1287,-4.1184,-4.1184,-4.1184,-4.1184,-4.1184,-4.1184,-4.1184,-4.1184,-4.1242,-4.1184,-4.1184,-4.1184,-4.1184,-4.1242,-4.1242,-4.1184,-4.1242,-4.1573,-4.1846,-4.2098,-4.2425,-4.275,-4.2918,-4.2986,-4.2986,-4.2986,-4.2986,-4.2986,-4.2986,-4.2986,-4.2986,-4.2986,-4.2986,-4.2986,-4.2986,-4.2986,-4.2986,-4.2986,-4.2986,-4.2986,-4.2986,-4.2986,-4.2986,-4.303,-4.3017,-4.3184,-4.3351,-4.3598,-4.3955,-3.9697,-3.9697,-3.9697,-3.9697,-3.9697,-3.9697,-3.9697,-3.9697,-3.9697,-3.9697,-3.9697,-3.9697,-3.9697,-3.9697,-3.9697,-3.9697,-3.9697,-3.9697,-3.9697,-3.9697,-3.9697,-3.9697,-3.9697,-3.9697,-3.9697,-3.9697,-3.9697,-3.9697,-3.9697,-3.9697,-3.9697,-3.9697,-3.9697,-3.9697,-3.9697,-3.9697,-3.9697,-3.9697,-3.9697,-3.9697,-3.9697,-3.9697,-3.9697,-3.9697,-3.9645,-3.953,-3.9374,-3.9258,-3.9243,-3.9444,-4.0009,-4.0574,-4.1182,-4.1722,-4.185,-4.196,-4.2041,-4.1859,-4.1675,-4.1618,-4.1492,-4.1299,-4.1299,-4.1184,-4.1242,-4.1242,-4.1184,-4.1184,-4.1184,-4.1184,-4.1184,-4.1184,-4.1184,-4.1184,-4.1184,-4.1184,-4.1184,-4.1184,-4.1184,-4.1184,-4.1184,-4.1184,-4.1242,-4.1631,-4.1928,-4.2155,-4.2538,-4.2806,-4.2974,-4.2986,-4.2986,-4.2986,-4.2986,-4.2986,-4.2986,-4.2986,-4.2986,-4.2986,-4.2986,-4.2986,-4.2986,-4.2986,-4.2986,-4.2986,-4.2986,-4.2986,-4.2986,-4.2986,-4.2986,-4.2974,-4.3141,-4.3351,-4.3462,-4.3598,-4.3832,-3.9697,-3.9697,-3.9697,-3.9697,-3.9697,-3.9697,-3.9697,-3.9697,-3.9697,-3.9697,-3.9697,-3.9697,-3.9697,-3.9697,-3.9697,-3.9697,-3.9697,-3.9697,-3.9697,-3.9697,-3.9697,-3.9697,-3.9697,-3.9697,-3.9697,-3.9697,-3.9697,-3.9697,-3.9697,-3.9697,-3.9697,-3.9697,-3.9697,-3.9697,-3.9697,-3.9697,-3.9697,-3.9697,-3.9697,-3.9697,-3.9697,-3.9697,-3.9697,-3.9685,-3.9542,-3.9374,-3.927,-3.8893,-3.8957,-3.9549,-3.9516,-3.9977,-4.0806,-4.0918,-4.1072,-4.1362,-4.1459,-4.1402,-4.1344,-4.1344,-4.1287,-4.1242,-4.1184,-4.1184,-4.1184,-4.1184,-4.1184,-4.1184,-4.1184,-4.1184,-4.1184,-4.1184,-4.1184,-4.1184,-4.1184,-4.1184,-4.1184,-4.1184,-4.1184,-4.1184,-4.1184,-4.1184,-4.1287,-4.1504,-4.1846,-4.2155,-4.2425,-4.275,-4.293,-4.2986,-4.2986,-4.2986,-4.2986,-4.2986,-4.2986,-4.2986,-4.2986,-4.2986,-4.2986,-4.2986,-4.2986,-4.2986,-4.2986,-4.2986,-4.2986,-4.2986,-4.2986,-4.2986,-4.2986,-4.2986,-4.303,-4.3197,-4.3184,-4.3321,-4.3653,-3.9697,-3.9697,-3.9697,-3.9697,-3.9697,-3.9697,-3.9697,-3.9697,-3.9697,-3.9697,-3.9697,-3.9697,-3.9697,-3.9697,-3.9697,-3.9697,-3.9697,-3.9697,-3.9697,-3.9697,-3.9697,-3.9697,-3.9697,-3.9697,-3.9697,-3.9697,-3.9697,-3.9697,-3.9697,-3.9697,-3.9697,-3.9697,-3.9697,-3.9697,-3.9697,-3.9697,-3.9697,-3.9697,-3.9697,-3.9697,-3.9697,-3.9697,-3.9645,-3.953,-3.9374,-3.9206,-3.8893,-3.8461,-3.8611,-3.9197,-3.926,-3.9395,-4.0181,-4.0395,-4.0535,-4.0848,-4.104,-4.1184,-4.1184,-4.1184,-4.1184,-4.1184,-4.1184,-4.1184,-4.1184,-4.1184,-4.1184,-4.1184,-4.1184,-4.1184,-4.1184,-4.1184,-4.1184,-4.1184,-4.1184,-4.1184,-4.1184,-4.1184,-4.1184,-4.1184,-4.1184,-4.123,-4.1344,-4.1618,-4.1915,-4.2243,-4.2581,-4.2806,-4.2986,-4.2986,-4.2986,-4.2986,-4.2986,-4.2986,-4.2986,-4.2986,-4.2986,-4.2986,-4.2986,-4.2986,-4.2986,-4.2986,-4.2986,-4.2986,-4.2986,-4.2986,-4.2986,-4.2986,-4.2986,-4.2986,-4.2986,-4.3042,-4.3085,-4.324,-4.353,-3.9697,-3.9697,-3.9697,-3.9697,-3.9697,-3.9697,-3.9697,-3.9697,-3.9697,-3.9697,-3.9697,-3.9697,-3.9697,-3.9697,-3.9697,-3.9697,-3.9697,-3.9697,-3.9697,-3.9697,-3.9697,-3.9697,-3.9697,-3.9697,-3.9697,-3.9697,-3.9697,-3.9697,-3.9697,-3.9697,-3.9697,-3.9697,-3.9697,-3.9697,-3.9697,-3.9697,-3.9697,-3.9697,-3.9697,-3.9697,-3.9697,-3.9697,-3.9594,-3.9374,-3.9154,-3.8881,-3.8461,-3.8169,-3.835,-3.9036,-3.8827,-3.9074,-3.9549,-4.0102,-4.0415,-4.0607,-4.0968,-4.1184,-4.1184,-4.1184,-4.1184,-4.1184,-4.1184,-4.1184,-4.1184,-4.1184,-4.1184,-4.1184,-4.1184,-4.1184,-4.1184,-4.1184,-4.1184,-4.1184,-4.1184,-4.1184,-4.1184,-4.1184,-4.1184,-4.1184,-4.1184,-4.139,-4.1618,-4.1903,-4.2211,-4.2356,-4.2625,-4.2862,-4.2986,-4.2986,-4.2986,-4.2986,-4.2986,-4.2986,-4.2986,-4.2986,-4.2986,-4.2986,-4.2986,-4.2986,-4.2986,-4.2986,-4.2986,-4.2986,-4.2986,-4.2986,-4.2986,-4.2986,-4.2986,-4.2986,-4.2986,-4.3042,-4.3085,-4.324,-4.3517,-3.9697,-3.9697,-3.9697,-3.9697,-3.9697,-3.9697,-3.9697,-3.9697,-3.9697,-3.9697,-3.9697,-3.9697,-3.9697,-3.9697,-3.9697,-3.9697,-3.9697,-3.9697,-3.9697,-3.9697,-3.9697,-3.9697,-3.9697,-3.9697,-3.9697,-3.9697,-3.9697,-3.9697,-3.9697,-3.9697,-3.9697,-3.9697,-3.9697,-3.9697,-3.9697,-3.9697,-3.9697,-3.9697,-3.9697,-3.9697,-3.9697,-3.9697,-3.9581,-3.9258,-3.8841,-3.8473,-3.8198,-3.8027,-3.8087,-3.8183,-3.8328,-3.8755,-3.9417,-3.9753,-4.0186,-4.0775,-4.1052,-4.1184,-4.1184,-4.1184,-4.1184,-4.1184,-4.1184,-4.1184,-4.1184,-4.1184,-4.1184,-4.1184,-4.1184,-4.1184,-4.1184,-4.1184,-4.1184,-4.1184,-4.1184,-4.1184,-4.1184,-4.1184,-4.1242,-4.123,-4.139,-4.1537,-4.1663,-4.2118,-4.2356,-4.2513,-4.2694,-4.2986,-4.2986,-4.2986,-4.2986,-4.2986,-4.2986,-4.2986,-4.2986,-4.2986,-4.2986,-4.2986,-4.2986,-4.2986,-4.2986,-4.2986,-4.2986,-4.2986,-4.2986,-4.2986,-4.2986,-4.2986,-4.2986,-4.2986,-4.3042,-4.3141,-4.324,-4.3351,-4.3674,-3.9697,-3.9697,-3.9697,-3.9697,-3.9697,-3.9697,-3.9697,-3.9697,-3.9697,-3.9697,-3.9697,-3.9697,-3.9697,-3.9697,-3.9697,-3.9697,-3.9697,-3.9697,-3.9697,-3.9697,-3.9697,-3.9697,-3.9697,-3.9697,-3.9697,-3.9697,-3.9697,-3.9697,-3.9697,-3.9697,-3.9697,-3.9697,-3.9697,-3.9697,-3.9697,-3.9697,-3.9697,-3.9697,-3.9697,-3.9697,-3.9697,-3.9697,-3.9478,-3.905,-3.8538,-3.8241,-3.8359,-3.8383,-3.8527,-3.8671,-3.8743,-3.8839,-3.9272,-3.9717,-4.027,-4.0679,-4.1088,-4.1172,-4.1184,-4.1184,-4.1184,-4.1184,-4.1184,-4.1184,-4.1184,-4.1184,-4.1184,-4.1184,-4.1184,-4.1184,-4.1184,-4.1184,-4.1184,-4.1184,-4.1184,-4.1242,-4.1332,-4.139,-4.1402,-4.1459,-4.1688,-4.1903,-4.213,-4.2344,-4.2569,-4.2737,-4.2806,-4.2986,-4.2986,-4.2986,-4.2986,-4.2986,-4.2986,-4.2986,-4.2986,-4.2986,-4.2986,-4.2986,-4.2986,-4.2986,-4.2986,-4.2986,-4.2986,-4.2986,-4.2986,-4.2986,-4.2986,-4.2986,-4.2986,-4.3042,-4.3085,-4.324,-4.3432,-4.3691,-4.4104,-3.9697,-3.9697,-3.9697,-3.9697,-3.9697,-3.9697,-3.9697,-3.9697,-3.9697,-3.9697,-3.9697,-3.9697,-3.9697,-3.9697,-3.9697,-3.9697,-3.9697,-3.9697,-3.9697,-3.9697,-3.9697,-3.9697,-3.9697,-3.9697,-3.9697,-3.9697,-3.9697,-3.9697,-3.9697,-3.9697,-3.9697,-3.9697,-3.9697,-3.9697,-3.9697,-3.9697,-3.9697,-3.9697,-3.9697,-3.9697,-3.9697,-3.971,-3.9411,-3.9037,-3.8691,-3.8605,-3.8864,-3.896,-3.9116,-3.9561,-3.9681,-3.9477,-3.9429,-3.9789,-4.0475,-4.0535,-4.0992,-4.116,-4.1184,-4.1184,-4.1184,-4.1184,-4.1184,-4.1184,-4.1184,-4.1184,-4.1184,-4.1184,-4.1184,-4.1184,-4.1184,-4.1184,-4.1184,-4.1184,-4.1184,-4.1344,-4.1549,-4.1606,-4.1675,-4.1732,-4.1972,-4.2199,-4.2356,-4.2581,-4.275,-4.2918,-4.2986,-4.2986,-4.2986,-4.2986,-4.2986,-4.2986,-4.2986,-4.2986,-4.2986,-4.2986,-4.2986,-4.2986,-4.2986,-4.2986,-4.2986,-4.2986,-4.2986,-4.2986,-4.2986,-4.2986,-4.2986,-4.2986,-4.3042,-4.303,-4.3123,-4.326,-4.3563,-4.3989,-4.4489,-3.9697,-3.9697,-3.9697,-3.9697,-3.9697,-3.9697,-3.9697,-3.9697,-3.9697,-3.9697,-3.9697,-3.9697,-3.9697,-3.9697,-3.9697,-3.9697,-3.9697,-3.9697,-3.9697,-3.9697,-3.9697,-3.9697,-3.9697,-3.9697,-3.9697,-3.9697,-3.9697,-3.9697,-3.9697,-3.9697,-3.9697,-3.9697,-3.9697,-3.9697,-3.9697,-3.9697,-3.9697,-3.9697,-3.9697,-3.9697,-3.9697,-3.9669,-3.9633,-3.9427,-3.9231,-3.9315,-3.9405,-3.9477,-3.9525,-3.9633,-4.0042,-4.0162,-4.015,-4.0319,-4.0607,-4.092,-4.1088,-4.1184,-4.1184,-4.1184,-4.1184,-4.1184,-4.1184,-4.1184,-4.1184,-4.1184,-4.1184,-4.1184,-4.1184,-4.1184,-4.1184,-4.1184,-4.1184,-4.1184,-4.1242,-4.1332,-4.1606,-4.1846,-4.2029,-4.2086,-4.2312,-4.2481,-4.2581,-4.275,-4.2862,-4.2974,-4.2986,-4.2986,-4.2986,-4.2986,-4.2986,-4.2986,-4.2986,-4.2986,-4.2986,-4.2986,-4.2986,-4.2986,-4.2986,-4.2986,-4.2986,-4.2986,-4.2986,-4.2986,-4.2986,-4.2986,-4.2986,-4.2986,-4.3074,-4.3193,-4.3236,-4.3361,-4.3876,-4.4436,-4.4817,-3.9697,-3.9697,-3.9697,-3.9697,-3.9697,-3.9697,-3.9697,-3.9697,-3.9697,-3.9697,-3.9697,-3.9697,-3.9697,-3.9697,-3.9697,-3.9697,-3.9697,-3.9697,-3.9697,-3.9697,-3.9697,-3.9697,-3.9697,-3.9697,-3.9697,-3.9697,-3.9697,-3.9697,-3.9697,-3.9697,-3.9697,-3.9697,-3.9697,-3.9697,-3.9697,-3.9697,-3.9697,-3.9697,-3.9697,-3.9697,-3.9708,-3.9675,-3.9713,-3.9793,-3.974,-3.9717,-3.9994,-4.0018,-4.0162,-4.0415,-4.0679,-4.0775,-4.08,-4.0812,-4.0896,-4.1124,-4.1184,-4.1184,-4.1184,-4.1184,-4.1184,-4.1184,-4.1184,-4.1184,-4.1184,-4.1184,-4.1184,-4.1184,-4.1184,-4.1184,-4.1184,-4.1184,-4.1184,-4.1242,-4.1287,-4.1561,-4.1789,-4.213,-4.2312,-4.2425,-4.265,-4.2762,-4.2806,-4.2918,-4.2986,-4.2986,-4.2986,-4.2986,-4.2986,-4.2986,-4.2986,-4.2986,-4.2986,-4.2986,-4.2986,-4.2986,-4.2986,-4.2986,-4.2986,-4.2986,-4.2986,-4.2986,-4.2986,-4.2986,-4.2986,-4.3074,-4.2986,-4.3055,-4.3137,-4.3382,-4.362,-4.3922,-4.4472,-4.4903,-4.526,-3.9697,-3.9697,-3.9697,-3.9697,-3.9697,-3.9697,-3.9697,-3.9697,-3.9697,-3.9697,-3.9697,-3.9697,-3.9697,-3.9697,-3.9697,-3.9697,-3.9697,-3.9697,-3.9697,-3.9697,-3.9697,-3.9697,-3.9697,-3.9697,-3.9697,-3.9697,-3.9697,-3.9697,-3.9697,-3.9697,-3.9697,-3.9697,-3.9697,-3.9697,-3.9697,-3.9697,-3.9697,-3.9697,-3.9697,-3.971,-3.9753,-3.9918,-4.0048,-4.0269,-4.0072,-4.0274,-4.0612,-4.066,-4.0784,-4.1025,-4.1124,-4.116,-4.1172,-4.1184,-4.1184,-4.1184,-4.1184,-4.1184,-4.1184,-4.1184,-4.1184,-4.1184,-4.1184,-4.1184,-4.1184,-4.1184,-4.1184,-4.1184,-4.1184,-4.1184,-4.1184,-4.1184,-4.1184,-4.1242,-4.1459,-4.1732,-4.2029,-4.2312,-4.2581,-4.275,-4.2986,-4.2986,-4.2918,-4.2918,-4.2986,-4.2986,-4.2986,-4.2986,-4.2986,-4.2986,-4.2986,-4.2986,-4.2986,-4.2986,-4.2986,-4.2986,-4.2986,-4.2986,-4.2986,-4.2986,-4.2986,-4.2986,-4.2986,-4.2999,-4.325,-4.3325,-4.3162,-4.3168,-4.3363,-4.3658,-4.4112,-4.451,-4.4895,-4.5219,-4.5525,-3.9697,-3.9697,-3.9697,-3.9697,-3.9697,-3.9697,-3.9697,-3.9697,-3.9697,-3.9697,-3.9697,-3.9697,-3.9697,-3.9697,-3.9697,-3.9697,-3.9697,-3.9697,-3.9697,-3.9697,-3.9697,-3.9697,-3.9697,-3.9697,-3.9697,-3.9697,-3.9697,-3.9697,-3.9697,-3.9697,-3.9697,-3.9697,-3.9697,-3.9697,-3.9697,-3.9697,-3.9697,-3.9697,-3.971,-3.9857,-4.0209,-4.0743,-4.0979,-4.1107,-4.1208,-4.127,-4.1286,-4.1298,-4.1305,-4.1136,-4.1184,-4.1184,-4.1184,-4.1184,-4.1184,-4.1184,-4.1184,-4.1184,-4.1184,-4.1184,-4.1184,-4.1184,-4.1184,-4.1184,-4.1184,-4.1184,-4.1184,-4.1184,-4.1184,-4.1184,-4.1184,-4.1184,-4.1184,-4.1287,-4.1504,-4.1802,-4.2086,-4.2481,-4.275,-4.2862,-4.2986,-4.2986,-4.2986,-4.2986,-4.2986,-4.2986,-4.2986,-4.2986,-4.2986,-4.2986,-4.2986,-4.2986,-4.2986,-4.2986,-4.2986,-4.2986,-4.2986,-4.2986,-4.2986,-4.2986,-4.2986,-4.2986,-4.2986,-4.3062,-4.335,-4.3489,-4.3325,-4.3388,-4.3652,-4.401,-4.4357,-4.4848,-4.533,-4.5552,-4.567,-3.9697,-3.9697,-3.9697,-3.9697,-3.9697,-3.9697,-3.9697,-3.9697,-3.9697,-3.9697,-3.9697,-3.9697,-3.9697,-3.9697,-3.9697,-3.9697,-3.9697,-3.9697,-3.9697,-3.9697,-3.9697,-3.9697,-3.9697,-3.9697,-3.9697,-3.9697,-3.9697,-3.9697,-3.9697,-3.9697,-3.9697,-3.9697,-3.9697,-3.9697,-3.9697,-3.9697,-3.9697,-3.9785,-4.0023,-4.0442,-4.0939,-4.1347,-4.1601,-4.1742,-4.185,-4.1765,-4.1663,-4.1606,-4.1447,-4.1242,-4.1184,-4.1184,-4.1184,-4.1184,-4.1184,-4.1184,-4.1184,-4.1184,-4.1184,-4.1184,-4.1184,-4.1184,-4.1184,-4.1184,-4.1184,-4.1184,-4.1184,-4.1184,-4.1184,-4.1184,-4.1184,-4.1184,-4.1287,-4.1447,-4.1631,-4.1972,-4.2256,-4.2594,-4.2862,-4.293,-4.2986,-4.2986,-4.2986,-4.2986,-4.2986,-4.2986,-4.2986,-4.2986,-4.2986,-4.2986,-4.2986,-4.2986,-4.2986,-4.2986,-4.2986,-4.2986,-4.2986,-4.2986,-4.2986,-4.2986,-4.2986,-4.2986,-4.3011,-4.3162,-4.3438,-4.3501,-4.3476,-4.384,-4.4279,-4.4493,-4.4681,-4.507,-4.5409,-4.5447,-4.5548,-3.9697,-3.9697,-3.9697,-3.9697,-3.9697,-3.9697,-3.9697,-3.9697,-3.9697,-3.9697,-3.9697,-3.9697,-3.9697,-3.9697,-3.9697,-3.9697,-3.9697,-3.9697,-3.9697,-3.9697,-3.9697,-3.9697,-3.9697,-3.9697,-3.9697,-3.9697,-3.9697,-3.9697,-3.9697,-3.9697,-3.9697,-3.9697,-3.9697,-3.9697,-3.9697,-3.971,-3.9747,-4.0011,-4.0475,-4.1018,-4.1549,-4.1829,-4.1985,-4.212,-4.2086,-4.1972,-4.1789,-4.1606,-4.1447,-4.1242,-4.1184,-4.1184,-4.1184,-4.1184,-4.1184,-4.1184,-4.1184,-4.1184,-4.1184,-4.1184,-4.1184,-4.1184,-4.1184,-4.1184,-4.1184,-4.1184,-4.1184,-4.1184,-4.1184,-4.1184,-4.1184,-4.1184,-4.1344,-4.1561,-4.1859,-4.2199,-4.2481,-4.275,-4.2918,-4.2986,-4.2986,-4.2986,-4.2986,-4.2986,-4.2986,-4.2986,-4.2986,-4.2986,-4.2986,-4.2986,-4.2986,-4.2986,-4.2986,-4.2986,-4.2986,-4.2986,-4.2986,-4.2986,-4.2986,-4.2986,-4.2986,-4.3037,-4.3087,-4.33,-4.3601,-4.4053,-4.4342,-4.4644,-4.4882,-4.4819,-4.4819,-4.5146,-4.5384,-4.5384,-4.5263,-3.9697,-3.9697,-3.9697,-3.9697,-3.9697,-3.9697,-3.9697,-3.9697,-3.9697,-3.9697,-3.9697,-3.9697,-3.9697,-3.9697,-3.9697,-3.9697,-3.9697,-3.9697,-3.9697,-3.9697,-3.9697,-3.9697,-3.9697,-3.9697,-3.9697,-3.9697,-3.9697,-3.9697,-3.9697,-3.9697,-3.9697,-3.9697,-3.9697,-3.9697,-3.9735,-3.9798,-4.0086,-4.0463,-4.1015,-4.1393,-4.1853,-4.2196,-4.2451,-4.2419,-4.2268,-4.211,-4.2054,-4.1789,-4.1504,-4.1242,-4.1184,-4.1184,-4.1184,-4.1184,-4.1184,-4.1184,-4.1184,-4.1184,-4.1184,-4.1184,-4.1184,-4.1184,-4.1184,-4.1184,-4.1184,-4.1184,-4.1184,-4.1184,-4.1184,-4.1184,-4.1184,-4.1242,-4.139,-4.1688,-4.2029,-4.2312,-4.2581,-4.2806,-4.2974,-4.2986,-4.293,-4.2874,-4.2874,-4.2818,-4.2974,-4.2974,-4.2986,-4.2986,-4.2986,-4.2986,-4.2986,-4.2986,-4.2986,-4.2986,-4.2986,-4.2986,-4.2974,-4.2918,-4.2918,-4.2986,-4.2986,-4.3049,-4.3099,-4.3589,-4.3966,-4.4593,-4.5095,-4.5121,-4.5083,-4.4907,-4.4882,-4.4882,-4.4844,-4.4744,-4.4608,-3.9839,-3.9697,-3.9697,-3.9697,-3.9697,-3.9697,-3.9697,-3.9697,-3.9697,-3.9697,-3.9697,-3.9697,-3.9697,-3.9697,-3.9697,-3.9697,-3.9697,-3.9697,-3.9697,-3.9697,-3.9697,-3.9697,-3.9697,-3.9697,-3.9697,-3.9697,-3.9697,-3.9697,-3.9697,-3.9697,-3.9697,-3.9697,-3.9697,-3.9697,-3.9747,-4.0023,-4.0475,-4.099,-4.1543,-4.204,-4.2474,-4.2643,-4.2806,-4.2806,-4.2457,-4.2256,-4.2098,-4.1802,-4.1504,-4.1287,-4.1184,-4.1184,-4.1184,-4.1184,-4.1184,-4.1184,-4.1184,-4.1184,-4.1184,-4.1184,-4.1184,-4.1184,-4.1184,-4.1184,-4.1184,-4.1184,-4.1184,-4.1184,-4.1184,-4.1184,-4.1184,-4.1344,-4.1561,-4.1846,-4.213,-4.2413,-4.2638,-4.2862,-4.2806,-4.275,-4.2638,-4.2594,-4.2594,-4.2594,-4.2762,-4.2918,-4.2974,-4.2986,-4.2986,-4.2986,-4.2986,-4.2986,-4.293,-4.2806,-4.2818,-4.2806,-4.2862,-4.2862,-4.2862,-4.2874,-4.2874,-4.2999,-4.315,-4.3702,-4.4197,-4.4615,-4.4978,-4.5296,-4.5234,-4.4932,-4.4556,-4.4254,-4.4192,-4.4141,-4.4143,-3.9929,-3.9697,-3.9697,-3.9697,-3.9697,-3.9697,-3.9697,-3.9697,-3.9697,-3.9697,-3.9697,-3.9697,-3.9697,-3.9697,-3.9697,-3.9697,-3.9697,-3.9697,-3.9697,-3.9697,-3.9697,-3.9697,-3.9697,-3.9697,-3.9697,-3.9697,-3.9697,-3.9697,-3.9697,-3.9697,-3.9697,-3.9697,-3.9697,-3.9697,-3.9823,-4.0249,-4.0736,-4.1275,-4.1869,-4.2476,-4.2886,-4.2974,-4.2986,-4.2862,-4.2525,-4.2256,-4.2041,-4.1688,-4.1402,-4.123,-4.1184,-4.1184,-4.1184,-4.1184,-4.1184,-4.1184,-4.1184,-4.1184,-4.1184,-4.1184,-4.1184,-4.1184,-4.1184,-4.1184,-4.1184,-4.1184,-4.1184,-4.1184,-4.1184,-4.1184,-4.1184,-4.139,-4.1675,-4.1972,-4.2243,-4.2525,-4.2581,-4.2737,-4.2581,-4.2413,-4.2369,-4.2312,-4.2425,-4.2425,-4.2694,-4.2862,-4.2974,-4.2986,-4.2986,-4.2986,-4.2986,-4.293,-4.2874,-4.2694,-4.2581,-4.2538,-4.2538,-4.2481,-4.2481,-4.2594,-4.2663,-4.285,-4.3187,-4.3676,-4.4091,-4.4506,-4.4814,-4.5039,-4.4994,-4.4882,-4.4342,-4.3702,-4.3714,-4.3702,-4.3865,-3.9929,-3.9697,-3.9697,-3.9697,-3.9697,-3.9697,-3.9697,-3.9697,-3.9697,-3.9697,-3.9697,-3.9697,-3.9697,-3.9697,-3.9697,-3.9697,-3.9697,-3.9697,-3.9697,-3.9697,-3.9697,-3.9697,-3.9697,-3.9697,-3.9697,-3.9697,-3.9697,-3.9697,-3.9697,-3.9697,-3.9697,-3.9735,-3.9772,-3.9823,-3.9772,-4.0262,-4.0802,-4.1342,-4.1932,-4.2552,-4.2861,-4.2986,-4.2986,-4.2874,-4.2425,-4.2155,-4.1984,-4.1573,-4.1287,-4.1242,-4.1184,-4.1184,-4.1184,-4.1184,-4.1184,-4.1184,-4.1184,-4.1184,-4.1184,-4.1184,-4.1184,-4.1184,-4.1184,-4.1184,-4.1184,-4.1184,-4.1184,-4.1184,-4.1184,-4.1184,-4.1287,-4.1447,-4.1745,-4.1972,-4.2243,-4.2425,-4.2525,-4.2525,-4.2369,-4.213,-4.2086,-4.2098,-4.2199,-4.2312,-4.2581,-4.275,-4.2918,-4.2986,-4.2986,-4.2918,-4.2862,-4.2806,-4.2694,-4.2469,-4.2243,-4.2211,-4.2167,-4.2155,-4.2298,-4.251,-4.267,-4.2881,-4.3243,-4.3656,-4.4119,-4.4546,-4.4633,-4.4672,-4.438,-4.4078,-4.362,-4.3175,-4.3212,-4.3388,-4.3652,-4.0096,-3.9697,-3.9697,-3.9697,-3.9697,-3.9697,-3.9697,-3.9697,-3.9697,-3.9697,-3.9697,-3.9697,-3.9697,-3.9697,-3.9697,-3.9697,-3.9697,-3.9697,-3.9697,-3.9697,-3.9697,-3.9697,-3.9697,-3.9697,-3.9697,-3.9697,-3.9697,-3.9697,-3.9697,-3.9697,-3.9697,-3.9735,-4.0023,-4.0224,-4.0388,-4.0789,-4.1288,-4.1882,-4.2451,-4.2879,-4.2961,-4.2986,-4.2974,-4.2974,-4.2425,-4.2098,-4.2041,-4.1528,-4.1242,-4.1184,-4.1184,-4.1184,-4.1184,-4.1184,-4.1184,-4.1184,-4.1184,-4.1184,-4.1184,-4.1184,-4.1184,-4.1184,-4.1184,-4.1184,-4.1184,-4.1184,-4.1184,-4.1184,-4.1184,-4.1184,-4.1242,-4.1447,-4.1675,-4.1789,-4.196,-4.2142,-4.2256,-4.2211,-4.2155,-4.1903,-4.1789,-4.1789,-4.1846,-4.196,-4.2243,-4.2469,-4.265,-4.2874,-4.2874,-4.2694,-4.2638,-4.2525,-4.2413,-4.213,-4.196,-4.1928,-4.1956,-4.1948,-4.227,-4.2758,-4.2897,-4.3014,-4.3443,-4.3934,-4.4251,-4.4556,-4.4458,-4.4284,-4.3592,-4.3123,-4.3123,-4.3075,-4.3144,-4.3382,-4.3727,-4.0338,-3.9839,-3.9839,-3.9788,-3.9697,-3.9697,-3.9697,-3.9697,-3.9697,-3.9697,-3.9697,-3.9697,-3.9697,-3.9697,-3.9697,-3.9697,-3.9697,-3.9697,-3.9697,-3.9697,-3.9697,-3.9697,-3.9697,-3.9697,-3.9697,-3.9697,-3.9697,-3.9697,-3.9697,-3.9697,-3.9835,-4.0061,-4.0337,-4.0727,-4.1028,-4.153,-4.1756,-4.2263,-4.2652,-4.2936,-4.2986,-4.2986,-4.2986,-4.2818,-4.2494,-4.2098,-4.194,-4.1586,-4.1184,-4.1184,-4.1184,-4.1184,-4.1184,-4.1184,-4.1184,-4.1184,-4.1184,-4.1184,-4.1184,-4.1184,-4.1184,-4.1184,-4.1184,-4.1184,-4.1184,-4.1184,-4.1184,-4.1184,-4.1184,-4.1184,-4.1242,-4.1447,-4.1606,-4.1663,-4.1789,-4.1972,-4.1915,-4.1928,-4.1871,-4.1618,-4.1504,-4.1504,-4.1504,-4.1606,-4.1834,-4.2073,-4.2381,-4.2538,-4.2706,-4.2525,-4.2356,-4.2243,-4.2142,-4.1915,-4.1745,-4.1688,-4.1683,-4.1759,-4.2214,-4.2824,-4.3013,-4.3079,-4.3636,-4.4085,-4.4269,-4.4354,-4.4158,-4.3862,-4.3541,-4.3315,-4.3346,-4.3278,-4.3169,-4.3456,-4.3894,-4.058,-4.0134,-4.0083,-3.9942,-3.9749,-3.9697,-3.9697,-3.9697,-3.9697,-3.9697,-3.9697,-3.9697,-3.9697,-3.9697,-3.9697,-3.9697,-3.9697,-3.9697,-3.9697,-3.9697,-3.9697,-3.9697,-3.9697,-3.9697,-3.9697,-3.9697,-3.9697,-3.9697,-3.9697,-3.9697,-3.9948,-4.0362,-4.0576,-4.1116,-4.1681,-4.2082,-4.225,-4.2527,-4.271,-4.2961,-4.2986,-4.2986,-4.2986,-4.2818,-4.2437,-4.2155,-4.1928,-4.1573,-4.1299,-4.1184,-4.1184,-4.1184,-4.1184,-4.1184,-4.1184,-4.1184,-4.1184,-4.1184,-4.1184,-4.1184,-4.1184,-4.1184,-4.1184,-4.1184,-4.1184,-4.1184,-4.1184,-4.1184,-4.1184,-4.1184,-4.1242,-4.139,-4.1537,-4.1663,-4.1789,-4.1789,-4.1618,-4.1561,-4.1459,-4.1344,-4.1287,-4.1287,-4.1344,-4.1402,-4.1561,-4.1618,-4.1859,-4.1928,-4.2086,-4.2199,-4.2029,-4.2017,-4.1859,-4.1712,-4.1577,-4.1665,-4.1873,-4.2069,-4.2276,-4.2732,-4.2927,-4.3265,-4.3772,-4.4098,-4.4156,-4.4193,-4.4184,-4.4038,-4.3806,-4.3656,-4.3419,-4.3382,-4.3305,-4.3784,-4.4289,-4.0567,-4.0134,-4.0083,-3.9942,-3.9749,-3.9697,-3.9697,-3.9697,-3.9697,-3.9697,-3.9697,-3.9697,-3.9697,-3.9697,-3.9697,-3.9697,-3.9697,-3.9697,-3.9697,-3.9697,-3.9697,-3.9697,-3.9697,-3.9697,-3.9697,-3.9697,-3.9697,-3.9697,-3.9697,-3.9697,-4.0011,-4.045,-4.0927,-4.1543,-4.2082,-4.2602,-4.269,-4.2778,-4.2886,-4.2949,-4.2986,-4.2986,-4.2986,-4.2818,-4.2437,-4.2155,-4.1928,-4.1528,-4.1242,-4.1184,-4.1184,-4.1184,-4.1184,-4.1184,-4.1184,-4.1184,-4.1184,-4.1184,-4.1184,-4.1184,-4.1184,-4.1184,-4.1184,-4.1184,-4.1184,-4.1184,-4.1184,-4.1184,-4.1184,-4.1184,-4.1184,-4.1287,-4.139,-4.1447,-4.1573,-4.1516,-4.1402,-4.1344,-4.1287,-4.1287,-4.1184,-4.1184,-4.1242,-4.1242,-4.1344,-4.1344,-4.1402,-4.1471,-4.1586,-4.17,-4.1867,-4.1879,-4.1813,-4.1713,-4.1815,-4.1926,-4.2169,-4.2458,-4.2651,-4.2928,-4.3289,-4.3625,-4.3962,-4.4093,-4.4201,-4.4275,-4.4252,-4.4098,-4.3905,-4.3578,-4.33,-4.3366,-4.3563,-4.4025,-4.444,-4.0795,-4.0427,-4.0287,-4.0032,-3.9749,-3.9697,-3.9697,-3.9697,-3.9697,-3.9697,-3.9697,-3.9697,-3.9697,-3.9697,-3.9697,-3.9697,-3.9697,-3.9697,-3.9697,-3.9697,-3.9697,-3.9697,-3.9697,-3.9697,-3.9697,-3.9697,-3.9697,-3.9697,-3.9735,-3.9998,-4.0312,-4.0824,-4.1392,-4.1932,-4.2421,-4.2773,-4.2911,-4.2949,-4.2974,-4.2986,-4.2986,-4.2986,-4.2986,-4.2874,-4.2437,-4.2155,-4.2041,-4.1528,-4.1242,-4.1184,-4.1184,-4.1184,-4.1184,-4.1184,-4.1184,-4.1184,-4.1184,-4.1184,-4.1184,-4.1184,-4.1184,-4.1184,-4.1184,-4.1184,-4.1184,-4.1184,-4.1184,-4.1184,-4.1184,-4.1184,-4.1184,-4.1184,-4.1184,-4.1242,-4.1242,-4.1242,-4.1184,-4.1184,-4.1184,-4.1184,-4.1184,-4.1184,-4.1184,-4.1184,-4.1184,-4.1242,-4.1242,-4.1299,-4.1357,-4.1414,-4.1701,-4.1871,-4.1815,-4.1772,-4.199,-4.2315,-4.2603,-4.288,-4.3096,-4.3397,-4.3758,-4.3913,-4.4105,-4.4201,-4.4261,-4.4323,-4.4287,-4.4142,-4.3951,-4.3649,-4.3565,-4.3748,-4.3843,-4.3999,-4.44,-4.1161,-4.0833,-4.0605,-4.0147,-3.9749,-3.9697,-3.9697,-3.9697,-3.9697,-3.9697,-3.9697,-3.9697,-3.9697,-3.9697,-3.9697,-3.9697,-3.9697,-3.9697,-3.9697,-3.9697,-3.9697,-3.9697,-3.9697,-3.9697,-3.9697,-3.9697,-3.9697,-3.9697,-3.9848,-4.0136,-4.0598,-4.1288,-4.1819,-4.2363,-4.2785,-4.2911,-4.2986,-4.2986,-4.2986,-4.2986,-4.2986,-4.2986,-4.2986,-4.2918,-4.2538,-4.2155,-4.2041,-4.17,-4.1242,-4.1242,-4.1242,-4.1242,-4.1184,-4.1184,-4.1184,-4.1184,-4.1184,-4.1184,-4.1184,-4.1184,-4.1184,-4.1184,-4.1184,-4.1184,-4.1184,-4.1184,-4.1184,-4.1184,-4.1184,-4.1184,-4.1184,-4.1184,-4.1184,-4.1184,-4.1184,-4.1184,-4.1184,-4.1184,-4.1184,-4.1184,-4.1184,-4.1184,-4.1184,-4.1184,-4.1184,-4.1184,-4.1184,-4.1184,-4.1208,-4.1266,-4.1567,-4.1938,-4.1904,-4.2002,-4.2579,-4.288,-4.312,-4.3361,-4.3553,-4.3758,-4.3985,-4.4141,-4.4261,-4.4285,-4.4285,-4.4285,-4.4249,-4.4141,-4.4105,-4.4081,-4.4118,-4.4189,-4.4266,-4.4147,-4.4305,-4.1147,-4.0833,-4.0389,-3.9981,-3.9749,-3.9697,-3.9697,-3.9697,-3.9697,-3.9697,-3.9697,-3.9697,-3.9697,-3.9697,-3.9697,-3.9697,-3.9697,-3.9697,-3.9697,-3.9697,-3.9697,-3.9697,-3.9697,-3.9697,-3.9697,-3.9697,-3.9697,-3.971,-3.9823,-4.0249,-4.0749,-4.1275,-4.1882,-4.2489,-4.2949,-4.2986,-4.2986,-4.2986,-4.2986,-4.2986,-4.2986,-4.2986,-4.2986,-4.2874,-4.2594,-4.2425,-4.2256,-4.2086,-4.1732,-4.1561,-4.1561,-4.139,-4.1242,-4.1184,-4.1184,-4.1184,-4.1184,-4.1184,-4.1184,-4.1184,-4.1184,-4.1184,-4.1184,-4.1184,-4.1184,-4.1184,-4.1184,-4.1184,-4.1184,-4.1184,-4.1184,-4.1184,-4.1184,-4.1184,-4.1184,-4.1184,-4.1184,-4.1184,-4.1184,-4.1184,-4.1184,-4.1184,-4.1184,-4.1184,-4.1184,-4.1184,-4.1184,-4.1196,-4.1256,-4.1374,-4.1772,-4.2036,-4.2024,-4.223,-4.294,-4.3385,-4.3577,-4.3794,-4.3998,-4.4117,-4.4261,-4.4273,-4.4285,-4.4285,-4.4285,-4.4285,-4.4285,-4.4273,-4.4261,-4.4285,-4.4285,-4.4285,-4.4161,-4.4057,-4.4252,-4.1448,-4.1034,-4.0491,-4.0134,-3.9878,-3.9749,-3.9697,-3.9697,-3.9697,-3.9697,-3.9697,-3.9697,-3.9697,-3.9697,-3.9697,-3.9697,-3.9697,-3.9697,-3.9697,-3.9697,-3.9697,-3.9697,-3.9697,-3.9697,-3.9697,-3.9697,-3.9697,-3.9722,-3.9785,-4.0249,-4.0802,-4.1288,-4.1894,-4.2476,-4.2898,-4.2986,-4.2986,-4.2986,-4.2986,-4.2986,-4.2986,-4.2986,-4.2986,-4.293,-4.275,-4.2581,-4.2413,-4.2256,-4.1903,-4.1618,-4.1504,-4.1344,-4.1242,-4.1184,-4.1184,-4.1184,-4.1184,-4.1184,-4.1184,-4.1184,-4.1184,-4.1184,-4.1184,-4.1184,-4.1184,-4.1184,-4.1184,-4.1184,-4.1184,-4.1184,-4.1184,-4.1184,-4.1184,-4.1184,-4.1184,-4.1184,-4.1184,-4.1184,-4.1184,-4.1184,-4.1184,-4.1184,-4.1184,-4.1184,-4.1184,-4.1184,-4.1184,-4.1449,-4.1473,-4.1581,-4.1954,-4.2242,-4.2315,-4.2796,-4.3625,-4.3914,-4.3925,-4.4141,-4.4285,-4.4285,-4.4273,-4.4285,-4.4285,-4.4285,-4.4285,-4.4285,-4.4285,-4.4285,-4.4285,-4.4285,-4.4285,-4.4223,-4.4099,-4.39,-4.3764,-4.1746,-4.1211,-4.0757,-4.0389,-4.0134,-3.989,-3.9788,-3.98,-3.9749,-3.9749,-3.9697,-3.9697,-3.9697,-3.9697,-3.9697,-3.9697,-3.9697,-3.9697,-3.9697,-3.9697,-3.9697,-3.9697,-3.9697,-3.9697,-3.9697,-3.9697,-3.9697,-3.9697,-3.9722,-4.0249,-4.0789,-4.1288,-4.1882,-4.2476,-4.2811,-4.2986,-4.2986,-4.2986,-4.2986,-4.2986,-4.2986,-4.2986,-4.2986,-4.2918,-4.275,-4.2569,-4.2469,-4.2356,-4.2017,-4.1688,-4.1459,-4.1299,-4.1242,-4.1184,-4.1184,-4.1184,-4.1184,-4.1184,-4.1184,-4.1184,-4.1184,-4.1184,-4.1184,-4.1184,-4.1184,-4.1184,-4.1184,-4.1184,-4.1184,-4.1184,-4.1184,-4.1184,-4.1184,-4.1196,-4.1196,-4.1208,-4.1208,-4.1268,-4.1305,-4.1317,-4.1389,-4.1389,-4.1413,-4.1401,-4.1329,-4.1317,-4.1413,-4.1665,-4.1964,-4.2122,-4.2399,-4.2699,-4.2892,-4.3505,-4.4129,-4.4201,-4.4165,-4.4213,-4.4285,-4.4285,-4.4285,-4.4285,-4.4285,-4.4285,-4.4285,-4.4285,-4.4285,-4.4285,-4.4285,-4.4285,-4.4025,-4.3838,-4.3576,-4.3377,-4.2937,-4.1683,-4.0997,-4.0846,-4.0643,-4.0453,-4.0351,-4.0249,-4.0032,-4.0032,-3.9942,-3.9749,-3.9697,-3.9697,-3.9697,-3.9697,-3.9697,-3.9697,-3.9697,-3.9697,-3.9697,-3.9697,-3.9697,-3.9697,-3.9697,-3.9697,-3.9697,-3.9697,-3.9697,-3.9785,-4.0237,-4.0789,-4.1288,-4.1882,-4.2464,-4.2886,-4.2986,-4.2986,-4.2986,-4.2986,-4.2986,-4.2986,-4.2986,-4.2986,-4.2986,-4.2986,-4.293,-4.2874,-4.2862,-4.2481,-4.2029,-4.1528,-4.1299,-4.1184,-4.1184,-4.1184,-4.1184,-4.1184,-4.1184,-4.1184,-4.1184,-4.1184,-4.1184,-4.1184,-4.1184,-4.1184,-4.1184,-4.1184,-4.1184,-4.1184,-4.1184,-4.1184,-4.1184,-4.1184,-4.1208,-4.122,-4.1268,-4.1293,-4.1545,-4.1761,-4.193,-4.211,-4.217,-4.2325,-4.2182,-4.2002,-4.1966,-4.1894,-4.2217,-4.2483,-4.2675,-4.2844,-4.3144,-4.3421,-4.3758,-4.4165,-4.4249,-4.4249,-4.4273,-4.4285,-4.4285,-4.4285,-4.4285,-4.4285,-4.4285,-4.4285,-4.4285,-4.4285,-4.4285,-4.4223,-4.4087,-4.3639,-4.3377,-4.3126,-4.2811,-4.2368]},{"header":{"parameterUnit":"m.s-1","parameterCategory":1,"la1":31.0,"la2":29.5877,"lo1":-88.7671,"lo2":-86.6584,"dy":0.0162,"dx":0.0185,"nx":115,"ny":88,"refTime":"2023-04-17T12:00:00:Z","depth":0,"parameterNumber":3,"parameterNumberName":"V-component_of_WINDS"},"data":[0.0,0.0,0.0,0.0,0.0,0.0,0.0,0.0,0.0,0.0,0.0,0.0,0.0,0.0,0.0,0.0,0.0,0.0,0.0,0.0,0.0,0.0,0.0,0.0,0.0,0.0,0.0,0.0,0.0,0.0,0.0,0.0,0.0,0.0,0.0,0.0,0.0,0.0,0.0,0.0,0.0,0.0,0.0,0.0,0.0,0.0,0.0,0.0,0.0,0.0,0.0,0.0,0.0,0.0,0.0,0.0,0.0,0.0,0.0,0.0,0.0,0.0,0.0,0.0,0.0,0.0,0.0,0.0,0.0,0.0,0.0,0.0,0.0,0.0,0.0,0.0,0.0,0.0,0.0,0.0,0.0,0.0,0.0,0.0,0.0,0.0,0.0,0.0,0.0,0.0,0.0,0.0,0.0,0.0,0.0,0.0,0.0,0.0,0.0,0.0,0.0,0.0,0.0,0.0,0.0,0.0,0.0,0.0,0.0,0.0,0.0,0.0,0.0,0.0,0.0,0.0,0.0,0.0,0.0,0.0,0.0,0.0,0.0,0.0,0.0,0.0,0.0,0.0,0.0,0.0,0.0,0.0,0.0,0.0,0.0,0.0,0.0,0.0,0.0,0.0,0.0,0.0,0.0,0.0,0.0,0.0,0.0,0.0,0.0,0.0,0.0,0.0,0.0,0.0,0.0,0.0,0.0,0.0,0.0,0.0,0.0,0.0,0.0,0.0,0.0,0.0,0.0,0.0,0.0,0.0,0.0,0.0,0.0,0.0,0.0,0.0,0.0,0.0,0.0,0.0,0.0,0.0,0.0,0.0,0.0,0.0,0.0,0.0,0.0,0.0,0.0,0.0,0.0,0.0,0.0,0.0,0.0,0.0,0.0,0.0,0.0,0.0,0.0,0.0,0.0,0.0,0.0,0.0,0.0,0.0,0.0,0.0,0.0,0.0,0.0,0.0,0.0,0.0,0.0,0.0,0.0,0.0,0.0,0.0,0.0,0.0,0.0,0.0,0.0,0.0,0.0,0.0,0.0,0.0,0.0,0.0,0.0,0.0,0.0,0.0,0.0,0.0,0.0,0.0,0.0,0.0,0.0,0.0,0.0,0.0,0.0,0.0,0.0,0.0,0.0,0.0,0.0,0.0,0.0,0.0,0.0,0.0,0.0,0.0,0.0,0.0,0.0,0.0,0.0,0.0,0.0,0.0,0.0,0.0,0.0,0.0,0.0,0.0,0.0,0.0,0.0,0.0,0.0,0.0,0.0,0.0,0.0,0.0,0.0,0.0,0.0,0.0,0.0,0.0,0.0,0.0,0.0,0.0,0.0,0.0,0.0,0.0,0.0,0.0,0.0,0.0,0.0,0.0,0.0,0.0,0.0,0.0,0.0,0.0,0.0,0.0,0.0,0.0,0.0,0.0,0.0,0.0,0.0,0.0,0.0,0.0,0.0,0.0,0.0,0.0,0.0,0.0,0.0,0.0,0.0,0.0,0.0,0.0,0.0,0.0,0.0,0.0,0.0,0.0,0.0,0.0,0.0,0.0,0.0,0.0,0.0,0.0,0.0,0.0,0.0,0.0,0.0,0.0,0.0,0.0,0.0,0.0,0.0,0.0,0.0,0.0,0.0,0.0,0.0,0.0,0.0,0.0,0.0,0.0,0.0,0.0,0.0,0.0,0.0,0.0,0.0,0.0,0.0,0.0,0.0,0.0,0.0,0.0,0.0,0.0,0.0,0.0,0.0,0.0,0.0,0.0,0.0,0.0,0.0,0.0,0.0,0.0,0.0,0.0,0.0,0.0,0.0,0.0,0.0,0.0,0.0,0.0,0.0,0.0,0.0,0.0,0.0,0.0,0.0,0.0,0.0,0.0,0.0,0.0,0.0,0.0,0.0,0.0,0.0,0.0,0.0,0.0,0.0,0.0,0.0,0.0,0.0,0.0,0.0,0.0,0.0,0.0,0.0,0.0,0.0,0.0,0.0,0.0,0.0,0.0,0.0,0.0,0.0,0.0,0.0,0.0,0.0,0.0,0.0,0.0,0.0,0.0,0.0,0.0,0.0,0.0,0.0,0.0,0.0,0.0,0.0,0.0,0.0,0.0,0.0,0.0,0.0,0.0,0.0,0.0,0.0,0.0,0.0,0.0,0.0,0.0,0.0,0.0,0.0,0.0,0.0,0.0,0.0,0.0,0.0,0.0,0.0,0.0,0.0,0.0,0.0,0.0,0.0,0.0,0.0,0.0,0.0,0.0,0.0,0.0,0.0,0.0,0.0,0.0,0.0,0.0,0.0,0.0,0.0,0.0,0.0,0.0,0.0,0.0,0.0,0.0,0.0,0.0,0.0,0.0,0.0,0.0,0.0,0.0,0.0,0.0,0.0,0.0,0.0,0.0,0.0,0.0,0.0,0.0,0.0,0.0,0.0,0.0,0.0,0.0,0.0,0.0,0.0,0.0,0.0,0.0,0.0,0.0,0.0,0.0,0.0,0.0,0.0,0.0,0.0,0.0,0.0,0.0,0.0,0.0,0.0,0.0,0.0,0.0,0.0,0.0,0.0,0.0,0.0,0.0,0.0,0.0,0.0,0.0,0.0,0.0,0.0,0.0,0.0,0.0,0.0,0.0,0.0,0.0,0.0,0.0,0.0,0.0,0.0,0.0,0.0,0.0,0.0,0.0,0.0,0.0,0.0,0.0,0.0,0.0,0.0,0.0,0.0,0.0,0.0,0.0,0.0,0.0,0.0,0.0,0.0,0.0,0.0,0.0,0.0,0.0,0.0,0.0,0.0,0.0,0.0,0.0,0.0,0.0,0.0,0.0,0.0,0.0,0.0,0.0,0.0,0.0,0.0,0.0,0.0,0.0,0.0,0.0,0.0,0.0,0.0,0.0,0.0,0.0,0.0,0.0,0.0,0.0,0.0,0.0,0.0,0.0,0.0,0.0,0.0,0.0,0.0,0.0,0.0,0.0,0.0,0.0,0.0,0.0,0.0,0.0,0.0,0.0,0.0,0.0,0.0,0.0,0.0,0.0,0.0,0.0,0.0,0.0,0.0,0.0,0.0,0.0,0.0,0.0,0.0,0.0,0.0,0.0,0.0,0.0,0.0,0.0,0.0,0.0,0.0,0.0,0.0,0.0,0.0,0.0,0.0,0.0,0.0,0.0,0.0,0.0,0.0,0.0,0.0,0.0,0.0,0.0,0.0,0.0,0.0,0.0,0.0,0.0,0.0,0.0,0.0,0.0,0.0,0.0,0.0,0.0,0.0,0.0,0.0,0.0,0.0,0.0,0.0,0.0,0.0,0.0,0.0,0.0,0.0,0.0,0.0,0.0,0.0,0.0,0.0,0.0,0.0,0.0,0.0,0.0,0.0,0.0,0.0,0.0,0.0,0.0,0.0,0.0,0.0,0.0,0.0,0.0,0.0,0.0,0.0,0.0,0.0,0.0,0.0,0.0,0.0,0.0,0.0,0.0,0.0,0.0,0.0,0.0,0.0,0.0,0.0,0.0,0.0,0.0,0.0,0.0,0.0,0.0,0.0,0.0,0.0,0.0,0.0,0.0,0.0,0.0,0.0,0.0,0.0,0.0,0.0,0.0,0.0,0.0,0.0,0.0,0.0,0.0,0.0,0.0,0.0,0.0,0.0,0.0,0.0,0.0,0.0,0.0,0.0,0.0,0.0,0.0,0.0,0.0,0.0,0.0,0.0,0.0,0.0,0.0,0.0,0.0,0.0,0.0,0.0,0.0,0.0,0.0,0.0,0.0,0.0,0.0,0.0,0.0,0.0,0.0,0.0,0.0,0.0,0.0,0.0,0.0,0.0,0.0,0.0,0.0,0.0,0.0,0.0,0.0,0.0,0.0,0.0,0.0,0.0,0.0,0.0,0.0,0.0,0.0,0.0,0.0,0.0,0.0,0.0,0.0,0.0,0.0,0.0,0.0,0.0,0.0,0.0,0.0,0.0,0.0,0.0,0.0,0.0,0.0,0.0,0.0,0.0,0.0,0.0,0.0,0.0,0.0,0.0,0.0,0.0,0.0,0.0,0.0,0.0,0.0,0.0,0.0,0.0,0.0,0.0,0.0,0.0,0.0,0.0,0.0,0.0,0.0,0.0,0.0,0.0,0.0,0.0,0.0,0.0,0.0,0.0,0.0,0.0,0.0,0.0,0.0,0.0,0.0,0.0,0.0,0.0,0.0,0.0,0.0,0.0,0.0,0.0,0.0,0.0,0.0,0.0,0.0,0.0,0.0,0.0,0.0,0.0,0.0,0.0,0.0,1.7001,0.0,0.0,0.0,0.0,0.0,0.0,0.0,0.0,0.0,0.0,0.0,0.0,0.0,0.0,0.0,0.0,0.0,0.0,0.0,0.0,0.0,0.0,0.0,0.0,0.0,0.0,0.0,0.0,0.0,0.0,0.0,0.0,0.0,0.0,0.0,0.0,0.0,0.0,0.0,0.0,0.0,0.0,0.0,0.0,0.0,0.0,0.0,0.0,0.0,0.0,0.0,0.0,0.0,0.0,0.0,0.0,0.0,0.0,0.0,0.0,0.0,0.0,0.0,0.0,0.0,0.0,0.0,0.0,0.0,0.0,0.0,0.0,0.0,0.0,0.0,0.0,0.0,0.0,0.0,0.0,0.0,0.0,0.0,0.0,0.0,0.0,0.0,0.0,0.0,0.0,0.0,0.0,0.0,0.0,0.0,0.0,0.0,0.0,0.0,0.0,0.0,0.0,0.0,0.0,0.0,0.0,0.0,0.0,0.0,0.0,1.7308,1.7184,1.7066,1.7001,1.7001,0.0,0.0,0.0,0.0,0.0,0.0,0.0,0.0,0.0,0.0,0.0,0.0,0.0,0.0,0.0,0.0,0.0,0.0,0.0,0.0,0.0,0.0,0.0,0.0,0.0,0.0,0.0,0.0,0.0,0.0,0.0,0.0,0.0,0.0,0.0,0.0,0.0,0.0,0.0,0.0,0.0,0.0,0.0,0.0,0.0,0.0,0.0,0.0,0.0,0.0,0.0,0.0,0.0,0.0,0.0,0.0,0.0,0.0,0.0,0.0,0.0,0.0,0.0,0.0,0.0,0.0,0.0,0.0,0.0,0.0,0.0,0.0,0.0,0.0,0.0,0.0,0.0,0.0,0.0,0.0,0.0,0.0,0.0,0.0,0.0,0.0,0.0,0.0,0.0,0.0,0.0,0.0,0.0,0.0,0.0,0.0,0.0,0.0,0.0,0.0,0.0,0.0,0.0,0.0,0.0,0.0,0.0,0.0,0.0,0.0,0.0,0.0,1.7168,1.7141,1.7093,0.0,0.0,0.0,0.0,0.0,0.0,0.0,0.0,0.0,0.0,0.0,0.0,0.0,0.0,0.0,0.0,0.0,0.0,0.0,0.0,0.0,0.0,0.0,0.0,0.0,0.0,0.0,0.0,0.0,0.0,0.0,0.0,0.0,0.0,0.0,0.0,0.0,0.0,0.0,0.0,0.0,0.0,0.0,0.0,0.0,0.0,0.0,0.0,0.0,0.0,0.0,0.0,0.0,0.0,0.0,0.0,0.0,0.0,0.0,0.0,0.0,0.0,0.0,0.0,0.0,0.0,0.0,0.0,0.0,0.0,0.0,0.0,0.0,0.0,0.0,0.0,0.0,0.0,0.0,0.0,0.0,0.0,0.0,0.0,0.0,0.0,0.0,0.0,0.0,0.0,0.0,0.0,0.0,0.0,0.0,0.0,0.0,0.0,0.0,0.0,0.0,0.0,0.0,0.0,0.0,0.0,0.0,0.0,0.0,0.0,1.747,1.7653,1.7647,0.0,1.7351,0.0,0.0,0.0,0.0,0.0,0.0,0.0,0.0,0.0,0.0,0.0,0.0,0.0,0.0,0.0,0.0,0.0,0.0,0.0,0.0,0.0,0.0,0.0,0.0,0.0,0.0,0.0,0.0,0.0,0.0,0.0,0.0,0.0,0.0,0.0,0.0,0.0,0.0,0.0,0.0,0.0,0.0,0.0,0.0,0.0,0.0,0.0,0.0,0.0,0.0,0.0,0.0,0.0,0.0,0.0,0.0,0.0,0.0,0.0,0.0,0.0,0.0,0.0,0.0,0.0,0.0,0.0,0.0,0.0,0.0,0.0,0.0,0.0,0.0,0.0,0.0,0.0,0.0,0.0,0.0,0.0,0.0,0.0,0.0,0.0,0.0,0.0,0.0,0.0,0.0,0.0,0.0,0.0,0.0,0.0,0.0,0.0,0.0,0.0,0.0,0.0,0.0,0.0,0.0,0.0,0.0,0.0,0.0,0.0,0.0,1.7561,1.7518,1.7378,1.7254,0.0,0.0,0.0,0.0,0.0,0.0,0.0,0.0,0.0,0.0,0.0,0.0,0.0,0.0,0.0,0.0,0.0,0.0,0.0,0.0,0.0,0.0,0.0,0.0,0.0,0.0,0.0,0.0,0.0,0.0,0.0,0.0,0.0,0.0,0.0,0.0,0.0,0.0,0.0,0.0,0.0,0.0,0.0,0.0,0.0,0.0,0.0,0.0,0.0,0.0,0.0,0.0,0.0,0.0,0.0,0.0,0.0,0.0,0.0,0.0,0.0,0.0,0.0,0.0,0.0,0.0,0.0,0.0,0.0,0.0,0.0,0.0,0.0,0.0,0.0,0.0,0.0,0.0,0.0,0.0,0.0,0.0,0.0,0.0,0.0,0.0,0.0,0.0,0.0,0.0,0.0,0.0,0.0,0.0,0.0,0.0,0.0,0.0,0.0,0.0,0.0,0.0,0.0,0.0,0.0,0.0,0.0,0.0,0.0,0.0,1.7666,1.7642,1.747,1.7233,1.7169,1.7228,0.0,0.0,0.0,0.0,0.0,0.0,0.0,0.0,0.0,0.0,0.0,0.0,0.0,0.0,0.0,0.0,0.0,0.0,0.0,0.0,0.0,0.0,0.0,0.0,0.0,0.0,0.0,0.0,0.0,0.0,0.0,0.0,0.0,0.0,0.0,0.0,0.0,0.0,0.0,0.0,0.0,0.0,0.0,0.0,0.0,0.0,0.0,0.0,0.0,0.0,0.0,0.0,0.0,0.0,0.0,0.0,0.0,0.0,0.0,0.0,0.0,0.0,0.0,0.0,0.0,0.0,0.0,0.0,0.0,0.0,0.0,0.0,0.0,0.0,0.0,0.0,0.0,0.0,0.0,0.0,0.0,0.0,0.0,0.0,0.0,0.0,0.0,0.0,0.0,0.0,0.0,0.0,0.0,0.0,0.0,0.0,0.0,0.0,0.0,0.0,0.0,0.0,0.0,0.0,0.0,0.0,0.0,0.0,1.7912,1.7727,1.7712,1.7696,1.748,1.7554,0.0,0.0,0.0,0.0,0.0,0.0,0.0,0.0,0.0,0.0,0.0,0.0,0.0,0.0,0.0,0.0,0.0,0.0,0.0,0.0,0.0,0.0,0.0,0.0,0.0,0.0,0.0,0.0,0.0,0.0,0.0,0.0,0.0,0.0,0.0,0.0,0.0,0.0,0.0,0.0,0.0,0.0,0.0,0.0,0.0,0.0,0.0,0.0,0.0,0.0,0.0,0.0,0.0,0.0,0.0,0.0,0.0,0.0,0.0,0.0,0.0,0.0,0.0,0.0,0.0,0.0,0.0,0.0,0.0,0.0,0.0,0.0,0.0,0.0,0.0,0.0,0.0,0.0,0.0,0.0,0.0,0.0,0.0,0.0,0.0,0.0,0.0,0.0,0.0,0.0,0.0,0.0,0.0,0.0,0.0,0.0,0.0,0.0,0.0,0.0,0.0,0.0,0.0,0.0,0.0,0.0,0.0,0.0,0.0,1.8479,1.8267,1.8312,1.8665,1.8083,1.7924,0.0,0.0,0.0,0.0,0.0,0.0,0.0,0.0,0.0,0.0,0.0,0.0,0.0,0.0,0.0,0.0,0.0,0.0,0.0,0.0,0.0,0.0,0.0,0.0,0.0,0.0,0.0,0.0,0.0,0.0,0.0,0.0,0.0,0.0,0.0,0.0,0.0,0.0,0.0,0.0,0.0,0.0,0.0,0.0,0.0,0.0,0.0,0.0,0.0,0.0,0.0,0.0,0.0,0.0,0.0,0.0,0.0,0.0,0.0,0.0,0.0,0.0,0.0,0.0,0.0,0.0,0.0,0.0,0.0,0.0,0.0,0.0,0.0,0.0,0.0,0.0,0.0,0.0,0.0,0.0,0.0,0.0,0.0,0.0,0.0,0.0,0.0,0.0,0.0,0.0,0.0,0.0,0.0,0.0,0.0,0.0,0.0,0.0,0.0,0.0,0.0,0.0,0.0,0.0,0.0,0.0,0.0,0.0,0.0,1.8804,0.0,1.8786,1.9098,1.8615,1.8507,0.0,0.0,0.0,0.0,0.0,0.0,0.0,0.0,0.0,0.0,0.0,0.0,0.0,0.0,0.0,0.0,0.0,0.0,0.0,0.0,0.0,0.0,0.0,0.0,0.0,0.0,0.0,0.0,0.0,0.0,0.0,0.0,0.0,0.0,0.0,0.0,0.0,0.0,0.0,0.0,0.0,0.0,0.0,0.0,0.0,0.0,0.0,0.0,0.0,0.0,0.0,0.0,0.0,0.0,0.0,0.0,0.0,0.0,0.0,0.0,0.0,0.0,0.0,0.0,0.0,0.0,0.0,0.0,0.0,0.0,0.0,0.0,0.0,0.0,0.0,0.0,0.0,0.0,0.0,0.0,0.0,0.0,0.0,0.0,0.0,0.0,0.0,0.0,0.0,0.0,0.0,0.0,0.0,0.0,0.0,0.0,0.0,0.0,0.0,0.0,0.0,0.0,0.0,0.0,0.0,0.0,0.0,0.0,1.9206,1.886,1.8956,1.9125,1.903,1.9124,1.9288,0.0,0.0,0.0,0.0,0.0,0.0,0.0,0.0,0.0,0.0,0.0,0.0,0.0,0.0,0.0,0.0,0.0,0.0,0.0,0.0,0.0,0.0,0.0,0.0,0.0,0.0,0.0,0.0,0.0,0.0,0.0,0.0,0.0,0.0,0.0,0.0,0.0,0.0,0.0,0.0,0.0,0.0,0.0,0.0,0.0,0.0,0.0,0.0,0.0,0.0,0.0,0.0,0.0,0.0,0.0,0.0,0.0,0.0,0.0,0.0,0.0,0.0,0.0,0.0,0.0,0.0,0.0,0.0,0.0,0.0,0.0,0.0,0.0,0.0,0.0,0.0,0.0,0.0,0.0,0.0,0.0,0.0,0.0,0.0,0.0,0.0,0.0,0.0,0.0,0.0,0.0,0.0,0.0,0.0,0.0,0.0,0.0,0.0,0.0,0.0,0.0,0.0,0.0,0.0,0.0,0.0,0.0,0.0,0.0,2.0269,2.0321,2.0437,2.0599,2.0687,2.0666,0.0,0.0,0.0,0.0,0.0,0.0,0.0,0.0,0.0,0.0,0.0,0.0,0.0,0.0,0.0,0.0,0.0,0.0,0.0,0.0,0.0,0.0,0.0,0.0,0.0,0.0,0.0,0.0,0.0,0.0,0.0,0.0,0.0,0.0,0.0,0.0,0.0,0.0,0.0,0.0,0.0,0.0,0.0,0.0,0.0,0.0,0.0,0.0,0.0,0.0,0.0,0.0,0.0,0.0,0.0,0.0,0.0,0.0,0.0,0.0,0.0,0.0,0.0,0.0,0.0,0.0,0.0,0.0,0.0,0.0,0.0,0.0,0.0,0.0,0.0,0.0,0.0,0.0,0.0,0.0,0.0,0.0,0.0,0.0,0.0,0.0,0.0,0.0,0.0,0.0,0.0,0.0,0.0,0.0,0.0,0.0,0.0,0.0,0.0,0.0,0.0,0.0,0.0,0.0,0.0,0.0,0.0,0.0,0.0,2.1548,2.1501,2.1585,2.171,2.1839,2.177,2.152,0.0,0.0,0.0,0.0,0.0,0.0,0.0,0.0,0.0,0.0,0.0,0.0,0.0,0.0,0.0,0.0,0.0,0.0,0.0,0.0,0.0,0.0,0.0,0.0,0.0,0.0,0.0,0.0,0.0,0.0,0.0,0.0,0.0,0.0,0.0,0.0,0.0,0.0,0.0,0.0,0.0,0.0,0.0,0.0,0.0,0.0,0.0,0.0,0.0,0.0,0.0,0.0,0.0,0.0,0.0,0.0,0.0,0.0,0.0,0.0,0.0,0.0,0.0,0.0,0.0,0.0,0.0,0.0,0.0,0.0,0.0,0.0,0.0,0.0,0.0,0.0,0.0,0.0,0.0,0.0,0.0,0.0,0.0,0.0,0.0,0.0,0.0,0.0,0.0,0.0,0.0,0.0,0.0,0.0,0.0,0.0,0.0,0.0,0.0,0.0,0.0,0.0,0.0,0.0,0.0,0.0,0.0,0.0,2.2683,2.2579,2.2532,2.2499,2.2644,2.2709,0.0,0.0,0.0,0.0,0.0,0.0,0.0,0.0,0.0,0.0,0.0,0.0,0.0,0.0,0.0,0.0,0.0,0.0,0.0,0.0,0.0,0.0,0.0,0.0,0.0,0.0,0.0,0.0,0.0,0.0,0.0,0.0,0.0,0.0,0.0,0.0,0.0,0.0,0.0,0.0,0.0,0.0,0.0,0.0,0.0,0.0,0.0,0.0,0.0,0.0,0.0,0.0,0.0,0.0,0.0,0.0,0.0,0.0,0.0,0.0,0.0,0.0,0.0,0.0,0.0,0.0,0.0,0.0,0.0,0.0,0.0,0.0,0.0,0.0,0.0,0.0,0.0,0.0,0.0,0.0,0.0,0.0,0.0,0.0,0.0,0.0,0.0,0.0,0.0,0.0,0.0,0.0,0.0,0.0,0.0,0.0,0.0,0.0,0.0,0.0,0.0,0.0,0.0,0.0,0.0,0.0,0.0,0.0,0.0,2.3325,2.3971,2.4097,2.3593,2.4064,2.3908,0.0,0.0,0.0,0.0,0.0,0.0,0.0,0.0,0.0,0.0,0.0,0.0,0.0,0.0,0.0,0.0,0.0,0.0,0.0,0.0,0.0,0.0,0.0,0.0,0.0,0.0,0.0,0.0,0.0,0.0,0.0,0.0,0.0,0.0,0.0,0.0,0.0,0.0,0.0,0.0,0.0,0.0,0.0,0.0,0.0,0.0,0.0,0.0,0.0,0.0,0.0,0.0,0.0,0.0,0.0,0.0,0.0,0.0,0.0,0.0,0.0,0.0,0.0,0.0,0.0,0.0,0.0,0.0,0.0,0.0,0.0,0.0,0.0,0.0,0.0,0.0,0.0,0.0,0.0,0.0,0.0,0.0,0.0,0.0,0.0,0.0,0.0,0.0,0.0,0.0,0.0,0.0,0.0,0.0,0.0,0.0,0.0,0.0,0.0,0.0,0.0,0.0,0.0,0.0,0.0,0.0,0.0,0.0,2.4356,2.4815,2.5797,2.618,2.5775,2.5426,2.4735,0.0,0.0,0.0,0.0,0.0,0.0,0.0,0.0,0.0,0.0,0.0,0.0,0.0,0.0,0.0,0.0,0.0,0.0,0.0,0.0,0.0,0.0,0.0,0.0,0.0,0.0,0.0,0.0,0.0,0.0,0.0,0.0,0.0,0.0,0.0,0.0,0.0,0.0,0.0,0.0,0.0,0.0,0.0,0.0,0.0,0.0,0.0,0.0,0.0,0.0,0.0,0.0,0.0,0.0,0.0,0.0,0.0,0.0,0.0,0.0,0.0,0.0,0.0,0.0,0.0,0.0,0.0,0.0,0.0,0.0,0.0,0.0,0.0,0.0,0.0,0.0,0.0,0.0,0.0,0.0,0.0,0.0,0.0,0.0,0.0,0.0,0.0,0.0,0.0,0.0,0.0,0.0,0.0,0.0,0.0,0.0,0.0,0.0,0.0,0.0,0.0,0.0,0.0,0.0,0.0,0.0,0.0,0.0,2.6124,2.68,2.7868,2.837,2.8405,2.6675,2.5456,0.0,0.0,0.0,0.0,0.0,0.0,0.0,0.0,0.0,0.0,0.0,0.0,0.0,0.0,0.0,0.0,0.0,0.0,0.0,0.0,0.0,0.0,0.0,0.0,0.0,0.0,0.0,0.0,0.0,0.0,0.0,0.0,0.0,0.0,0.0,0.0,0.0,0.0,0.0,0.0,0.0,0.0,0.0,0.0,0.0,0.0,0.0,0.0,0.0,0.0,0.0,0.0,0.0,0.0,0.0,0.0,0.0,0.0,0.0,0.0,0.0,0.0,0.0,0.0,0.0,0.0,0.0,0.0,0.0,0.0,0.0,0.0,0.0,0.0,0.0,0.0,0.0,0.0,0.0,0.0,0.0,0.0,0.0,0.0,0.0,0.0,0.0,0.0,0.0,0.0,0.0,0.0,0.0,0.0,0.0,0.0,0.0,0.0,0.0,0.0,0.0,0.0,0.0,0.0,0.0,0.0,0.0,0.0,2.7629,2.8294,2.9134,2.9633,2.9922,2.841,2.7079,0.0,0.0,0.0,0.0,0.0,0.0,0.0,0.0,0.0,0.0,0.0,0.0,0.0,0.0,0.0,0.0,0.0,0.0,0.0,0.0,0.0,0.0,0.0,0.0,0.0,0.0,0.0,0.0,0.0,0.0,0.0,0.0,0.0,0.0,0.0,0.0,0.0,0.0,0.0,0.0,0.0,0.0,0.0,0.0,0.0,0.0,0.0,0.0,2.962,0.0,0.0,0.0,0.0,0.0,0.0,0.0,0.0,0.0,0.0,0.0,0.0,0.0,0.0,0.0,0.0,0.0,0.0,0.0,0.0,0.0,0.0,0.0,0.0,0.0,0.0,0.0,0.0,0.0,0.0,0.0,0.0,0.0,0.0,0.0,0.0,0.0,0.0,0.0,0.0,0.0,0.0,0.0,0.0,0.0,0.0,0.0,0.0,0.0,0.0,0.0,0.0,0.0,0.0,0.0,0.0,0.0,0.0,0.0,2.8966,3.0011,3.0609,3.1087,3.142,3.0331,2.8957,0.0,0.0,0.0,0.0,0.0,0.0,0.0,0.0,0.0,0.0,0.0,0.0,0.0,0.0,0.0,0.0,0.0,0.0,0.0,0.0,0.0,0.0,0.0,0.0,0.0,0.0,0.0,0.0,0.0,0.0,0.0,0.0,0.0,0.0,0.0,0.0,0.0,0.0,0.0,0.0,0.0,0.0,0.0,0.0,0.0,0.0,0.0,0.0,0.0,0.0,0.0,0.0,0.0,0.0,0.0,0.0,0.0,0.0,0.0,0.0,0.0,0.0,0.0,0.0,0.0,0.0,0.0,0.0,0.0,0.0,0.0,0.0,0.0,0.0,0.0,0.0,0.0,0.0,0.0,0.0,0.0,0.0,0.0,0.0,0.0,0.0,0.0,0.0,0.0,0.0,0.0,0.0,0.0,0.0,0.0,0.0,0.0,0.0,0.0,0.0,0.0,0.0,0.0,0.0,0.0,0.0,0.0,2.9734,3.0296,3.1644,3.2221,3.2684,3.2997,3.2266,3.0868,2.8831,0.0,0.0,0.0,0.0,0.0,0.0,0.0,0.0,0.0,0.0,0.0,0.0,0.0,0.0,0.0,0.0,0.0,0.0,0.0,0.0,0.0,0.0,0.0,0.0,0.0,0.0,0.0,0.0,0.0,0.0,0.0,0.0,0.0,0.0,0.0,0.0,0.0,0.0,3.1143,3.1567,0.0,0.0,0.0,0.0,0.0,0.0,0.0,0.0,2.9471,0.0,0.0,0.0,0.0,0.0,0.0,0.0,0.0,0.0,0.0,0.0,0.0,0.0,0.0,0.0,0.0,0.0,0.0,0.0,0.0,0.0,0.0,0.0,0.0,0.0,0.0,0.0,0.0,0.0,0.0,0.0,0.0,0.0,0.0,0.0,0.0,0.0,0.0,0.0,0.0,0.0,0.0,0.0,0.0,0.0,0.0,0.0,0.0,0.0,0.0,0.0,0.0,0.0,0.0,0.0,0.0,3.0124,3.1027,3.1949,3.2912,3.3935,3.4493,3.4549,3.3836,3.277,3.1341,0.0,0.0,0.0,0.0,0.0,0.0,0.0,0.0,0.0,0.0,0.0,0.0,0.0,0.0,0.0,0.0,0.0,0.0,0.0,0.0,0.0,0.0,0.0,0.0,0.0,0.0,0.0,0.0,0.0,0.0,0.0,0.0,0.0,0.0,0.0,0.0,0.0,0.0,0.0,3.3322,3.3568,0.0,0.0,0.0,0.0,0.0,0.0,0.0,0.0,3.0321,0.0,0.0,0.0,0.0,0.0,0.0,0.0,0.0,0.0,0.0,0.0,0.0,0.0,0.0,0.0,0.0,0.0,0.0,0.0,0.0,0.0,0.0,0.0,0.0,0.0,0.0,0.0,0.0,0.0,0.0,0.0,0.0,0.0,0.0,0.0,0.0,0.0,0.0,0.0,0.0,0.0,0.0,0.0,0.0,0.0,0.0,0.0,0.0,0.0,0.0,0.0,0.0,0.0,0.0,0.0,3.067,3.1671,3.2681,3.3719,3.4486,3.4981,3.5186,3.4238,3.3143,0.0,0.0,0.0,0.0,0.0,0.0,0.0,0.0,0.0,0.0,0.0,0.0,0.0,0.0,0.0,0.0,0.0,0.0,0.0,0.0,0.0,0.0,0.0,0.0,0.0,0.0,0.0,0.0,0.0,0.0,0.0,0.0,0.0,0.0,0.0,0.0,0.0,0.0,0.0,0.0,3.3635,3.4077,3.3723,0.0,0.0,0.0,0.0,0.0,0.0,3.0656,3.0571,0.0,0.0,0.0,0.0,0.0,0.0,0.0,0.0,0.0,0.0,0.0,0.0,0.0,0.0,0.0,0.0,0.0,0.0,0.0,0.0,0.0,0.0,0.0,0.0,0.0,0.0,0.0,0.0,0.0,0.0,0.0,0.0,0.0,0.0,0.0,0.0,0.0,0.0,0.0,0.0,0.0,0.0,0.0,0.0,0.0,0.0,0.0,0.0,0.0,0.0,0.0,0.0,0.0,0.0,0.0,3.1162,3.1973,3.3001,3.4162,3.4652,3.5045,3.5403,3.4394,3.3217,0.0,0.0,0.0,0.0,0.0,0.0,0.0,0.0,0.0,0.0,0.0,0.0,0.0,0.0,0.0,0.0,0.0,0.0,0.0,0.0,0.0,0.0,0.0,0.0,0.0,0.0,0.0,0.0,0.0,0.0,0.0,0.0,0.0,0.0,0.0,0.0,0.0,0.0,0.0,0.0,0.0,3.4822,3.488,3.4588,0.0,0.0,0.0,0.0,3.1455,3.1746,0.0,0.0,0.0,0.0,0.0,0.0,0.0,0.0,0.0,0.0,0.0,0.0,0.0,0.0,0.0,0.0,0.0,0.0,0.0,0.0,0.0,0.0,0.0,0.0,0.0,0.0,0.0,0.0,0.0,0.0,0.0,0.0,0.0,0.0,0.0,0.0,0.0,0.0,0.0,0.0,0.0,0.0,0.0,0.0,0.0,0.0,0.0,0.0,0.0,0.0,0.0,0.0,0.0,0.0,0.0,0.0,3.1205,3.1937,3.2896,3.4104,3.4532,3.4973,3.5372,3.4573,3.3549,0.0,0.0,0.0,0.0,0.0,0.0,0.0,0.0,0.0,0.0,0.0,0.0,0.0,0.0,0.0,0.0,0.0,0.0,0.0,0.0,0.0,0.0,0.0,0.0,0.0,0.0,0.0,0.0,0.0,0.0,0.0,0.0,0.0,0.0,0.0,0.0,0.0,0.0,0.0,0.0,0.0,3.7036,3.6688,3.6905,3.6533,0.0,0.0,3.5747,3.5244,3.5326,0.0,0.0,0.0,0.0,0.0,0.0,0.0,0.0,0.0,0.0,0.0,0.0,0.0,0.0,0.0,0.0,0.0,0.0,0.0,0.0,0.0,0.0,0.0,0.0,0.0,0.0,0.0,0.0,0.0,0.0,0.0,0.0,0.0,0.0,0.0,0.0,0.0,0.0,0.0,0.0,0.0,0.0,0.0,0.0,0.0,0.0,0.0,0.0,0.0,0.0,0.0,0.0,0.0,0.0,0.0,3.0686,3.1764,3.2332,3.3219,3.4442,3.4641,3.4922,3.5381,3.4585,3.3537,0.0,0.0,0.0,0.0,0.0,0.0,0.0,0.0,0.0,0.0,0.0,0.0,0.0,0.0,0.0,0.0,0.0,0.0,0.0,0.0,0.0,0.0,0.0,0.0,0.0,0.0,0.0,0.0,0.0,0.0,0.0,0.0,0.0,0.0,0.0,0.0,0.0,0.0,0.0,0.0,0.0,0.0,3.8149,3.8233,0.0,0.0,0.0,3.713,3.6497,0.0,0.0,0.0,0.0,0.0,0.0,0.0,0.0,0.0,0.0,0.0,0.0,0.0,0.0,0.0,0.0,0.0,0.0,0.0,0.0,0.0,0.0,0.0,0.0,0.0,0.0,0.0,0.0,0.0,0.0,0.0,0.0,0.0,0.0,0.0,0.0,0.0,0.0,0.0,0.0,0.0,0.0,0.0,0.0,0.0,0.0,0.0,0.0,0.0,0.0,0.0,0.0,0.0,0.0,0.0,0.0,0.0,3.2553,3.2828,3.3618,3.4863,3.4737,3.4903,3.5426,3.4739,0.0,0.0,0.0,0.0,0.0,0.0,0.0,0.0,0.0,0.0,0.0,0.0,0.0,0.0,0.0,0.0,0.0,0.0,0.0,0.0,0.0,0.0,0.0,0.0,0.0,0.0,0.0,3.6808,0.0,0.0,0.0,0.0,0.0,0.0,0.0,0.0,0.0,0.0,0.0,0.0,0.0,0.0,3.8817,3.9084,3.9226,3.9261,0.0,0.0,3.8345,3.7468,3.7327,3.6632,0.0,0.0,0.0,0.0,0.0,0.0,0.0,0.0,0.0,0.0,0.0,0.0,0.0,0.0,0.0,0.0,0.0,0.0,0.0,0.0,0.0,0.0,0.0,0.0,0.0,0.0,0.0,0.0,0.0,0.0,0.0,0.0,0.0,0.0,0.0,0.0,0.0,0.0,0.0,0.0,0.0,0.0,0.0,0.0,0.0,0.0,0.0,0.0,0.0,0.0,0.0,0.0,0.0,0.0,3.2841,3.3454,3.3465,3.4085,3.5374,3.4872,3.4882,3.5476,3.5181,3.4737,0.0,0.0,0.0,0.0,0.0,0.0,0.0,0.0,0.0,0.0,0.0,0.0,0.0,0.0,0.0,0.0,0.0,0.0,0.0,0.0,0.0,0.0,0.0,0.0,0.0,0.0,0.0,0.0,0.0,0.0,0.0,0.0,0.0,0.0,0.0,0.0,0.0,0.0,0.0,0.0,0.0,3.8747,3.9234,4.0071,4.0518,0.0,4.0102,3.9812,3.8825,3.954,3.9422,3.7027,0.0,0.0,0.0,0.0,0.0,0.0,0.0,0.0,0.0,0.0,0.0,0.0,0.0,0.0,0.0,0.0,0.0,0.0,0.0,0.0,0.0,0.0,0.0,0.0,0.0,0.0,0.0,0.0,0.0,0.0,0.0,0.0,0.0,0.0,0.0,0.0,0.0,0.0,0.0,0.0,0.0,0.0,0.0,0.0,0.0,0.0,0.0,0.0,0.0,0.0,0.0,0.0,0.0,3.3649,3.4435,3.4397,3.5056,3.63,3.5925,3.5905,3.6436,3.6112,3.5674,0.0,0.0,0.0,0.0,0.0,0.0,0.0,0.0,0.0,0.0,0.0,0.0,0.0,0.0,0.0,0.0,0.0,0.0,0.0,0.0,0.0,0.0,0.0,0.0,0.0,0.0,0.0,0.0,3.7572,3.7667,3.7655,0.0,0.0,0.0,0.0,0.0,0.0,0.0,0.0,0.0,0.0,3.9841,4.0458,4.0863,0.0,0.0,4.1239,4.0959,4.0559,4.0407,3.9666,3.7947,3.7267,0.0,0.0,0.0,0.0,0.0,0.0,0.0,0.0,0.0,0.0,0.0,0.0,0.0,0.0,0.0,0.0,0.0,0.0,0.0,0.0,0.0,0.0,0.0,0.0,0.0,0.0,0.0,0.0,0.0,0.0,0.0,0.0,0.0,0.0,0.0,0.0,0.0,0.0,0.0,0.0,0.0,0.0,0.0,0.0,0.0,0.0,0.0,0.0,0.0,0.0,0.0,0.0,3.4836,3.5667,3.5678,3.6237,3.7494,3.722,3.722,3.7515,3.7281,3.7028,0.0,0.0,0.0,0.0,0.0,0.0,0.0,0.0,0.0,0.0,0.0,0.0,0.0,0.0,0.0,0.0,0.0,0.0,0.0,0.0,0.0,0.0,0.0,0.0,0.0,0.0,0.0,0.0,3.7986,3.8092,3.8027,0.0,0.0,0.0,0.0,0.0,0.0,0.0,0.0,0.0,0.0,4.0212,4.0888,4.1084,4.1373,4.1858,4.165,4.1372,4.1222,4.0713,3.9877,3.8606,0.0,0.0,0.0,0.0,0.0,0.0,0.0,0.0,0.0,0.0,0.0,0.0,0.0,0.0,0.0,0.0,0.0,0.0,0.0,0.0,0.0,0.0,0.0,0.0,0.0,0.0,0.0,3.681,0.0,0.0,3.7458,0.0,0.0,0.0,0.0,0.0,0.0,0.0,0.0,0.0,0.0,0.0,0.0,0.0,0.0,0.0,0.0,0.0,0.0,0.0,0.0,0.0,0.0,3.6571,3.7235,3.7155,3.7653,3.873,3.8591,3.853,3.8738,3.8904,3.8844,3.8718,0.0,0.0,0.0,0.0,0.0,0.0,0.0,0.0,0.0,0.0,0.0,0.0,0.0,0.0,0.0,0.0,0.0,0.0,0.0,0.0,0.0,0.0,0.0,0.0,0.0,0.0,3.8356,3.8356,3.8303,0.0,0.0,0.0,0.0,0.0,0.0,0.0,0.0,0.0,0.0,3.8836,3.9694,4.0211,4.0693,4.1046,4.1104,4.1093,4.081,4.0352,4.0646,4.0528,0.0,0.0,0.0,0.0,0.0,0.0,0.0,0.0,0.0,0.0,0.0,0.0,0.0,0.0,0.0,0.0,0.0,0.0,0.0,0.0,0.0,0.0,0.0,0.0,0.0,0.0,0.0,3.9708,3.92,0.0,0.0,0.0,0.0,0.0,0.0,0.0,0.0,0.0,0.0,0.0,4.0715,4.0178,0.0,0.0,0.0,0.0,0.0,0.0,0.0,0.0,0.0,0.0,0.0,0.0,3.7134,3.7676,3.8036,3.8547,3.9175,3.9498,3.9682,3.9697,3.9789,3.965,3.9291,0.0,0.0,0.0,0.0,0.0,0.0,0.0,0.0,0.0,0.0,0.0,0.0,0.0,0.0,0.0,0.0,0.0,0.0,0.0,0.0,0.0,0.0,0.0,0.0,0.0,3.8684,0.0,0.0,0.0,0.0,0.0,0.0,0.0,0.0,0.0,0.0,0.0,3.7923,3.8406,3.8788,3.9399,4.0371,4.0691,4.0987,0.0,0.0,0.0,0.0,0.0,0.0,0.0,0.0,0.0,0.0,0.0,0.0,0.0,0.0,3.8735,3.7679,3.7098,3.6543,3.6039,0.0,0.0,0.0,0.0,0.0,0.0,0.0,0.0,0.0,0.0,0.0,0.0,0.0,0.0,4.1237,0.0,4.0115,0.0,0.0,0.0,0.0,0.0,0.0,0.0,0.0,4.0648,4.0771,4.1274,4.0776,4.0493,0.0,3.9935,3.9332,0.0,0.0,0.0,0.0,0.0,0.0,0.0,0.0,3.7822,3.8321,3.8635,3.9089,3.972,4.019,4.0509,4.0675,4.0803,4.066,4.0269,3.9678,3.9129,0.0,0.0,0.0,0.0,0.0,0.0,0.0,0.0,0.0,0.0,0.0,0.0,0.0,0.0,0.0,0.0,0.0,0.0,0.0,0.0,0.0,0.0,0.0,3.9258,0.0,0.0,0.0,0.0,0.0,0.0,0.0,0.0,0.0,3.8908,3.8856,3.9041,3.9554,3.9479,3.9727,4.072,0.0,0.0,0.0,0.0,0.0,0.0,0.0,4.0809,4.0043,3.9783,3.9476,3.8821,3.9259,3.9625,3.9208,0.0,0.0,3.8528,3.7953,3.7619,3.7349,3.7155,3.686,3.633,3.615,3.586,0.0,0.0,0.0,0.0,0.0,0.0,0.0,0.0,4.2098,4.1803,0.0,4.0734,0.0,0.0,0.0,0.0,0.0,3.9549,0.0,0.0,4.0572,4.0801,4.1256,4.0806,4.0548,4.0523,4.0084,3.9837,3.9759,3.9176,0.0,0.0,0.0,0.0,0.0,0.0,3.8664,3.9162,3.8966,3.9308,4.0339,4.0692,4.1071,4.1582,4.1915,4.1915,4.1615,4.0875,4.0312,3.9989,3.9206,0.0,0.0,0.0,0.0,0.0,0.0,0.0,0.0,0.0,0.0,0.0,0.0,0.0,0.0,0.0,0.0,0.0,0.0,0.0,0.0,3.9943,0.0,0.0,0.0,0.0,0.0,0.0,0.0,0.0,0.0,0.0,3.9905,4.0109,4.0606,4.1093,0.0,0.0,0.0,0.0,4.0526,4.0867,4.0872,4.0966,4.1215,4.1254,4.1127,4.0769,0.0,0.0,3.8936,3.961,4.007,3.96,3.961,3.9498,3.937,3.9117,3.8908,3.8643,3.8194,3.7884,3.7781,3.7451,3.7179,4.2494,0.0,0.0,0.0,0.0,4.2098,4.2098,4.2098,4.2098,4.1791,4.1262,4.0734,0.0,0.0,0.0,0.0,0.0,0.0,4.1107,4.106,4.1072,4.1255,4.1597,4.1808,4.2038,4.2211,4.2048,4.1673,4.1091,4.0542,3.975,3.8841,0.0,0.0,0.0,0.0,3.8757,3.8916,3.9255,3.9543,3.9782,4.0716,4.1433,4.196,4.2041,4.2041,4.1972,4.101,4.0488,4.0354,3.939,0.0,0.0,0.0,0.0,0.0,0.0,0.0,0.0,0.0,0.0,0.0,0.0,0.0,0.0,0.0,0.0,0.0,0.0,0.0,4.1282,4.1382,4.1445,0.0,0.0,0.0,0.0,0.0,0.0,0.0,0.0,0.0,4.1927,4.1332,4.1034,0.0,0.0,4.0863,4.1387,4.1203,4.1269,4.2175,4.1968,0.0,4.237,4.1879,4.1447,4.1332,4.1097,4.0781,4.0511,4.0739,4.0779,4.0405,4.0554,4.0544,4.0048,3.965,3.9346,3.9253,3.8941,3.8549,3.8225,3.7918,3.7645,4.3474,4.3085,4.265,4.2425,4.2425,4.2437,4.2494,4.2469,4.2568,4.2379,4.2082,4.1638,4.1265,4.0922,4.0861,0.0,0.0,0.0,4.206,4.1941,4.216,4.2328,4.2526,4.284,4.3036,4.3217,4.3022,4.2642,4.2185,4.1596,4.0908,4.0045,0.0,0.0,3.9166,3.905,3.8998,3.901,3.9213,3.9378,3.9599,4.0609,4.1348,4.1781,4.1991,4.2047,4.1922,4.1205,4.076,4.0627,3.9696,3.9166,0.0,0.0,0.0,0.0,0.0,0.0,0.0,0.0,0.0,0.0,0.0,3.9827,3.9659,0.0,0.0,0.0,4.1395,4.1904,4.2563,4.2431,0.0,0.0,0.0,0.0,0.0,0.0,0.0,4.2916,4.3218,4.3423,4.3423,4.2867,4.2355,4.2159,4.1815,4.17,4.2005,0.0,4.2151,4.2955,4.2943,4.2965,4.3322,4.2868,4.2488,4.2488,4.2331,4.2219,4.2231,4.2219,4.2061,4.1561,4.1561,4.1504,4.0757,4.0334,4.0075,3.9845,3.9591,3.9359,3.9079,3.8804,3.8516,4.4645,4.4524,4.35,4.3126,4.3121,4.3083,4.3058,4.3076,4.3226,4.329,4.3267,4.3041,4.2944,4.2905,4.2404,0.0,4.2248,4.2805,4.3045,4.2971,4.3453,4.3666,4.3677,4.3715,4.3728,4.3752,4.3282,4.3078,4.2938,4.2453,4.2124,4.1976,4.0618,3.9878,3.989,3.9633,3.9465,3.9465,3.9154,3.9269,3.9787,4.0509,4.101,4.1354,4.1886,4.2028,4.1728,4.1447,4.1159,4.0906,4.021,3.98,3.9788,0.0,0.0,0.0,0.0,0.0,0.0,0.0,0.0,0.0,0.0,0.0,0.0,0.0,0.0,0.0,4.2577,0.0,4.3648,4.3266,0.0,0.0,0.0,4.2514,4.3266,4.3314,4.3614,4.435,0.0,0.0,4.4425,4.4425,4.4223,4.3757,4.3218,4.2895,4.2881,4.3031,4.3232,4.3499,4.3808,4.4123,4.439,4.4126,4.3852,4.3797,4.3865,4.381,4.3742,4.3665,4.336,4.2582,4.2469,4.2183,4.1371,4.1229,4.104,4.0485,4.0315,4.0199,4.0164,3.9931,3.9628,4.3925,4.3925,4.386,4.4006,4.4176,4.3743,4.3546,4.3546,4.3558,4.3359,4.3026,4.3088,4.3241,4.3463,4.3513,4.3649,4.3822,4.4196,4.401,4.3453,4.3539,4.3512,4.3324,4.3726,4.4028,4.4254,4.4447,4.4297,4.376,4.3608,4.3108,4.2319,4.1927,4.1631,4.1445,4.1058,4.082,4.0807,4.0756,4.0989,4.1479,4.1139,4.1208,4.1904,4.2044,4.2055,4.2001,4.1573,4.1281,4.1215,4.0618,4.0389,4.0643,4.0782,0.0,0.0,0.0,0.0,0.0,0.0,0.0,0.0,0.0,4.2075,4.1792,0.0,4.2687,0.0,4.3566,4.4162,4.4504,4.4383,0.0,0.0,4.4448,4.4448,4.4648,4.4537,4.4504,4.469,4.4504,4.4425,4.4425,4.4425,4.435,4.4209,4.3926,4.3689,4.3703,4.4008,4.4417,4.4857,4.5023,4.5281,4.5687,4.5275,4.4711,4.4481,4.4427,4.4331,4.4126,4.371,4.3264,4.2885,4.2446,4.2043,4.1839,4.1789,4.176,4.1568,4.1023,4.0607,4.0595,4.0351,4.0071,4.4838,4.4811,4.4936,4.5117,4.5207,4.4371,4.3988,4.4026,4.4124,4.4027,4.375,4.3952,4.4118,4.4296,4.4415,4.4592,4.4719,4.4872,4.4671,4.4262,4.4262,4.419,4.4059,4.4355,4.4555,4.4741,4.4972,4.4879,4.4509,4.4494,4.4214,4.3634,4.362,4.3525,4.3321,4.2235,4.1594,4.1594,4.1594,4.1716,4.1881,4.1502,4.1415,4.1725,4.197,4.206,4.1955,4.1659,4.1492,4.1479,4.0939,4.0795,4.1071,4.1421,4.1571,0.0,0.0,0.0,0.0,0.0,0.0,0.0,0.0,0.0,0.0,0.0,4.3885,4.4026,4.4476,4.4769,4.4922,4.4908,4.4954,4.5064,4.5124,4.5124,4.5124,4.5,4.4908,4.4922,4.4815,4.4723,4.4723,4.4723,4.4723,4.4723,4.4583,4.4397,4.4307,4.4821,4.54,4.5435,4.6017,4.6538,4.6766,4.6414,4.6019,4.5861,4.5794,4.5741,4.5582,4.5062,4.4506,4.3927,4.3337,4.284,4.2651,4.2609,4.262,4.2684,4.2441,4.1857,4.1246,4.0856,4.0595,4.6047,4.6053,4.6021,4.6028,4.5977,4.4989,4.4539,4.4498,4.4754,4.4869,4.4889,4.5075,4.517,4.5216,4.523,4.523,4.5216,4.5216,4.5216,4.5216,4.5216,4.5173,4.5101,4.5187,4.5173,4.5101,4.5173,4.5216,4.523,4.523,4.517,4.517,4.5124,4.5124,4.5018,4.33,4.2368,4.2319,4.2235,4.2088,4.198,4.1881,4.1733,4.1498,4.1907,4.2017,4.1774,4.1774,4.1723,4.1761,4.1294,4.1185,4.1421,4.2115,4.2324,0.0,4.2547,0.0,0.0,0.0,0.0,0.0,0.0,0.0,0.0,4.4541,4.5124,4.5124,4.5124,4.5124,4.5124,4.5184,4.517,4.5216,4.523,4.5216,4.523,4.517,4.517,4.517,4.5124,4.5124,4.5078,4.5124,4.5124,4.5078,4.5146,4.5078,4.4823,4.5616,4.618,4.5639,4.6811,4.7541,4.7442,4.7405,4.7339,4.7353,4.7288,4.7405,4.7236,4.6739,4.616,4.5335,4.4619,4.4097,4.3664,4.361,4.3661,4.3971,4.3994,4.3521,4.2304,4.1756,4.1372,4.5295,4.5328,4.5505,4.5599,4.5614,4.5608,4.5374,4.4973,4.5014,4.5157,4.5387,4.541,4.5549,4.5745,4.573,4.5745,4.5745,4.5745,4.5745,4.573,4.5745,4.5456,4.4992,4.5484,4.5456,4.4992,4.547,4.5745,4.5745,4.5745,4.5654,4.5444,4.5413,4.5307,4.5078,0.0,0.0,0.0,4.3286,4.3191,4.3505,4.2902,4.2493,4.2302,4.236,0.0,4.204,4.204,4.204,4.204,4.1934,0.0,0.0,0.0,0.0,0.0,0.0,0.0,0.0,0.0,0.0,0.0,4.4569,4.4769,4.4597,4.4908,4.5124,4.5124,4.5124,4.5184,4.5413,4.5398,4.5504,4.5745,4.573,4.5745,4.573,4.5549,4.5413,4.5413,4.5216,4.5124,4.5124,4.5124,4.5124,4.5138,4.5581,4.5848,4.5783,4.6424,4.6946,4.7178,4.7672,4.799,4.7967,4.7967,4.7917,4.7967,4.7981,4.7866,4.7657,4.7132,4.6628,4.6146,4.5665,4.5202,4.5116,4.5103,4.506,4.5165,4.5156,4.4835,4.3682,4.3369,4.3131,4.5504,0.0,4.5654,4.57,0.0,4.5835,4.573,4.5518,4.5504,4.5564,4.5685,4.5685,4.579,4.588,4.588,4.588,4.588,4.6001,4.6046,4.6031,4.5829,4.5756,4.5713,4.5405,4.5259,4.5259,4.5142,4.5288,4.552,4.5446,4.5502,4.5685,4.57,4.5654,4.5504,4.5504,4.5261,4.4741,4.434,4.4214,4.4383,4.3899,4.3485,4.3259,4.3115,0.0,0.0,0.0,0.0,0.0,0.0,0.0,0.0,0.0,0.0,4.3437,4.3293,4.3389,4.377,4.3912,4.4148,4.4551,4.5046,4.5321,4.5336,4.5427,4.5518,4.5504,4.5504,4.5549,4.57,4.57,4.5759,4.588,4.588,4.588,4.588,4.579,4.57,4.5685,4.5609,4.5504,4.5518,4.5504,4.5504,4.5533,4.6065,4.6598,4.6882,4.7272,4.7646,4.8147,4.807,4.8169,4.8438,4.8523,4.8473,4.8523,4.8509,4.8459,4.8308,4.7786,4.7313,4.7037,4.6511,4.6126,4.615,4.6106,4.6204,4.633,4.6413,4.6246,4.5595,4.4943,4.4276,4.5956,4.597,4.6001,4.603,4.6001,4.6015,4.603,4.6015,0.0,0.0,0.0,4.6015,4.603,4.603,4.6015,4.6015,4.6015,4.618,4.6254,4.624,4.5918,4.6019,4.6359,4.5297,4.4989,4.5372,4.4686,4.4673,4.5244,4.5128,4.536,4.5972,4.603,4.603,4.6015,4.6015,4.5835,4.5398,4.5261,4.5138,4.4922,4.469,4.4397,4.4082,4.3865,4.3614,4.3355,4.3355,4.3369,4.3355,4.3355,4.3437,4.36,4.3648,4.3709,4.3757,4.3804,4.396,4.4162,4.4411,4.4644,4.4876,4.5381,4.573,4.5925,4.597,4.597,4.6015,4.6015,4.6015,4.6015,4.6015,4.6015,4.603,4.603,4.6015,4.6015,4.6015,4.6015,4.6015,4.6015,4.603,4.603,4.6015,4.6088,4.6203,4.6756,4.7396,4.8079,4.8293,4.8393,4.8808,4.8552,4.8381,4.8802,4.8959,4.9009,4.9058,4.9009,4.8959,4.8873,4.853,4.8117,4.7886,4.7389,4.7179,4.7149,4.7197,4.7279,4.7513,4.761,4.761,4.7517,4.6668,4.5703,4.6165,4.618,4.6403,4.6521,4.6506,4.6506,4.6506,4.6462,4.6269,4.6269,4.6506,4.6521,4.6506,4.6521,4.6506,4.6506,4.6506,4.655,4.655,4.655,4.6447,4.6196,4.5725,4.5563,4.5181,4.4781,4.4606,4.4873,4.5476,4.5535,4.5815,4.6432,4.6506,4.6506,4.6506,4.6506,4.6462,4.6358,4.597,4.564,4.5413,4.5367,4.5,4.4364,4.4317,4.4068,4.3553,4.3566,4.3566,4.3566,4.3553,4.3553,4.36,4.3818,4.4021,4.4256,4.4518,4.4723,4.494,4.4986,4.5124,4.5413,4.5821,4.6135,4.618,4.618,4.6269,4.6462,4.6462,4.6506,4.6506,4.6506,4.6462,4.6462,4.6506,4.6506,4.6462,4.6462,4.6462,4.6462,4.6506,4.6506,4.6462,4.6491,4.6622,4.7045,4.7677,4.8652,4.9556,4.9558,4.9205,4.9178,4.9001,4.8923,4.9242,4.9256,4.934,4.9522,4.9404,4.932,4.9305,4.9042,4.8794,4.8688,4.8581,4.8496,4.8525,4.8617,4.8532,4.8559,4.8545,4.8595,4.8595,4.8368,4.7771,4.6403,4.6403,4.655,4.6594,4.6594,4.6594,4.6668,4.6726,4.6255,4.6285,4.658,4.6594,4.6594,4.6594,4.6594,4.6594,4.6594,4.6727,4.6756,4.6726,4.6546,4.6306,4.5906,4.5238,4.4718,4.4421,4.3968,4.4255,4.5187,4.5134,4.5592,4.6521,4.6594,4.6594,4.6594,4.6594,4.6594,4.6594,4.6373,4.6135,4.5911,4.579,4.5473,4.5,4.4847,4.4662,4.4415,4.4415,4.4401,4.4415,4.4415,4.4401,4.4415,4.4523,4.4676,4.4769,4.4908,4.5032,4.5307,4.5535,4.5806,4.6046,4.6269,4.6447,4.6565,4.6491,4.6447,4.6594,4.6594,4.6594,4.6594,4.6594,4.6594,4.6594,4.6594,4.6594,4.6594,4.6594,4.6594,4.6594,4.6594,4.6594,4.6594,4.6904,4.7199,4.7476,4.8332,4.941,5.0353,5.0212,4.9956,4.9956,4.9858,4.9795,4.9892,4.9956,4.999,5.0149,5.0053,4.9956,4.9956,4.9761,4.9502,4.9326,4.9242,4.9058,4.8945,4.8895,4.8945,4.9108,4.9093,4.9143,4.9291,4.934,4.8767,4.6683,4.6683,4.6727,4.6727,4.6771,4.6771,4.6844,4.693,4.6513,4.6457,4.6726,4.6623,4.6637,4.6756,4.6771,4.6785,4.6771,4.6931,4.6975,4.6959,4.6685,4.6546,4.6396,4.517,4.4541,4.4411,4.3692,4.3909,4.495,4.4978,4.5602,4.6652,4.6771,4.6771,4.6771,4.6771,4.6771,4.6785,4.6771,4.6594,4.6314,4.6046,4.5835,4.5595,4.5307,4.5184,4.5124,4.5124,4.5124,4.5124,4.5124,4.5124,4.5124,4.517,4.517,4.5216,4.5261,4.547,4.5828,4.625,4.6682,4.7022,4.7111,4.72,4.7318,4.7288,4.7067,4.6845,4.6771,4.6771,4.6771,4.6771,4.6785,4.6771,4.6785,4.6845,4.6963,4.6993,4.7067,4.7155,4.7215,4.7244,4.7289,4.7644,4.8073,4.8354,4.9136,4.9991,5.0526,5.0629,5.0629,5.0629,5.0596,5.0486,5.0534,5.0534,5.0567,5.0644,5.0581,5.0519,5.0486,5.0327,5.0135,4.9878,4.9746,4.9551,4.9355,4.9305,4.9404,4.96,4.96,4.9649,4.9746,4.9781,4.9459,4.6887,4.6931,4.7135,4.7266,4.7207,4.7207,4.7222,4.7236,4.7176,4.7191,4.7163,4.658,4.6685,4.7178,4.7222,4.7222,4.7222,4.7251,4.7266,4.7266,4.7249,4.7219,4.704,4.5813,4.52,4.5095,4.4456,4.453,4.5323,4.5863,4.6506,4.7133,4.7266,4.7207,4.7222,4.7222,4.7222,4.7222,4.7222,4.7033,4.6594,4.6314,4.609,4.588,4.5595,4.5353,4.5155,4.5124,4.5124,4.5124,4.5124,4.5124,4.5138,4.5367,4.5458,4.5533,4.5729,4.6172,4.6954,4.7329,4.77,4.8366,4.8548,4.8624,4.867,4.8895,4.8506,4.7596,4.7267,4.7327,4.7266,4.7282,4.7313,4.7358,4.7357,4.7446,4.7984,4.8148,4.8372,4.8985,4.8835,4.903,4.885,4.8985,4.9298,4.9714,5.0171,5.0659,5.0996,5.1026,5.1041,5.1041,5.0819,5.0614,5.0728,5.0775,5.087,5.1026,5.0917,5.0822,5.0742,5.0614,5.0438,5.0375,5.0357,5.0246,5.026,5.0357,5.0294,5.0231,5.0294,5.0342,5.0135,5.0135,4.9863,4.7164,4.7164,4.7251,4.7309,4.7309,4.7309,4.7309,4.7279,4.689,4.6935,4.7204,4.6563,4.6696,4.7294,4.7309,4.7309,4.7309,4.7309,4.7309,4.7309,4.7309,4.7115,4.6651,4.5768,4.5289,4.5229,4.4631,4.487,4.5858,4.6576,4.704,4.7279,4.7309,4.7309,4.7309,4.7309,4.7309,4.7309,4.7309,4.7222,4.699,4.6756,4.6535,4.6328,4.6046,4.5866,4.5761,4.564,4.5595,4.5595,4.5549,4.5813,4.6297,4.6463,4.6789,4.7261,4.7426,4.7711,4.8174,4.8295,4.8564,4.8968,4.9073,4.9119,4.9119,4.9254,4.906,4.864,4.852,4.8506,4.8446,4.8461,4.8461,4.8476,4.8461,4.8566,4.885,4.891,4.9045,4.9269,4.9299,4.9314,4.9359,4.9598,5.0092,5.0629,5.0939,5.1105,5.1182,5.1229,5.1229,5.1182,5.1041,5.0947,5.1026,5.1058,5.1105,5.1167,5.112,5.1026,5.1026,5.0822,5.0695,5.0695,5.0629,5.0548,5.0453,5.0501,5.0548,5.0629,5.0852,5.0852,5.0742,5.0742,5.0647,4.7309,4.7309,4.7309,4.7309,4.7309,4.7309,4.7309,4.7249,4.68,4.686,4.7234,4.68,4.6845,4.7264,4.7309,4.7309,4.7309,4.7309,4.7309,4.7309,4.7309,4.7055,4.6546,4.5903,4.5574,4.5499,4.5125,4.5484,4.6531,4.704,4.7309,4.7309,4.7309,4.7309,4.7309,4.7309,4.7309,4.7309,4.7309,4.7309,4.7266,4.7121,4.6887,4.6683,4.6432,4.6314,4.6314,4.6135,4.606,4.6105,4.6105,4.6442,4.7268,4.7312,4.7696,4.8483,4.8663,4.8829,4.9129,4.9236,4.9416,4.9778,4.9808,4.9793,4.9793,4.9793,4.9793,4.9853,4.9884,4.9854,4.9329,4.9299,4.9299,4.9299,4.9299,4.9359,4.9494,4.9523,4.9613,4.9763,4.9927,4.9838,4.9959,5.0364,5.0783,5.1173,5.1246,5.1229,5.1229,5.1229,5.1229,5.1229,5.1214,5.1182,5.1229,5.1167,5.1229,5.1229,5.1182,5.1182,5.1229,5.1026,5.0917,5.0899,5.0772,5.0724,5.0819,5.0772,5.0724,5.0885,5.1073,5.112,5.0979,5.1073,5.0917,4.7309,4.7309,4.7309,4.7309,4.7309,4.7309,4.7309,4.7309,4.7249,4.7279,4.7309,4.7249,4.7264,4.7309,4.7309,4.7309,4.7309,4.7309,4.7309,4.7309,4.7309,4.7279,4.7219,4.6563,4.6234,4.6262,4.6085,4.6471,4.7189,4.7294,4.7309,4.7309,4.7309,4.7309,4.7309,4.7309,4.7309,4.7309,4.7309,4.7309,4.7309,4.7309,4.7164,4.6873,4.6683,4.6594,4.6594,4.655,4.655,4.6565,4.655,4.6845,4.7479,4.7642,4.7996,4.8588,4.883,4.9203,4.9784,5.0012,5.0375,5.0945,5.0975,5.1079,5.0991,5.0991,5.1038,5.1094,5.1239,5.0817,4.9749,4.9644,4.9524,4.9494,4.9404,4.9689,5.0152,5.0243,5.0496,5.0885,5.1006,5.1039,5.1345,5.1512,5.145,5.1479,5.1354,5.1229,5.1229,5.1229,5.1229,5.1229,5.1229,5.1229,5.1229,5.1229,5.1229,5.1229,5.1229,5.1229,5.1229,5.1182,5.1167,5.1167,5.1088,5.1088,5.1182,5.1182,5.1135,5.1167,5.112,5.1167,5.1073,5.0917,5.0728,4.7309,4.7309,4.7309,4.7309,4.7309,4.7309,4.7309,4.7309,4.7309,4.7309,4.7309,4.7309,4.7309,4.7309,4.7309,4.7309,4.7309,4.7309,4.7309,4.7309,4.7309,4.7309,4.7234,4.6636,4.6533,4.686,4.6516,4.6666,4.7249,4.7309,4.7309,4.7309,4.7309,4.7309,4.7309,4.7309,4.7309,4.7309,4.7309,4.7309,4.7309,4.7309,4.7266,4.7149,4.6946,4.68,4.6785,4.6668,4.6594,4.6594,4.6594,4.6978,4.7762,4.8759,4.9548,5.019,5.0326,5.0476,5.0685,5.0777,5.096,5.1184,5.1354,5.1448,5.1509,5.1602,5.1695,5.1741,5.1803,5.15,5.1212,5.1046,5.1046,5.1031,5.1031,5.1031,5.1272,5.1348,5.1453,5.165,5.171,5.1756,5.1787,5.1695,5.1587,5.1587,5.1354,5.1214,5.1229,5.1229,5.1229,5.1229,5.1229,5.1229,5.1229,5.1229,5.1229,5.1229,5.1229,5.1229,5.1229,5.1229,5.1182,5.1182,5.1229,5.1229,5.1182,5.1182,5.1229,5.1229,5.1229,5.112,5.1073,5.087,5.0647,4.7309,4.7309,4.7309,4.7309,4.7309,4.7309,4.7309,4.7309,4.7309,4.7309,4.7309,4.7309,4.7309,4.7309,4.7309,4.7309,4.7309,4.7309,4.7309,4.7309,4.7309,4.7309,4.7234,4.686,4.6875,4.7174,4.6875,4.6875,4.7249,4.7309,4.7309,4.7309,4.7309,4.7309,4.7309,4.7309,4.7309,4.7309,4.7309,4.7309,4.7309,4.7309,4.7309,4.7251,4.7106,4.7019,4.7019,4.6902,4.6815,4.6815,4.6815,4.7288,4.8358,4.9746,5.0704,5.1154,5.1214,5.1261,5.1308,5.1308,5.1354,5.1463,5.1602,5.1741,5.1726,5.188,5.1987,5.1987,5.2063,5.2109,5.2124,5.2155,5.2185,5.2048,5.1987,5.1987,5.1987,5.1987,5.1972,5.1987,5.2033,5.2078,5.2078,5.188,5.1787,5.1726,5.1448,5.1229,5.1229,5.1229,5.1229,5.1229,5.1229,5.1229,5.1229,5.1229,5.1229,5.1229,5.1229,5.1229,5.1229,5.1229,5.1229,5.1229,5.1229,5.1229,5.1229,5.1229,5.1229,5.1229,5.1073,5.0964,5.0917,5.0822,5.06,4.7309,4.7309,4.7309,4.7309,4.7309,4.7309,4.7309,4.7309,4.7309,4.7309,4.7309,4.7309,4.7309,4.7309,4.7309,4.7309,4.7309,4.7309,4.7309,4.7309,4.7309,4.7309,4.7294,4.7234,4.7219,4.7309,4.7294,4.7279,4.7309,4.7309,4.7309,4.7309,4.7309,4.7309,4.7309,4.7309,4.7309,4.7309,4.7309,4.7309,4.7309,4.7309,4.7309,4.7309,4.7266,4.7266,4.7266,4.7266,4.7266,4.7266,4.7311,4.7952,4.9209,5.0437,5.1201,5.1246,5.1276,5.1354,5.1587,5.1587,5.1695,5.1895,5.2002,5.1987,5.1972,5.2033,5.2078,5.2124,5.22,5.2306,5.2367,5.2518,5.2488,5.2078,5.2078,5.2078,5.2078,5.2033,5.2033,5.2078,5.2185,5.2306,5.2261,5.2094,5.1987,5.1895,5.1556,5.1229,5.1229,5.1229,5.1229,5.1229,5.1229,5.1229,5.1229,5.1229,5.1229,5.1229,5.1229,5.1229,5.1229,5.1229,5.1229,5.1229,5.1229,5.1229,5.1229,5.1229,5.1229,5.1167,5.1011,5.0902,5.0917,5.0837,5.0519,4.7309,4.7309,4.7309,4.7309,4.7309,4.7309,4.7309,4.7309,4.7309,4.7309,4.7309,4.7309,4.7309,4.7309,4.7309,4.7309,4.7309,4.7309,4.7309,4.7309,4.7309,4.7309,4.7309,4.7309,4.7309,4.7309,4.7309,4.7309,4.7309,4.7309,4.7309,4.7309,4.7309,4.7309,4.7309,4.7309,4.7309,4.7309,4.7309,4.7309,4.7309,4.7309,4.7309,4.7309,4.7309,4.7309,4.7309,4.7309,4.7309,4.7309,4.7743,4.8655,4.996,5.0744,5.1288,5.1696,5.1756,5.1803,5.1849,5.188,5.1895,5.2033,5.2155,5.2185,5.2215,5.2397,5.2443,5.2488,5.2533,5.2563,5.2608,5.2669,5.2624,5.2488,5.2488,5.2443,5.2443,5.2458,5.2488,5.2473,5.2518,5.2563,5.2518,5.2337,5.2109,5.2002,5.1695,5.1401,5.1261,5.1229,5.1229,5.1229,5.1229,5.1229,5.1229,5.1229,5.1229,5.1229,5.1229,5.1229,5.1229,5.1229,5.1229,5.1229,5.1229,5.1229,5.1229,5.1229,5.1229,5.1167,5.1105,5.1058,5.1011,5.079,5.0486,4.7309,4.7309,4.7309,4.7309,4.7309,4.7309,4.7309,4.7309,4.7309,4.7309,4.7309,4.7309,4.7309,4.7309,4.7309,4.7309,4.7309,4.7309,4.7309,4.7309,4.7309,4.7309,4.7309,4.7309,4.7309,4.7309,4.7309,4.7309,4.7309,4.7309,4.7309,4.7309,4.7309,4.7309,4.7309,4.7309,4.7309,4.7309,4.7309,4.7309,4.7309,4.7309,4.7309,4.7309,4.7309,4.7337,4.7381,4.7424,4.7424,4.7604,4.8367,4.9523,5.0638,5.1137,5.1562,5.188,5.1987,5.2033,5.2109,5.2109,5.2155,5.2246,5.2382,5.2457,5.2442,5.2608,5.2713,5.2713,5.2713,5.2713,5.2713,5.2713,5.2713,5.2713,5.2669,5.2713,5.2713,5.2713,5.2713,5.2669,5.2669,5.2713,5.2669,5.2382,5.2139,5.1987,5.1695,5.1401,5.1261,5.1229,5.1229,5.1229,5.1229,5.1229,5.1229,5.1229,5.1229,5.1229,5.1229,5.1229,5.1229,5.1229,5.1229,5.1229,5.1229,5.1229,5.1229,5.1229,5.1229,5.1167,5.1152,5.1011,5.087,5.071,5.0453,4.7309,4.7309,4.7309,4.7309,4.7309,4.7309,4.7309,4.7309,4.7309,4.7309,4.7309,4.7309,4.7309,4.7309,4.7309,4.7309,4.7309,4.7309,4.7309,4.7309,4.7309,4.7309,4.7309,4.7309,4.7309,4.7309,4.7309,4.7309,4.7309,4.7309,4.7309,4.7309,4.7309,4.7309,4.7309,4.7309,4.7309,4.7309,4.7309,4.7309,4.7309,4.7309,4.7309,4.7309,4.7352,4.7424,4.7553,4.7624,4.7712,4.785,4.9078,5.0105,5.0969,5.1638,5.1911,5.2048,5.2033,5.2155,5.2276,5.2322,5.2397,5.2624,5.2624,5.2713,5.2669,5.2669,5.2713,5.2713,5.2713,5.2713,5.2713,5.2713,5.2713,5.2713,5.2713,5.2713,5.2713,5.2713,5.2713,5.2713,5.2713,5.2713,5.2669,5.2337,5.2124,5.1941,5.1602,5.1354,5.1214,5.1229,5.1229,5.1229,5.1229,5.1229,5.1229,5.1229,5.1229,5.1229,5.1229,5.1229,5.1229,5.1229,5.1229,5.1229,5.1229,5.1229,5.1229,5.1229,5.1229,5.1214,5.1073,5.087,5.0775,5.071,5.0534,4.7309,4.7309,4.7309,4.7309,4.7309,4.7309,4.7309,4.7309,4.7309,4.7309,4.7309,4.7309,4.7309,4.7309,4.7309,4.7309,4.7309,4.7309,4.7309,4.7309,4.7309,4.7309,4.7309,4.7309,4.7309,4.7309,4.7309,4.7309,4.7309,4.7309,4.7309,4.7309,4.7309,4.7309,4.7309,4.7309,4.7309,4.7309,4.7309,4.7309,4.7309,4.7309,4.7309,4.7294,4.7439,4.7553,4.7639,4.7922,4.8323,4.8622,4.9126,5.0033,5.1071,5.1556,5.1982,5.235,5.2473,5.2518,5.2563,5.2563,5.2608,5.2669,5.2713,5.2713,5.2713,5.2713,5.2713,5.2713,5.2713,5.2713,5.2713,5.2713,5.2713,5.2713,5.2713,5.2713,5.2713,5.2713,5.2713,5.2713,5.2713,5.2713,5.2608,5.2412,5.2139,5.1941,5.1695,5.1401,5.1276,5.1229,5.1229,5.1229,5.1229,5.1229,5.1229,5.1229,5.1229,5.1229,5.1229,5.1229,5.1229,5.1229,5.1229,5.1229,5.1229,5.1229,5.1229,5.1229,5.1229,5.1229,5.1167,5.1026,5.1011,5.0947,5.0662,4.7309,4.7309,4.7309,4.7309,4.7309,4.7309,4.7309,4.7309,4.7309,4.7309,4.7309,4.7309,4.7309,4.7309,4.7309,4.7309,4.7309,4.7309,4.7309,4.7309,4.7309,4.7309,4.7309,4.7309,4.7309,4.7309,4.7309,4.7309,4.7309,4.7309,4.7309,4.7309,4.7309,4.7309,4.7309,4.7309,4.7309,4.7309,4.7309,4.7309,4.7309,4.7309,4.7352,4.7424,4.7553,4.7666,4.7922,4.8244,4.8649,4.9057,4.9356,4.9972,5.0969,5.1471,5.1882,5.2283,5.2529,5.2713,5.2713,5.2713,5.2713,5.2713,5.2713,5.2713,5.2713,5.2713,5.2713,5.2713,5.2713,5.2713,5.2713,5.2713,5.2713,5.2713,5.2713,5.2713,5.2713,5.2713,5.2713,5.2713,5.2713,5.2653,5.2563,5.2322,5.2109,5.1818,5.1541,5.1354,5.1229,5.1229,5.1229,5.1229,5.1229,5.1229,5.1229,5.1229,5.1229,5.1229,5.1229,5.1229,5.1229,5.1229,5.1229,5.1229,5.1229,5.1229,5.1229,5.1229,5.1229,5.1229,5.1229,5.1182,5.112,5.0964,5.0742,4.7309,4.7309,4.7309,4.7309,4.7309,4.7309,4.7309,4.7309,4.7309,4.7309,4.7309,4.7309,4.7309,4.7309,4.7309,4.7309,4.7309,4.7309,4.7309,4.7309,4.7309,4.7309,4.7309,4.7309,4.7309,4.7309,4.7309,4.7309,4.7309,4.7309,4.7309,4.7309,4.7309,4.7309,4.7309,4.7309,4.7309,4.7309,4.7309,4.7309,4.7309,4.7309,4.7396,4.7553,4.7709,4.7907,4.8244,4.8526,4.8756,4.9185,4.9474,4.9901,5.062,5.1328,5.1728,5.1975,5.2436,5.2713,5.2713,5.2713,5.2713,5.2713,5.2713,5.2713,5.2713,5.2713,5.2713,5.2713,5.2713,5.2713,5.2713,5.2713,5.2713,5.2713,5.2713,5.2713,5.2713,5.2713,5.2713,5.2713,5.2713,5.2503,5.2322,5.2094,5.1895,5.1726,5.1479,5.1308,5.1229,5.1229,5.1229,5.1229,5.1229,5.1229,5.1229,5.1229,5.1229,5.1229,5.1229,5.1229,5.1229,5.1229,5.1229,5.1229,5.1229,5.1229,5.1229,5.1229,5.1229,5.1229,5.1229,5.1182,5.112,5.0964,5.0728,4.7309,4.7309,4.7309,4.7309,4.7309,4.7309,4.7309,4.7309,4.7309,4.7309,4.7309,4.7309,4.7309,4.7309,4.7309,4.7309,4.7309,4.7309,4.7309,4.7309,4.7309,4.7309,4.7309,4.7309,4.7309,4.7309,4.7309,4.7309,4.7309,4.7309,4.7309,4.7309,4.7309,4.7309,4.7309,4.7309,4.7309,4.7309,4.7309,4.7309,4.7309,4.7309,4.7381,4.7624,4.7964,4.826,4.8453,4.8563,4.864,4.8763,4.8947,4.9605,5.0451,5.0882,5.1436,5.219,5.2544,5.2713,5.2713,5.2713,5.2713,5.2713,5.2713,5.2713,5.2713,5.2713,5.2713,5.2713,5.2713,5.2713,5.2713,5.2713,5.2713,5.2713,5.2713,5.2713,5.2713,5.2713,5.2669,5.2653,5.2503,5.2336,5.2261,5.1895,5.1726,5.1572,5.1448,5.1229,5.1229,5.1229,5.1229,5.1229,5.1229,5.1229,5.1229,5.1229,5.1229,5.1229,5.1229,5.1229,5.1229,5.1229,5.1229,5.1229,5.1229,5.1229,5.1229,5.1229,5.1229,5.1229,5.1182,5.1073,5.0964,5.087,5.0798,4.7309,4.7309,4.7309,4.7309,4.7309,4.7309,4.7309,4.7309,4.7309,4.7309,4.7309,4.7309,4.7309,4.7309,4.7309,4.7309,4.7309,4.7309,4.7309,4.7309,4.7309,4.7309,4.7309,4.7309,4.7309,4.7309,4.7309,4.7309,4.7309,4.7309,4.7309,4.7309,4.7309,4.7309,4.7309,4.7309,4.7309,4.7309,4.7309,4.7309,4.7309,4.7309,4.7467,4.7794,4.8233,4.8618,4.9097,4.9127,4.9312,4.9497,4.9589,4.9712,5.0266,5.0836,5.1544,5.2067,5.259,5.2698,5.2713,5.2713,5.2713,5.2713,5.2713,5.2713,5.2713,5.2713,5.2713,5.2713,5.2713,5.2713,5.2713,5.2713,5.2713,5.2713,5.2713,5.2669,5.2548,5.2503,5.2518,5.2473,5.2291,5.2094,5.191,5.1711,5.1526,5.1386,5.1354,5.1229,5.1229,5.1229,5.1229,5.1229,5.1229,5.1229,5.1229,5.1229,5.1229,5.1229,5.1229,5.1229,5.1229,5.1229,5.1229,5.1229,5.1229,5.1229,5.1229,5.1229,5.1229,5.1182,5.112,5.0964,5.0852,5.0706,5.0736,4.7309,4.7309,4.7309,4.7309,4.7309,4.7309,4.7309,4.7309,4.7309,4.7309,4.7309,4.7309,4.7309,4.7309,4.7309,4.7309,4.7309,4.7309,4.7309,4.7309,4.7309,4.7309,4.7309,4.7309,4.7309,4.7309,4.7309,4.7309,4.7309,4.7309,4.7309,4.7309,4.7309,4.7309,4.7309,4.7309,4.7309,4.7309,4.7309,4.7309,4.7309,4.7324,4.7598,4.8207,4.886,4.9301,4.9743,4.9866,5.0066,5.0636,5.079,5.0528,5.0466,5.0928,5.1805,5.1882,5.2467,5.2683,5.2713,5.2713,5.2713,5.2713,5.2713,5.2713,5.2713,5.2713,5.2713,5.2713,5.2713,5.2713,5.2713,5.2713,5.2713,5.2713,5.2713,5.2563,5.2352,5.2306,5.2276,5.2231,5.2063,5.188,5.1726,5.1541,5.1401,5.1261,5.1229,5.1229,5.1229,5.1229,5.1229,5.1229,5.1229,5.1229,5.1229,5.1229,5.1229,5.1229,5.1229,5.1229,5.1229,5.1229,5.1229,5.1229,5.1229,5.1229,5.1229,5.1229,5.1182,5.1167,5.1165,5.1101,5.0894,5.0604,5.0842,4.7309,4.7309,4.7309,4.7309,4.7309,4.7309,4.7309,4.7309,4.7309,4.7309,4.7309,4.7309,4.7309,4.7309,4.7309,4.7309,4.7309,4.7309,4.7309,4.7309,4.7309,4.7309,4.7309,4.7309,4.7309,4.7309,4.7309,4.7309,4.7309,4.7309,4.7309,4.7309,4.7309,4.7309,4.7309,4.7309,4.7309,4.7309,4.7309,4.7309,4.7309,4.7486,4.7972,4.8797,4.9653,5.0208,5.0436,5.0528,5.059,5.0728,5.1251,5.1405,5.139,5.1605,5.1975,5.2375,5.259,5.2713,5.2713,5.2713,5.2713,5.2713,5.2713,5.2713,5.2713,5.2713,5.2713,5.2713,5.2713,5.2713,5.2713,5.2713,5.2713,5.2713,5.2669,5.2548,5.2306,5.2139,5.2017,5.1972,5.1787,5.1649,5.1541,5.1401,5.1308,5.1214,5.1229,5.1229,5.1229,5.1229,5.1229,5.1229,5.1229,5.1229,5.1229,5.1229,5.1229,5.1229,5.1229,5.1229,5.1229,5.1229,5.1229,5.1229,5.1229,5.1229,5.1229,5.1229,5.1334,5.1362,5.1299,5.122,5.1372,5.1457,5.167,4.7309,4.7309,4.7309,4.7309,4.7309,4.7309,4.7309,4.7309,4.7309,4.7309,4.7309,4.7309,4.7309,4.7309,4.7309,4.7309,4.7309,4.7309,4.7309,4.7309,4.7309,4.7309,4.7309,4.7309,4.7309,4.7309,4.7309,4.7309,4.7309,4.7309,4.7309,4.7309,4.7309,4.7309,4.7309,4.7309,4.7309,4.7309,4.7309,4.7309,4.7427,4.781,4.8715,4.958,5.0297,5.0836,5.119,5.1221,5.1405,5.1728,5.2067,5.219,5.2221,5.2236,5.2344,5.2637,5.2713,5.2713,5.2713,5.2713,5.2713,5.2713,5.2713,5.2713,5.2713,5.2713,5.2713,5.2713,5.2713,5.2713,5.2713,5.2713,5.2713,5.2669,5.2608,5.2367,5.2185,5.191,5.1787,5.1695,5.1509,5.1416,5.1354,5.1261,5.1229,5.1229,5.1229,5.1229,5.1229,5.1229,5.1229,5.1229,5.1229,5.1229,5.1229,5.1229,5.1229,5.1229,5.1229,5.1229,5.1229,5.1229,5.1229,5.1229,5.1229,5.1334,5.1229,5.1197,5.1409,5.1586,5.164,5.1768,5.207,5.2343,5.2526,4.7309,4.7309,4.7309,4.7309,4.7309,4.7309,4.7309,4.7309,4.7309,4.7309,4.7309,4.7309,4.7309,4.7309,4.7309,4.7309,4.7309,4.7309,4.7309,4.7309,4.7309,4.7309,4.7309,4.7309,4.7309,4.7309,4.7309,4.7309,4.7309,4.7309,4.7309,4.7309,4.7309,4.7309,4.7309,4.7309,4.7309,4.7309,4.7309,4.7324,4.7797,4.8749,4.9676,5.04,5.0831,5.1318,5.1748,5.1809,5.2084,5.2392,5.2637,5.2683,5.2698,5.2713,5.2713,5.2713,5.2713,5.2713,5.2713,5.2713,5.2713,5.2713,5.2713,5.2713,5.2713,5.2713,5.2713,5.2713,5.2713,5.2713,5.2713,5.2713,5.2713,5.2669,5.2473,5.2231,5.2017,5.1787,5.1541,5.1401,5.1229,5.1229,5.1261,5.1261,5.1229,5.1229,5.1229,5.1229,5.1229,5.1229,5.1229,5.1229,5.1229,5.1229,5.1229,5.1229,5.1229,5.1229,5.1229,5.1229,5.1229,5.1229,5.1229,5.1244,5.1543,5.1633,5.1439,5.1332,5.1678,5.1915,5.1992,5.2345,5.2915,5.3179,5.3303,4.7309,4.7309,4.7309,4.7309,4.7309,4.7309,4.7309,4.7309,4.7309,4.7309,4.7309,4.7309,4.7309,4.7309,4.7309,4.7309,4.7309,4.7309,4.7309,4.7309,4.7309,4.7309,4.7309,4.7309,4.7309,4.7309,4.7309,4.7309,4.7309,4.7309,4.7309,4.7309,4.7309,4.7309,4.7309,4.7309,4.7309,4.7309,4.7324,4.771,4.8561,4.9867,5.0605,5.1105,5.1574,5.2,5.2137,5.2152,5.2395,5.2652,5.2713,5.2713,5.2713,5.2713,5.2713,5.2713,5.2713,5.2713,5.2713,5.2713,5.2713,5.2713,5.2713,5.2713,5.2713,5.2713,5.2713,5.2713,5.2713,5.2713,5.2713,5.2713,5.2713,5.2608,5.2412,5.22,5.1972,5.1649,5.1401,5.1308,5.1229,5.1229,5.1229,5.1229,5.1229,5.1229,5.1229,5.1229,5.1229,5.1229,5.1229,5.1229,5.1229,5.1229,5.1229,5.1229,5.1229,5.1229,5.1229,5.1229,5.1229,5.1229,5.1229,5.1319,5.1663,5.1828,5.1633,5.1708,5.2022,5.2333,5.2629,5.3211,5.3903,5.4047,5.3948,4.7309,4.7309,4.7309,4.7309,4.7309,4.7309,4.7309,4.7309,4.7309,4.7309,4.7309,4.7309,4.7309,4.7309,4.7309,4.7309,4.7309,4.7309,4.7309,4.7309,4.7309,4.7309,4.7309,4.7309,4.7309,4.7309,4.7309,4.7309,4.7309,4.7309,4.7309,4.7309,4.7309,4.7309,4.7309,4.7309,4.7309,4.7414,4.7698,4.8519,4.9553,5.0381,5.1031,5.1547,5.1911,5.2155,5.2261,5.2306,5.2457,5.2669,5.2713,5.2713,5.2713,5.2713,5.2713,5.2713,5.2713,5.2713,5.2713,5.2713,5.2713,5.2713,5.2713,5.2713,5.2713,5.2713,5.2713,5.2713,5.2713,5.2713,5.2713,5.2713,5.2608,5.2457,5.2337,5.2063,5.1834,5.1556,5.1308,5.1276,5.1229,5.1229,5.1229,5.1229,5.1229,5.1229,5.1229,5.1229,5.1229,5.1229,5.1229,5.1229,5.1229,5.1229,5.1229,5.1229,5.1229,5.1229,5.1229,5.1229,5.1229,5.1229,5.1259,5.1439,5.1768,5.1843,5.1813,5.2247,5.277,5.3025,5.3249,5.3713,5.4117,5.4162,5.3923,4.7309,4.7309,4.7309,4.7309,4.7309,4.7309,4.7309,4.7309,4.7309,4.7309,4.7309,4.7309,4.7309,4.7309,4.7309,4.7309,4.7309,4.7309,4.7309,4.7309,4.7309,4.7309,4.7309,4.7309,4.7309,4.7309,4.7309,4.7309,4.7309,4.7309,4.7309,4.7309,4.7309,4.7309,4.7309,4.7324,4.7369,4.7683,4.8237,4.9209,5.0291,5.0743,5.1273,5.1667,5.1972,5.2063,5.2185,5.2306,5.2457,5.2669,5.2713,5.2713,5.2713,5.2713,5.2713,5.2713,5.2713,5.2713,5.2713,5.2713,5.2713,5.2713,5.2713,5.2713,5.2713,5.2713,5.2713,5.2713,5.2713,5.2713,5.2713,5.2713,5.2563,5.2367,5.2155,5.188,5.1649,5.1401,5.1261,5.1229,5.1229,5.1229,5.1229,5.1229,5.1229,5.1229,5.1229,5.1229,5.1229,5.1229,5.1229,5.1229,5.1229,5.1229,5.1229,5.1229,5.1229,5.1229,5.1229,5.1229,5.1229,5.1289,5.1349,5.1603,5.1962,5.2501,5.2845,5.3204,5.3488,5.3414,5.3414,5.3803,5.4087,5.4087,5.3704,4.7309,4.7309,4.7309,4.7309,4.7309,4.7309,4.7309,4.7309,4.7309,4.7309,4.7309,4.7309,4.7309,4.7309,4.7309,4.7309,4.7309,4.7309,4.7309,4.7309,4.7309,4.7309,4.7309,4.7309,4.7309,4.7309,4.7309,4.7309,4.7309,4.7309,4.7309,4.7309,4.7309,4.7309,4.7354,4.7429,4.7773,4.8222,4.888,4.9659,5.0547,5.1074,5.1497,5.1573,5.1849,5.2002,5.2048,5.2185,5.2412,5.2669,5.2713,5.2713,5.2713,5.2713,5.2713,5.2713,5.2713,5.2713,5.2713,5.2713,5.2713,5.2713,5.2713,5.2713,5.2713,5.2713,5.2713,5.2713,5.2713,5.2713,5.2713,5.2669,5.2503,5.2291,5.2017,5.1787,5.1541,5.1354,5.1214,5.1229,5.1276,5.1323,5.1323,5.1369,5.1214,5.1214,5.1229,5.1229,5.1229,5.1229,5.1229,5.1229,5.1229,5.1229,5.1229,5.1229,5.1214,5.1261,5.1261,5.1229,5.1229,5.1304,5.1364,5.1947,5.2396,5.3144,5.3743,5.3773,5.3728,5.3518,5.3488,5.3488,5.3443,5.3324,5.2927,4.7164,4.7309,4.7309,4.7309,4.7309,4.7309,4.7309,4.7309,4.7309,4.7309,4.7309,4.7309,4.7309,4.7309,4.7309,4.7309,4.7309,4.7309,4.7309,4.7309,4.7309,4.7309,4.7309,4.7309,4.7309,4.7309,4.7309,4.7309,4.7309,4.7309,4.7309,4.7309,4.7309,4.7309,4.7369,4.7698,4.8237,4.885,4.9508,5.0213,5.0843,5.1159,5.1354,5.1354,5.1618,5.1834,5.1987,5.22,5.2412,5.2608,5.2713,5.2713,5.2713,5.2713,5.2713,5.2713,5.2713,5.2713,5.2713,5.2713,5.2713,5.2713,5.2713,5.2713,5.2713,5.2713,5.2713,5.2713,5.2713,5.2713,5.2713,5.2563,5.2367,5.2139,5.191,5.168,5.1494,5.1308,5.1354,5.1401,5.1494,5.1556,5.1556,5.1556,5.1416,5.1261,5.1214,5.1229,5.1229,5.1229,5.1229,5.1229,5.1276,5.1354,5.1369,5.1354,5.1308,5.1308,5.1308,5.1323,5.1323,5.1244,5.1424,5.2082,5.2788,5.3406,5.3841,5.3982,5.3907,5.3548,5.3099,5.274,5.2665,5.2606,5.2375,4.7062,4.7309,4.7309,4.7309,4.7309,4.7309,4.7309,4.7309,4.7309,4.7309,4.7309,4.7309,4.7309,4.7309,4.7309,4.7309,4.7309,4.7309,4.7309,4.7309,4.7309,4.7309,4.7309,4.7309,4.7309,4.7309,4.7309,4.7309,4.7309,4.7309,4.7309,4.7309,4.7309,4.7309,4.7459,4.7967,4.8655,4.9299,4.9898,5.051,5.1109,5.1214,5.1229,5.1308,5.1587,5.1834,5.2033,5.2291,5.2518,5.2653,5.2713,5.2713,5.2713,5.2713,5.2713,5.2713,5.2713,5.2713,5.2713,5.2713,5.2713,5.2713,5.2713,5.2713,5.2713,5.2713,5.2713,5.2713,5.2713,5.2713,5.2713,5.2503,5.2276,5.2063,5.1818,5.1587,5.1541,5.1386,5.1541,5.168,5.1741,5.1787,5.1695,5.1695,5.1448,5.1308,5.1214,5.1229,5.1229,5.1229,5.1229,5.1276,5.1323,5.1448,5.1541,5.1602,5.1602,5.1649,5.1649,5.1556,5.1524,5.1521,5.1927,5.2866,5.3486,5.3751,5.4003,5.4273,5.398,5.3488,5.2845,5.2082,5.2097,5.2082,5.2276,4.7062,4.7309,4.7309,4.7309,4.7309,4.7309,4.7309,4.7309,4.7309,4.7309,4.7309,4.7309,4.7309,4.7309,4.7309,4.7309,4.7309,4.7309,4.7309,4.7309,4.7309,4.7309,4.7309,4.7309,4.7309,4.7309,4.7309,4.7309,4.7309,4.7309,4.7309,4.7354,4.7399,4.7459,4.7399,4.7982,4.8626,4.9269,4.9972,5.0599,5.1079,5.1229,5.1229,5.1323,5.1695,5.1941,5.2078,5.2382,5.2608,5.2669,5.2713,5.2713,5.2713,5.2713,5.2713,5.2713,5.2713,5.2713,5.2713,5.2713,5.2713,5.2713,5.2713,5.2713,5.2713,5.2713,5.2713,5.2713,5.2713,5.2713,5.2608,5.2457,5.2246,5.2063,5.1818,5.1695,5.1587,5.1587,5.1741,5.191,5.1972,5.1987,5.188,5.1787,5.1541,5.1401,5.1261,5.1229,5.1229,5.1261,5.1308,5.1354,5.1448,5.1634,5.1818,5.1895,5.1956,5.1941,5.2001,5.2029,5.2226,5.2483,5.3045,5.3791,5.4119,5.4401,5.4507,5.4676,5.3957,5.3116,5.21,5.1454,5.1498,5.1708,5.2022,4.6946,4.7309,4.7309,4.7309,4.7309,4.7309,4.7309,4.7309,4.7309,4.7309,4.7309,4.7309,4.7309,4.7309,4.7309,4.7309,4.7309,4.7309,4.7309,4.7309,4.7309,4.7309,4.7309,4.7309,4.7309,4.7309,4.7309,4.7309,4.7309,4.7309,4.7309,4.7354,4.7698,4.7938,4.8132,4.8611,4.9314,4.9912,5.048,5.0988,5.1199,5.1229,5.1214,5.1214,5.1695,5.1987,5.2033,5.2443,5.2669,5.2713,5.2713,5.2713,5.2713,5.2713,5.2713,5.2713,5.2713,5.2713,5.2713,5.2713,5.2713,5.2713,5.2713,5.2713,5.2713,5.2713,5.2713,5.2713,5.2713,5.2713,5.2669,5.2457,5.2276,5.2185,5.2048,5.1926,5.1834,5.1895,5.1941,5.2094,5.2185,5.2185,5.2139,5.2048,5.1818,5.1634,5.1509,5.1323,5.1323,5.1448,5.1494,5.1587,5.168,5.191,5.2048,5.2124,5.2277,5.2383,5.255,5.2684,5.2973,5.3356,5.3888,5.4496,5.4767,5.5022,5.4901,5.4564,5.3592,5.2663,5.2081,5.1563,5.1531,5.1815,5.2112,4.6712,4.7164,4.7164,4.7207,4.7309,4.7309,4.7309,4.7309,4.7309,4.7309,4.7309,4.7309,4.7309,4.7309,4.7309,4.7309,4.7309,4.7309,4.7309,4.7309,4.7309,4.7309,4.7309,4.7309,4.7309,4.7309,4.7309,4.7309,4.7309,4.7309,4.7474,4.7743,4.8072,4.8536,4.8895,4.9494,4.9763,5.0255,5.0719,5.1169,5.1229,5.1229,5.1229,5.1369,5.1664,5.1987,5.2139,5.2397,5.2713,5.2713,5.2713,5.2713,5.2713,5.2713,5.2713,5.2713,5.2713,5.2713,5.2713,5.2713,5.2713,5.2713,5.2713,5.2713,5.2713,5.2713,5.2713,5.2713,5.2713,5.2713,5.2669,5.2457,5.2306,5.2261,5.2185,5.2063,5.2109,5.2124,5.217,5.2322,5.2412,5.2412,5.2412,5.2306,5.2124,5.1956,5.1756,5.1602,5.1463,5.1587,5.1726,5.1818,5.1926,5.2109,5.2246,5.2291,5.252,5.2734,5.307,5.3358,5.3833,5.4279,5.4735,5.5176,5.5529,5.5636,5.5143,5.4529,5.4009,5.3489,5.2935,5.2384,5.179,5.2135,5.266,4.6476,4.6887,4.6931,4.7077,4.7266,4.7309,4.7309,4.7309,4.7309,4.7309,4.7309,4.7309,4.7309,4.7309,4.7309,4.7309,4.7309,4.7309,4.7309,4.7309,4.7309,4.7309,4.7309,4.7309,4.7309,4.7309,4.7309,4.7309,4.7309,4.7309,4.7608,4.8102,4.8356,4.9,4.9673,5.0152,5.024,5.0569,5.09,5.1199,5.1229,5.1229,5.1229,5.1369,5.171,5.1941,5.2124,5.2382,5.2624,5.2713,5.2713,5.2713,5.2713,5.2713,5.2713,5.2713,5.2713,5.2713,5.2713,5.2713,5.2713,5.2713,5.2713,5.2713,5.2713,5.2713,5.2713,5.2713,5.2713,5.2713,5.2669,5.2503,5.2336,5.2261,5.2185,5.2185,5.2322,5.2367,5.2473,5.2563,5.2608,5.2608,5.2563,5.2518,5.2367,5.2322,5.2155,5.2124,5.1972,5.188,5.2017,5.2002,5.2155,5.2322,5.2504,5.2733,5.3116,5.3484,5.3868,5.4205,5.4698,5.5128,5.5524,5.5938,5.639,5.6311,5.5796,5.5363,5.4949,5.4394,5.3857,5.3334,5.2767,5.3233,5.3727,4.6462,4.6887,4.6931,4.7077,4.7266,4.7309,4.7309,4.7309,4.7309,4.7309,4.7309,4.7309,4.7309,4.7309,4.7309,4.7309,4.7309,4.7309,4.7309,4.7309,4.7309,4.7309,4.7309,4.7309,4.7309,4.7309,4.7309,4.7309,4.7309,4.7309,4.7683,4.8207,4.8775,4.9508,5.0152,5.0659,5.0764,5.0868,5.1109,5.1184,5.1229,5.1229,5.1229,5.1369,5.171,5.1941,5.2124,5.2443,5.2669,5.2713,5.2713,5.2713,5.2713,5.2713,5.2713,5.2713,5.2713,5.2713,5.2713,5.2713,5.2713,5.2713,5.2713,5.2713,5.2713,5.2713,5.2713,5.2713,5.2713,5.2713,5.2713,5.2608,5.2503,5.2457,5.2382,5.2427,5.2518,5.2563,5.2608,5.2608,5.2713,5.2713,5.2669,5.2669,5.2563,5.2563,5.2518,5.2488,5.2397,5.2307,5.2398,5.2414,5.2566,5.2795,5.3162,5.3422,5.3853,5.4222,5.4591,5.4945,5.5407,5.5838,5.6269,5.6563,5.6702,5.6669,5.6513,5.6063,5.5568,5.5279,5.4802,5.4275,5.3916,5.4246,5.4513,4.6314,4.6609,4.6756,4.6975,4.7266,4.7309,4.7309,4.7309,4.7309,4.7309,4.7309,4.7309,4.7309,4.7309,4.7309,4.7309,4.7309,4.7309,4.7309,4.7309,4.7309,4.7309,4.7309,4.7309,4.7309,4.7309,4.7309,4.7309,4.7354,4.7668,4.8042,4.876,4.9329,4.9972,5.0556,5.0975,5.1139,5.1184,5.1214,5.1229,5.1229,5.1229,5.1229,5.1323,5.171,5.1941,5.2033,5.2443,5.2669,5.2713,5.2713,5.2713,5.2713,5.2713,5.2713,5.2713,5.2713,5.2713,5.2713,5.2713,5.2713,5.2713,5.2713,5.2713,5.2713,5.2713,5.2713,5.2713,5.2713,5.2713,5.2713,5.2713,5.2713,5.2669,5.2669,5.2669,5.2713,5.2713,5.2713,5.2713,5.2713,5.2713,5.2713,5.2713,5.2713,5.2669,5.2669,5.2624,5.2578,5.2533,5.2779,5.2994,5.3162,5.3345,5.3745,5.416,5.453,5.4884,5.5161,5.5545,5.6007,5.6332,5.6579,5.6702,5.6779,5.673,5.6684,5.65,5.6129,5.5869,5.5761,5.5494,5.5119,5.4944,5.5198,4.6015,4.6254,4.6506,4.6902,4.7266,4.7309,4.7309,4.7309,4.7309,4.7309,4.7309,4.7309,4.7309,4.7309,4.7309,4.7309,4.7309,4.7309,4.7309,4.7309,4.7309,4.7309,4.7309,4.7309,4.7309,4.7309,4.7309,4.7309,4.7489,4.7833,4.8491,4.9314,4.9838,5.0375,5.099,5.1139,5.1229,5.1229,5.1229,5.1229,5.1229,5.1229,5.1229,5.1261,5.1602,5.1941,5.2033,5.2307,5.2669,5.2669,5.2669,5.2669,5.2713,5.2713,5.2713,5.2713,5.2713,5.2713,5.2713,5.2713,5.2713,5.2713,5.2713,5.2713,5.2713,5.2713,5.2713,5.2713,5.2713,5.2713,5.2713,5.2713,5.2713,5.2713,5.2713,5.2713,5.2713,5.2713,5.2713,5.2713,5.2713,5.2713,5.2713,5.2713,5.2713,5.2713,5.2713,5.2713,5.2744,5.2699,5.3084,5.3438,5.3514,5.376,5.4499,5.4884,5.5191,5.5499,5.5745,5.6007,5.6425,5.6625,5.6779,5.681,5.681,5.681,5.6763,5.6625,5.6579,5.6548,5.6469,5.6686,5.6403,5.5875,5.5824,4.6001,4.6254,4.6668,4.7019,4.7266,4.7309,4.7309,4.7309,4.7309,4.7309,4.7309,4.7309,4.7309,4.7309,4.7309,4.7309,4.7309,4.7309,4.7309,4.7309,4.7309,4.7309,4.7309,4.7309,4.7309,4.7309,4.7309,4.7324,4.7459,4.7967,4.867,4.9299,4.9912,5.0524,5.1184,5.1229,5.1229,5.1229,5.1229,5.1229,5.1229,5.1229,5.1229,5.1323,5.1556,5.1695,5.1834,5.1972,5.2231,5.2367,5.2367,5.2503,5.2669,5.2713,5.2713,5.2713,5.2713,5.2713,5.2713,5.2713,5.2713,5.2713,5.2713,5.2713,5.2713,5.2713,5.2713,5.2713,5.2713,5.2713,5.2713,5.2713,5.2713,5.2713,5.2713,5.2713,5.2713,5.2713,5.2713,5.2713,5.2713,5.2713,5.2713,5.2713,5.2713,5.2713,5.2713,5.2729,5.2806,5.2838,5.3345,5.3683,5.3668,5.4052,5.4961,5.553,5.5776,5.6053,5.6315,5.6594,5.6779,5.6794,5.681,5.681,5.681,5.681,5.681,5.6794,5.6779,5.681,5.681,5.681,5.6906,5.6517,5.6513,4.573,4.6076,4.658,4.6887,4.7106,4.7266,4.7309,4.7309,4.7309,4.7309,4.7309,4.7309,4.7309,4.7309,4.7309,4.7309,4.7309,4.7309,4.7309,4.7309,4.7309,4.7309,4.7309,4.7309,4.7309,4.7309,4.7309,4.7339,4.7414,4.7967,4.8626,4.9314,4.9927,5.051,5.1124,5.1229,5.1229,5.1229,5.1229,5.1229,5.1229,5.1229,5.1229,5.1276,5.1401,5.1541,5.168,5.1834,5.2094,5.2322,5.2412,5.2563,5.2669,5.2713,5.2713,5.2713,5.2713,5.2713,5.2713,5.2713,5.2713,5.2713,5.2713,5.2713,5.2713,5.2713,5.2713,5.2713,5.2713,5.2713,5.2713,5.2713,5.2713,5.2713,5.2713,5.2713,5.2713,5.2713,5.2713,5.2713,5.2713,5.2713,5.2713,5.2713,5.2713,5.2713,5.2713,5.3052,5.3083,5.3221,5.3698,5.4068,5.416,5.4776,5.5838,5.6207,5.6347,5.6625,5.681,5.681,5.6794,5.681,5.681,5.681,5.681,5.681,5.681,5.681,5.681,5.681,5.681,5.6858,5.6954,5.7083,5.7163,4.5458,4.597,4.6373,4.6668,4.6887,4.7121,4.7207,4.7222,4.7266,4.7266,4.7309,4.7309,4.7309,4.7309,4.7309,4.7309,4.7309,4.7309,4.7309,4.7309,4.7309,4.7309,4.7309,4.7309,4.7309,4.7309,4.7309,4.7309,4.7339,4.7967,4.8611,4.9314,4.9912,5.051,5.102,5.1229,5.1229,5.1229,5.1229,5.1229,5.1229,5.1229,5.1229,5.1261,5.1401,5.1526,5.1634,5.1726,5.2002,5.2291,5.2473,5.2624,5.2669,5.2713,5.2713,5.2713,5.2713,5.2713,5.2713,5.2713,5.2713,5.2713,5.2713,5.2713,5.2713,5.2713,5.2713,5.2713,5.2713,5.2713,5.2713,5.2713,5.2713,5.2729,5.2729,5.2744,5.2744,5.2821,5.2867,5.2883,5.2975,5.2975,5.3006,5.2991,5.2898,5.2883,5.3006,5.3329,5.3591,5.3914,5.4268,5.4653,5.4899,5.5684,5.6609,5.6702,5.6656,5.6717,5.681,5.681,5.681,5.681,5.681,5.681,5.681,5.681,5.681,5.681,5.681,5.681,5.6987,5.7131,5.7306,5.7433,5.7762,4.5489,4.6135,4.6269,4.6447,4.6639,4.6727,4.6815,4.6975,4.6975,4.7077,4.7266,4.7309,4.7309,4.7309,4.7309,4.7309,4.7309,4.7309,4.7309,4.7309,4.7309,4.7309,4.7309,4.7309,4.7309,4.7309,4.7309,4.7309,4.7414,4.7952,4.8611,4.9314,4.9912,5.0495,5.1109,5.1229,5.1229,5.1229,5.1229,5.1229,5.1229,5.1229,5.1229,5.1229,5.1229,5.1276,5.1323,5.1308,5.1649,5.2017,5.2443,5.2624,5.2713,5.2713,5.2713,5.2713,5.2713,5.2713,5.2713,5.2713,5.2713,5.2713,5.2713,5.2713,5.2713,5.2713,5.2713,5.2713,5.2713,5.2713,5.2713,5.2713,5.2713,5.2744,5.276,5.2821,5.2852,5.3175,5.3452,5.3668,5.3899,5.3976,5.4053,5.3991,5.376,5.3714,5.3622,5.3914,5.4376,5.4622,5.4837,5.5222,5.5576,5.6007,5.6656,5.6763,5.6763,5.6794,5.681,5.681,5.681,5.681,5.681,5.681,5.681,5.681,5.681,5.681,5.6858,5.6939,5.7258,5.7433,5.7621,5.7856,5.8181]}]]